<?xml version='1.0' encoding='UTF-8'?><gpx version="1.1" creator="JPX - https://github.com/jenetics/jpx" xmlns="http://www.topografix.com/GPX/1/1"><trk><trkseg><trkpt lat="48.943360602980526" lon="19.319673442313555"><ele>709.0000000000001</ele><time>2026-05-03T12:08:33Z</time></trkpt><trkpt lat="48.94332832603603" lon="19.319586934041947"><ele>709.0</ele><time>2026-05-03T12:08:46Z</time></trkpt><trkpt lat="48.943359503222226" lon="19.319487182769716"><ele>709.0</ele><time>2026-05-03T12:08:52Z</time></trkpt><trkpt lat="48.943405594142064" lon="19.319410028239805"><ele>709.0</ele><time>2026-05-03T12:08:59Z</time></trkpt><trkpt lat="48.9433916893988" lon="19.31951311637664"><ele>709.0</ele><time>2026-05-03T12:09:08Z</time></trkpt><trkpt lat="48.94337341039636" lon="19.319613548585185"><ele>709.0000000000001</ele><time>2026-05-03T12:09:15Z</time></trkpt><trkpt lat="48.94332647455254" lon="19.319685974214906"><ele>709.0</ele><time>2026-05-03T12:09:21Z</time></trkpt><trkpt lat="48.94336972305655" lon="19.319768126156376"><ele>709.0000000000001</ele><time>2026-05-03T12:09:36Z</time></trkpt><trkpt lat="48.943361565759396" lon="19.31966360615792"><ele>709.0</ele><time>2026-05-03T12:09:52Z</time></trkpt><trkpt lat="48.943345960425034" lon="19.31956851073515"><ele>709.0</ele><time>2026-05-03T12:09:56Z</time></trkpt><trkpt lat="48.94335929471594" lon="19.319473214244546"><ele>709.0</ele><time>2026-05-03T12:10:01Z</time></trkpt><trkpt lat="48.943409672464846" lon="19.31941097994696"><ele>709.0</ele><time>2026-05-03T12:10:07Z</time></trkpt><trkpt lat="48.943489621447966" lon="19.319326530831603"><ele>709.0000000000001</ele><time>2026-05-03T12:10:42Z</time></trkpt><trkpt lat="48.94347598656366" lon="19.319201117952147"><ele>709.0</ele><time>2026-05-03T12:10:44Z</time></trkpt><trkpt lat="48.94346448140715" lon="19.319013815294852"><ele>709.5</ele><time>2026-05-03T12:10:46Z</time></trkpt><trkpt lat="48.94347923333942" lon="19.31888805339315"><ele>710.0</ele><time>2026-05-03T12:10:48Z</time></trkpt><trkpt lat="48.943479859239204" lon="19.318760296327376"><ele>710.5</ele><time>2026-05-03T12:10:50Z</time></trkpt><trkpt lat="48.94347397773584" lon="19.31860284166889"><ele>711.0</ele><time>2026-05-03T12:10:52Z</time></trkpt><trkpt lat="48.943457207603906" lon="19.31848454516315"><ele>711.5</ele><time>2026-05-03T12:10:54Z</time></trkpt><trkpt lat="48.94347555984951" lon="19.318390219066142"><ele>712.0</ele><time>2026-05-03T12:10:56Z</time></trkpt><trkpt lat="48.94356373044884" lon="19.318333200170123"><ele>712.0</ele><time>2026-05-03T12:10:58Z</time></trkpt><trkpt lat="48.94363562084076" lon="19.31833442068959"><ele>712.0</ele><time>2026-05-03T12:10:59Z</time></trkpt><trkpt lat="48.943750733577815" lon="19.318281202379808"><ele>712.0</ele><time>2026-05-03T12:11:01Z</time></trkpt><trkpt lat="48.94381757236838" lon="19.318265803160223"><ele>712.0</ele><time>2026-05-03T12:11:02Z</time></trkpt><trkpt lat="48.94389241734984" lon="19.31823810135115"><ele>712.0</ele><time>2026-05-03T12:11:03Z</time></trkpt><trkpt lat="48.94400356413672" lon="19.31821474481088"><ele>712.0</ele><time>2026-05-03T12:11:05Z</time></trkpt><trkpt lat="48.94407415584243" lon="19.3182053825821"><ele>711.2</ele><time>2026-05-03T12:11:07Z</time></trkpt><trkpt lat="48.94411062879412" lon="19.31806196813164"><ele>710.4000000000001</ele><time>2026-05-03T12:11:09Z</time></trkpt><trkpt lat="48.94409613078286" lon="19.31796854154073"><ele>709.5999999999999</ele><time>2026-05-03T12:11:10Z</time></trkpt><trkpt lat="48.94407816128851" lon="19.31780784568476"><ele>708.8</ele><time>2026-05-03T12:11:12Z</time></trkpt><trkpt lat="48.94405675982967" lon="19.31763396092035"><ele>708.0</ele><time>2026-05-03T12:11:14Z</time></trkpt><trkpt lat="48.94403614895468" lon="19.31752733678345"><ele>708.0</ele><time>2026-05-03T12:11:15Z</time></trkpt><trkpt lat="48.944037996131605" lon="19.317421907572555"><ele>708.0</ele><time>2026-05-03T12:11:16Z</time></trkpt><trkpt lat="48.94403592608147" lon="19.317235383331283"><ele>708.0</ele><time>2026-05-03T12:11:18Z</time></trkpt><trkpt lat="48.94399144089991" lon="19.31708859624535"><ele>708.0</ele><time>2026-05-03T12:11:20Z</time></trkpt><trkpt lat="48.94396005633999" lon="19.316960979662614"><ele>708.0</ele><time>2026-05-03T12:11:23Z</time></trkpt><trkpt lat="48.94395983362913" lon="19.316859949068895"><ele>707.5999999999999</ele><time>2026-05-03T12:11:25Z</time></trkpt><trkpt lat="48.9439250990424" lon="19.316740783003613"><ele>707.1999999999999</ele><time>2026-05-03T12:11:26Z</time></trkpt><trkpt lat="48.94392778085135" lon="19.316639449594383"><ele>706.8</ele><time>2026-05-03T12:11:27Z</time></trkpt><trkpt lat="48.94394626685493" lon="19.31654010862309"><ele>706.4</ele><time>2026-05-03T12:11:28Z</time></trkpt><trkpt lat="48.94403437727907" lon="19.316353535666263"><ele>706.0</ele><time>2026-05-03T12:11:29Z</time></trkpt><trkpt lat="48.94414555704852" lon="19.316279529856104"><ele>708.0</ele><time>2026-05-03T12:11:31Z</time></trkpt><trkpt lat="48.944232415131005" lon="19.316239990654687"><ele>710.0</ele><time>2026-05-03T12:11:32Z</time></trkpt><trkpt lat="48.94433169706066" lon="19.316207473921327"><ele>712.0</ele><time>2026-05-03T12:11:33Z</time></trkpt><trkpt lat="48.944456420766656" lon="19.316176713829204"><ele>714.0</ele><time>2026-05-03T12:11:34Z</time></trkpt><trkpt lat="48.94459486035814" lon="19.316134380871702"><ele>714.0</ele><time>2026-05-03T12:11:35Z</time></trkpt><trkpt lat="48.94473209660051" lon="19.316108158890003"><ele>714.0</ele><time>2026-05-03T12:11:36Z</time></trkpt><trkpt lat="48.94484206936136" lon="19.31610524278012"><ele>714.0</ele><time>2026-05-03T12:11:37Z</time></trkpt><trkpt lat="48.94492271018226" lon="19.316086419490276"><ele>714.0</ele><time>2026-05-03T12:11:38Z</time></trkpt><trkpt lat="48.94499371156665" lon="19.315958935109464"><ele>714.0</ele><time>2026-05-03T12:11:40Z</time></trkpt><trkpt lat="48.94495437769665" lon="19.315780641712646"><ele>714.0</ele><time>2026-05-03T12:11:42Z</time></trkpt><trkpt lat="48.9449237746007" lon="19.315660649037497"><ele>714.0</ele><time>2026-05-03T12:11:43Z</time></trkpt><trkpt lat="48.94489226519551" lon="19.315496620242858"><ele>714.0</ele><time>2026-05-03T12:11:44Z</time></trkpt><trkpt lat="48.94486256706985" lon="19.315307533730017"><ele>714.0</ele><time>2026-05-03T12:11:45Z</time></trkpt><trkpt lat="48.944839041469756" lon="19.31509717756147"><ele>714.25</ele><time>2026-05-03T12:11:46Z</time></trkpt><trkpt lat="48.944818754962846" lon="19.314888102034352"><ele>714.5</ele><time>2026-05-03T12:11:47Z</time></trkpt><trkpt lat="48.94478567406297" lon="19.314693742137262"><ele>714.75</ele><time>2026-05-03T12:11:48Z</time></trkpt><trkpt lat="48.944749449242465" lon="19.314537935736983"><ele>715.0</ele><time>2026-05-03T12:11:49Z</time></trkpt><trkpt lat="48.944735030486385" lon="19.314396588095537"><ele>715.6</ele><time>2026-05-03T12:11:50Z</time></trkpt><trkpt lat="48.944731198195875" lon="19.314266738322868"><ele>716.2</ele><time>2026-05-03T12:11:51Z</time></trkpt><trkpt lat="48.944718069329184" lon="19.31413832668605"><ele>716.8</ele><time>2026-05-03T12:11:52Z</time></trkpt><trkpt lat="48.9447154636131" lon="19.314009894182075"><ele>717.4</ele><time>2026-05-03T12:11:53Z</time></trkpt><trkpt lat="48.94471421408816" lon="19.313847211117757"><ele>718.0</ele><time>2026-05-03T12:11:54Z</time></trkpt><trkpt lat="48.94470489770967" lon="19.313682937144108"><ele>718.2</ele><time>2026-05-03T12:11:55Z</time></trkpt><trkpt lat="48.94468277103688" lon="19.31351226518111"><ele>718.4</ele><time>2026-05-03T12:11:56Z</time></trkpt><trkpt lat="48.944649894247306" lon="19.313350015903364"><ele>718.6</ele><time>2026-05-03T12:11:57Z</time></trkpt><trkpt lat="48.94461450218052" lon="19.313214584724168"><ele>718.8000000000001</ele><time>2026-05-03T12:11:58Z</time></trkpt><trkpt lat="48.94459921793592" lon="19.313087614950437"><ele>719.0</ele><time>2026-05-03T12:11:59Z</time></trkpt><trkpt lat="48.94458549271002" lon="19.31295595446475"><ele>719.0</ele><time>2026-05-03T12:12:00Z</time></trkpt><trkpt lat="48.94456778103568" lon="19.3127898490244"><ele>719.0</ele><time>2026-05-03T12:12:01Z</time></trkpt><trkpt lat="48.944553421234694" lon="19.312600214562064"><ele>719.0</ele><time>2026-05-03T12:12:02Z</time></trkpt><trkpt lat="48.944539412755915" lon="19.312431682343522"><ele>719.0</ele><time>2026-05-03T12:12:03Z</time></trkpt><trkpt lat="48.944527937665775" lon="19.312252045008755"><ele>719.2</ele><time>2026-05-03T12:12:04Z</time></trkpt><trkpt lat="48.944510762300865" lon="19.312089970900498"><ele>719.4000000000001</ele><time>2026-05-03T12:12:05Z</time></trkpt><trkpt lat="48.94448529583827" lon="19.311953446707506"><ele>719.6</ele><time>2026-05-03T12:12:06Z</time></trkpt><trkpt lat="48.94447000897812" lon="19.31182572286158"><ele>719.8</ele><time>2026-05-03T12:12:07Z</time></trkpt><trkpt lat="48.94446150882535" lon="19.311715605099767"><ele>720.0</ele><time>2026-05-03T12:12:08Z</time></trkpt><trkpt lat="48.94445250095799" lon="19.31154810418886"><ele>720.0</ele><time>2026-05-03T12:12:10Z</time></trkpt><trkpt lat="48.944444336714255" lon="19.31142546070498"><ele>720.0</ele><time>2026-05-03T12:12:12Z</time></trkpt><trkpt lat="48.94442754122919" lon="19.311295204562473"><ele>720.0</ele><time>2026-05-03T12:12:14Z</time></trkpt><trkpt lat="48.944388187518214" lon="19.311157987639138"><ele>720.0</ele><time>2026-05-03T12:12:16Z</time></trkpt><trkpt lat="48.94435243437063" lon="19.310975977488432"><ele>720.0</ele><time>2026-05-03T12:12:18Z</time></trkpt><trkpt lat="48.94431076626752" lon="19.310825442907575"><ele>719.5714285714286</ele><time>2026-05-03T12:12:20Z</time></trkpt><trkpt lat="48.944221297694895" lon="19.310798921475953"><ele>719.1428571428572</ele><time>2026-05-03T12:12:23Z</time></trkpt><trkpt lat="48.94414032005352" lon="19.31086676513397"><ele>718.7142857142858</ele><time>2026-05-03T12:12:25Z</time></trkpt><trkpt lat="48.944081841645975" lon="19.310909044348403"><ele>718.2857142857142</ele><time>2026-05-03T12:12:26Z</time></trkpt><trkpt lat="48.9440206007658" lon="19.31094296920953"><ele>717.8571428571429</ele><time>2026-05-03T12:12:27Z</time></trkpt><trkpt lat="48.943957583688416" lon="19.31098117146598"><ele>717.4285714285714</ele><time>2026-05-03T12:12:28Z</time></trkpt><trkpt lat="48.94389842674652" lon="19.311016928341104"><ele>717.0</ele><time>2026-05-03T12:12:29Z</time></trkpt><trkpt lat="48.94379598097424" lon="19.31108112999734"><ele>715.5</ele><time>2026-05-03T12:12:31Z</time></trkpt><trkpt lat="48.94370811318637" lon="19.311157821902906"><ele>714.0</ele><time>2026-05-03T12:12:33Z</time></trkpt><trkpt lat="48.94365847650182" lon="19.311244346072566"><ele>712.5</ele><time>2026-05-03T12:12:35Z</time></trkpt><trkpt lat="48.94363232109632" lon="19.311334180069753"><ele>711.0</ele><time>2026-05-03T12:12:37Z</time></trkpt><trkpt lat="48.94355141447705" lon="19.311301194241047"><ele>709.5</ele><time>2026-05-03T12:12:45Z</time></trkpt><trkpt lat="48.94345966621497" lon="19.311288142518453"><ele>708.0</ele><time>2026-05-03T12:12:47Z</time></trkpt><trkpt lat="48.94338109368064" lon="19.311317863244764"><ele>706.5999999999999</ele><time>2026-05-03T12:12:48Z</time></trkpt><trkpt lat="48.94329209335272" lon="19.311332658955255"><ele>705.1999999999999</ele><time>2026-05-03T12:12:49Z</time></trkpt><trkpt lat="48.94318904364475" lon="19.311342043807297"><ele>703.8</ele><time>2026-05-03T12:12:50Z</time></trkpt><trkpt lat="48.94308067905826" lon="19.311353051858635"><ele>702.4</ele><time>2026-05-03T12:12:51Z</time></trkpt><trkpt lat="48.942980843723305" lon="19.311359250099237"><ele>701.0</ele><time>2026-05-03T12:12:52Z</time></trkpt><trkpt lat="48.94288413787561" lon="19.311370262148568"><ele>701.0</ele><time>2026-05-03T12:12:53Z</time></trkpt><trkpt lat="48.94279350392811" lon="19.311379418446688"><ele>701.0</ele><time>2026-05-03T12:12:54Z</time></trkpt><trkpt lat="48.942702722213056" lon="19.31138628111769"><ele>701.0</ele><time>2026-05-03T12:12:55Z</time></trkpt><trkpt lat="48.94261484924505" lon="19.311387795243288"><ele>701.0</ele><time>2026-05-03T12:12:56Z</time></trkpt><trkpt lat="48.94252610947522" lon="19.311397900148783"><ele>701.0</ele><time>2026-05-03T12:12:57Z</time></trkpt><trkpt lat="48.942433704000486" lon="19.311410478162557"><ele>699.6666666666666</ele><time>2026-05-03T12:12:58Z</time></trkpt><trkpt lat="48.9423421280825" lon="19.31141660141903"><ele>698.3333333333333</ele><time>2026-05-03T12:12:59Z</time></trkpt><trkpt lat="48.94225501732428" lon="19.311433792747568"><ele>697.0</ele><time>2026-05-03T12:13:00Z</time></trkpt><trkpt lat="48.94216542111801" lon="19.311451185892125"><ele>695.6666666666666</ele><time>2026-05-03T12:13:01Z</time></trkpt><trkpt lat="48.942077813606794" lon="19.3114676610378"><ele>694.3333333333334</ele><time>2026-05-03T12:13:02Z</time></trkpt><trkpt lat="48.941993245844465" lon="19.31147783204976"><ele>693.0</ele><time>2026-05-03T12:13:03Z</time></trkpt><trkpt lat="48.94192465257315" lon="19.311495575201114"><ele>693.0</ele><time>2026-05-03T12:13:04Z</time></trkpt><trkpt lat="48.94181204943055" lon="19.311526626990787"><ele>693.0</ele><time>2026-05-03T12:13:06Z</time></trkpt><trkpt lat="48.941721441026296" lon="19.31155183078287"><ele>693.0</ele><time>2026-05-03T12:13:08Z</time></trkpt><trkpt lat="48.94165390433485" lon="19.311567664244347"><ele>693.0</ele><time>2026-05-03T12:13:12Z</time></trkpt><trkpt lat="48.9415874939973" lon="19.311525102776915"><ele>693.0</ele><time>2026-05-03T12:13:15Z</time></trkpt><trkpt lat="48.94154593570732" lon="19.31137217379848"><ele>691.8333333333334</ele><time>2026-05-03T12:13:17Z</time></trkpt><trkpt lat="48.94154873179108" lon="19.311262609598582"><ele>690.6666666666666</ele><time>2026-05-03T12:13:18Z</time></trkpt><trkpt lat="48.941548087072924" lon="19.311147846340422"><ele>689.5</ele><time>2026-05-03T12:13:19Z</time></trkpt><trkpt lat="48.941534545620065" lon="19.311050626100297"><ele>688.3333333333333</ele><time>2026-05-03T12:13:20Z</time></trkpt><trkpt lat="48.94151403098678" lon="19.3109566099018"><ele>687.1666666666666</ele><time>2026-05-03T12:13:21Z</time></trkpt><trkpt lat="48.94146984449874" lon="19.310798451468695"><ele>686.0</ele><time>2026-05-03T12:13:23Z</time></trkpt><trkpt lat="48.941372658957455" lon="19.310731418730178"><ele>686.0</ele><time>2026-05-03T12:13:25Z</time></trkpt><trkpt lat="48.9413053532863" lon="19.310753331287668"><ele>686.0</ele><time>2026-05-03T12:13:26Z</time></trkpt><trkpt lat="48.941222072791135" lon="19.310787330302745"><ele>686.0</ele><time>2026-05-03T12:13:27Z</time></trkpt><trkpt lat="48.94113721853665" lon="19.310796118244692"><ele>686.0</ele><time>2026-05-03T12:13:28Z</time></trkpt><trkpt lat="48.94105258253782" lon="19.310807316023332"><ele>686.0</ele><time>2026-05-03T12:13:29Z</time></trkpt><trkpt lat="48.94095959494029" lon="19.310813589968763"><ele>686.0</ele><time>2026-05-03T12:13:30Z</time></trkpt><trkpt lat="48.94086201490461" lon="19.310827784910426"><ele>685.1999999999999</ele><time>2026-05-03T12:13:31Z</time></trkpt><trkpt lat="48.940760295300656" lon="19.310855515231314"><ele>684.4</ele><time>2026-05-03T12:13:32Z</time></trkpt><trkpt lat="48.94064869140886" lon="19.310888684260973"><ele>683.6</ele><time>2026-05-03T12:13:33Z</time></trkpt><trkpt lat="48.940541459108516" lon="19.31090938911572"><ele>682.8</ele><time>2026-05-03T12:13:34Z</time></trkpt><trkpt lat="48.940426231938574" lon="19.310925831710584"><ele>682.0</ele><time>2026-05-03T12:13:35Z</time></trkpt><trkpt lat="48.94031628188329" lon="19.31094318931969"><ele>682.0</ele><time>2026-05-03T12:13:36Z</time></trkpt><trkpt lat="48.9402085277882" lon="19.310959673529393"><ele>682.0</ele><time>2026-05-03T12:13:37Z</time></trkpt><trkpt lat="48.94010085475277" lon="19.310972061365884"><ele>682.0</ele><time>2026-05-03T12:13:38Z</time></trkpt><trkpt lat="48.939995304791864" lon="19.31098554373409"><ele>682.0</ele><time>2026-05-03T12:13:39Z</time></trkpt><trkpt lat="48.939892946148404" lon="19.311001957932817"><ele>682.0</ele><time>2026-05-03T12:13:40Z</time></trkpt><trkpt lat="48.93979996953108" lon="19.311030585623975"><ele>681.8333333333334</ele><time>2026-05-03T12:13:41Z</time></trkpt><trkpt lat="48.939708196582195" lon="19.311061640787102"><ele>681.6666666666667</ele><time>2026-05-03T12:13:42Z</time></trkpt><trkpt lat="48.939625465455585" lon="19.311080601236245"><ele>681.5</ele><time>2026-05-03T12:13:43Z</time></trkpt><trkpt lat="48.9395389614412" lon="19.311096638961"><ele>681.3333333333334</ele><time>2026-05-03T12:13:44Z</time></trkpt><trkpt lat="48.939455698167485" lon="19.31113615632088"><ele>681.1666666666666</ele><time>2026-05-03T12:13:45Z</time></trkpt><trkpt lat="48.9393775062888" lon="19.311200651503324"><ele>681.0</ele><time>2026-05-03T12:13:46Z</time></trkpt><trkpt lat="48.939308549017966" lon="19.311276883677255"><ele>681.0</ele><time>2026-05-03T12:13:47Z</time></trkpt><trkpt lat="48.93923808400931" lon="19.311348958257526"><ele>681.0</ele><time>2026-05-03T12:13:48Z</time></trkpt><trkpt lat="48.93917600020681" lon="19.31140826751538"><ele>681.0</ele><time>2026-05-03T12:13:49Z</time></trkpt><trkpt lat="48.93906463189356" lon="19.31144396239311"><ele>681.0</ele><time>2026-05-03T12:13:51Z</time></trkpt><trkpt lat="48.93900421369973" lon="19.311410639624253"><ele>681.0</ele><time>2026-05-03T12:13:52Z</time></trkpt><trkpt lat="48.93894647882828" lon="19.31133917725927"><ele>681.0</ele><time>2026-05-03T12:13:53Z</time></trkpt><trkpt lat="48.93889948593984" lon="19.31126584428096"><ele>681.4</ele><time>2026-05-03T12:13:54Z</time></trkpt><trkpt lat="48.938850274167294" lon="19.311110183417046"><ele>681.8</ele><time>2026-05-03T12:13:56Z</time></trkpt><trkpt lat="48.93878665455047" lon="19.310954584980124"><ele>682.1999999999999</ele><time>2026-05-03T12:13:58Z</time></trkpt><trkpt lat="48.93868900559417" lon="19.31083521262964"><ele>682.5999999999999</ele><time>2026-05-03T12:14:00Z</time></trkpt><trkpt lat="48.938631857490755" lon="19.31076759582286"><ele>683.0</ele><time>2026-05-03T12:14:01Z</time></trkpt><trkpt lat="48.93858493095933" lon="19.3106797307659"><ele>683.0</ele><time>2026-05-03T12:14:02Z</time></trkpt><trkpt lat="48.93855383525461" lon="19.31059503550066"><ele>683.0</ele><time>2026-05-03T12:14:03Z</time></trkpt><trkpt lat="48.93847464586364" lon="19.310479542730626"><ele>683.0</ele><time>2026-05-03T12:14:05Z</time></trkpt><trkpt lat="48.938402725249986" lon="19.310431127957855"><ele>683.0</ele><time>2026-05-03T12:14:06Z</time></trkpt><trkpt lat="48.93831192424129" lon="19.310425669416336"><ele>683.0</ele><time>2026-05-03T12:14:07Z</time></trkpt><trkpt lat="48.93820688958692" lon="19.310461323690266"><ele>687.75</ele><time>2026-05-03T12:14:08Z</time></trkpt><trkpt lat="48.93808862050894" lon="19.31049701682073"><ele>692.5</ele><time>2026-05-03T12:14:09Z</time></trkpt><trkpt lat="48.9379663365628" lon="19.310497323108308"><ele>697.25</ele><time>2026-05-03T12:14:10Z</time></trkpt><trkpt lat="48.93782066583441" lon="19.310490145247066"><ele>702.0</ele><time>2026-05-03T12:14:11Z</time></trkpt><trkpt lat="48.937667904007355" lon="19.310486331351964"><ele>705.0</ele><time>2026-05-03T12:14:12Z</time></trkpt><trkpt lat="48.937502107244036" lon="19.310475273550978"><ele>708.0</ele><time>2026-05-03T12:14:13Z</time></trkpt><trkpt lat="48.937344522444626" lon="19.31046074422677"><ele>711.0</ele><time>2026-05-03T12:14:14Z</time></trkpt><trkpt lat="48.93719235452552" lon="19.310442164811278"><ele>711.0</ele><time>2026-05-03T12:14:15Z</time></trkpt><trkpt lat="48.9370656297277" lon="19.31041847900308"><ele>711.0</ele><time>2026-05-03T12:14:16Z</time></trkpt><trkpt lat="48.936961395444776" lon="19.310380941476783"><ele>711.0</ele><time>2026-05-03T12:14:17Z</time></trkpt><trkpt lat="48.93686460850826" lon="19.31032771862803"><ele>711.0</ele><time>2026-05-03T12:14:18Z</time></trkpt><trkpt lat="48.93677976009455" lon="19.310269948342086"><ele>711.0</ele><time>2026-05-03T12:14:19Z</time></trkpt><trkpt lat="48.93668295886745" lon="19.310228343195774"><ele>712.5</ele><time>2026-05-03T12:14:20Z</time></trkpt><trkpt lat="48.93656812535856" lon="19.3101855605223"><ele>714.0</ele><time>2026-05-03T12:14:21Z</time></trkpt><trkpt lat="48.936443160019174" lon="19.310146617125152"><ele>715.5</ele><time>2026-05-03T12:14:22Z</time></trkpt><trkpt lat="48.93630806794553" lon="19.310122096583957"><ele>717.0</ele><time>2026-05-03T12:14:23Z</time></trkpt><trkpt lat="48.936171927923574" lon="19.310108050943757"><ele>717.0</ele><time>2026-05-03T12:14:24Z</time></trkpt><trkpt lat="48.93604476100523" lon="19.310089839045197"><ele>717.0</ele><time>2026-05-03T12:14:25Z</time></trkpt><trkpt lat="48.93592866910971" lon="19.31005896907645"><ele>717.0</ele><time>2026-05-03T12:14:26Z</time></trkpt><trkpt lat="48.93580462607808" lon="19.310030966192432"><ele>717.0</ele><time>2026-05-03T12:14:27Z</time></trkpt><trkpt lat="48.935682663679984" lon="19.310008127739334"><ele>719.5</ele><time>2026-05-03T12:14:28Z</time></trkpt><trkpt lat="48.935564658401894" lon="19.309983632704814"><ele>722.0</ele><time>2026-05-03T12:14:29Z</time></trkpt><trkpt lat="48.93544080697171" lon="19.3099664594222"><ele>724.5</ele><time>2026-05-03T12:14:30Z</time></trkpt><trkpt lat="48.93532422083825" lon="19.309946947267537"><ele>727.0</ele><time>2026-05-03T12:14:31Z</time></trkpt><trkpt lat="48.93521463205527" lon="19.30993478703264"><ele>727.0</ele><time>2026-05-03T12:14:32Z</time></trkpt><trkpt lat="48.93509436151087" lon="19.309932662360175"><ele>727.0</ele><time>2026-05-03T12:14:33Z</time></trkpt><trkpt lat="48.93498982897622" lon="19.309943087351503"><ele>727.0</ele><time>2026-05-03T12:14:34Z</time></trkpt><trkpt lat="48.934898107653375" lon="19.30997703247057"><ele>727.0</ele><time>2026-05-03T12:14:35Z</time></trkpt><trkpt lat="48.93481880304794" lon="19.310036744308956"><ele>727.0</ele><time>2026-05-03T12:14:36Z</time></trkpt><trkpt lat="48.93474548270619" lon="19.31010018649484"><ele>729.0</ele><time>2026-05-03T12:14:37Z</time></trkpt><trkpt lat="48.93467280661195" lon="19.3101483941753"><ele>731.0</ele><time>2026-05-03T12:14:38Z</time></trkpt><trkpt lat="48.93454783071366" lon="19.310092845761165"><ele>733.0</ele><time>2026-05-03T12:14:40Z</time></trkpt><trkpt lat="48.93448466808749" lon="19.309993037763135"><ele>735.0</ele><time>2026-05-03T12:14:41Z</time></trkpt><trkpt lat="48.9344405721365" lon="19.309878615616757"><ele>737.0</ele><time>2026-05-03T12:14:42Z</time></trkpt><trkpt lat="48.93441322714521" lon="19.309746113981728"><ele>738.75</ele><time>2026-05-03T12:14:43Z</time></trkpt><trkpt lat="48.93438325528355" lon="19.30959116594085"><ele>740.5</ele><time>2026-05-03T12:14:44Z</time></trkpt><trkpt lat="48.93435976790133" lon="19.309417161283736"><ele>742.25</ele><time>2026-05-03T12:14:45Z</time></trkpt><trkpt lat="48.93433977495575" lon="19.309242513046478"><ele>744.0</ele><time>2026-05-03T12:14:46Z</time></trkpt><trkpt lat="48.934313489118466" lon="19.309028869406614"><ele>745.2</ele><time>2026-05-03T12:14:47Z</time></trkpt><trkpt lat="48.93429135405973" lon="19.308841465386735"><ele>746.4000000000001</ele><time>2026-05-03T12:14:48Z</time></trkpt><trkpt lat="48.934278697597655" lon="19.308727273690774"><ele>747.6</ele><time>2026-05-03T12:14:49Z</time></trkpt><trkpt lat="48.93426670115904" lon="19.30862835263452"><ele>748.8</ele><time>2026-05-03T12:14:50Z</time></trkpt><trkpt lat="48.934218761435446" lon="19.30845000083796"><ele>750.0</ele><time>2026-05-03T12:14:52Z</time></trkpt><trkpt lat="48.93417627486789" lon="19.30836680648318"><ele>752.8</ele><time>2026-05-03T12:14:53Z</time></trkpt><trkpt lat="48.934117157900175" lon="19.30828908235564"><ele>755.6</ele><time>2026-05-03T12:14:54Z</time></trkpt><trkpt lat="48.93404652410799" lon="19.30822552678106"><ele>758.4000000000001</ele><time>2026-05-03T12:14:55Z</time></trkpt><trkpt lat="48.93395022874671" lon="19.308155224139686"><ele>761.2</ele><time>2026-05-03T12:14:56Z</time></trkpt><trkpt lat="48.93383430733595" lon="19.308095942681106"><ele>764.0</ele><time>2026-05-03T12:14:57Z</time></trkpt><trkpt lat="48.93371353718017" lon="19.30804615057011"><ele>764.0</ele><time>2026-05-03T12:14:58Z</time></trkpt><trkpt lat="48.93358363682034" lon="19.30800705087227"><ele>764.0</ele><time>2026-05-03T12:14:59Z</time></trkpt><trkpt lat="48.933449778212825" lon="19.307986511344176"><ele>764.0</ele><time>2026-05-03T12:15:00Z</time></trkpt><trkpt lat="48.93330587300518" lon="19.30796187082809"><ele>764.0</ele><time>2026-05-03T12:15:01Z</time></trkpt><trkpt lat="48.93314306600649" lon="19.307925993246716"><ele>770.0</ele><time>2026-05-03T12:15:02Z</time></trkpt><trkpt lat="48.93298186942763" lon="19.307892136630077"><ele>776.0</ele><time>2026-05-03T12:15:03Z</time></trkpt><trkpt lat="48.93282424592991" lon="19.307854961518267"><ele>782.0</ele><time>2026-05-03T12:15:04Z</time></trkpt><trkpt lat="48.932645174576834" lon="19.307810980562234"><ele>786.25</ele><time>2026-05-03T12:15:05Z</time></trkpt><trkpt lat="48.93247345650892" lon="19.307760620160145"><ele>790.5</ele><time>2026-05-03T12:15:06Z</time></trkpt><trkpt lat="48.93233484083419" lon="19.307715800099544"><ele>794.75</ele><time>2026-05-03T12:15:07Z</time></trkpt><trkpt lat="48.93222017266715" lon="19.30767292016238"><ele>799.0</ele><time>2026-05-03T12:15:08Z</time></trkpt><trkpt lat="48.93211218257852" lon="19.307633256083058"><ele>798.9999999999999</ele><time>2026-05-03T12:15:09Z</time></trkpt><trkpt lat="48.93202302005844" lon="19.3076056669846"><ele>799.0</ele><time>2026-05-03T12:15:10Z</time></trkpt><trkpt lat="48.93195195263106" lon="19.30759566586483"><ele>799.0</ele><time>2026-05-03T12:15:11Z</time></trkpt><trkpt lat="48.93187076594703" lon="19.307597987169046"><ele>799.0</ele><time>2026-05-03T12:15:12Z</time></trkpt><trkpt lat="48.93178681235694" lon="19.30760709873187"><ele>798.9999999999999</ele><time>2026-05-03T12:15:13Z</time></trkpt><trkpt lat="48.93170183272186" lon="19.307631471861374"><ele>799.0</ele><time>2026-05-03T12:15:14Z</time></trkpt><trkpt lat="48.93160965095823" lon="19.307691409893344"><ele>802.8000000000001</ele><time>2026-05-03T12:15:15Z</time></trkpt><trkpt lat="48.93152760999427" lon="19.307771213639867"><ele>806.6</ele><time>2026-05-03T12:15:16Z</time></trkpt><trkpt lat="48.931445677348215" lon="19.307850939570766"><ele>810.4</ele><time>2026-05-03T12:15:17Z</time></trkpt><trkpt lat="48.931362435848435" lon="19.30792365049474"><ele>814.2</ele><time>2026-05-03T12:15:18Z</time></trkpt><trkpt lat="48.93127158776478" lon="19.307990086377963"><ele>818.0</ele><time>2026-05-03T12:15:19Z</time></trkpt><trkpt lat="48.93117661696129" lon="19.308042078745522"><ele>819.0</ele><time>2026-05-03T12:15:20Z</time></trkpt><trkpt lat="48.93107889340119" lon="19.30809463481556"><ele>820.0</ele><time>2026-05-03T12:15:21Z</time></trkpt><trkpt lat="48.930982567036715" lon="19.308148967187453"><ele>821.0</ele><time>2026-05-03T12:15:22Z</time></trkpt><trkpt lat="48.93087263076745" lon="19.308205953829866"><ele>822.0</ele><time>2026-05-03T12:15:23Z</time></trkpt><trkpt lat="48.93075826283097" lon="19.30825698983677"><ele>823.0</ele><time>2026-05-03T12:15:24Z</time></trkpt><trkpt lat="48.9306634209609" lon="19.30829539457189"><ele>827.3333333333333</ele><time>2026-05-03T12:15:25Z</time></trkpt><trkpt lat="48.93059951068924" lon="19.30831944028078"><ele>831.6666666666666</ele><time>2026-05-03T12:15:26Z</time></trkpt><trkpt lat="48.93055972761965" lon="19.308448761314004"><ele>836.0</ele><time>2026-05-03T12:15:29Z</time></trkpt><trkpt lat="48.930604872531745" lon="19.308536639639758"><ele>840.3333333333333</ele><time>2026-05-03T12:15:31Z</time></trkpt><trkpt lat="48.930677129084884" lon="19.308551733462163"><ele>844.6666666666666</ele><time>2026-05-03T12:15:33Z</time></trkpt><trkpt lat="48.9307549788953" lon="19.308568577517335"><ele>849.0</ele><time>2026-05-03T12:15:36Z</time></trkpt><trkpt lat="48.93081029472194" lon="19.308640627646504"><ele>849.0000000000001</ele><time>2026-05-03T12:15:39Z</time></trkpt><trkpt lat="48.930848530783784" lon="19.308718012622556"><ele>849.0</ele><time>2026-05-03T12:15:44Z</time></trkpt><trkpt lat="48.93088807352677" lon="19.30879595692513"><ele>849.0</ele><time>2026-05-03T12:19:51Z</time></trkpt><trkpt lat="48.930954040279595" lon="19.308837878267727"><ele>849.0</ele><time>2026-05-03T12:19:57Z</time></trkpt><trkpt lat="48.931018413134765" lon="19.308863742096978"><ele>849.0</ele><time>2026-05-03T12:20:02Z</time></trkpt><trkpt lat="48.93108132232961" lon="19.308921474095197"><ele>849.0000000000001</ele><time>2026-05-03T12:20:08Z</time></trkpt><trkpt lat="48.93112504772619" lon="19.30899179203701"><ele>849.0</ele><time>2026-05-03T12:20:13Z</time></trkpt><trkpt lat="48.931166004939136" lon="19.309078038434482"><ele>844.8571428571429</ele><time>2026-05-03T12:20:18Z</time></trkpt><trkpt lat="48.93120309341808" lon="19.309169849410605"><ele>840.7142857142858</ele><time>2026-05-03T12:20:25Z</time></trkpt><trkpt lat="48.93123713068681" lon="19.309254761958226"><ele>836.5714285714287</ele><time>2026-05-03T12:20:31Z</time></trkpt><trkpt lat="48.931277448779156" lon="19.30935025028668"><ele>832.4285714285714</ele><time>2026-05-03T12:20:36Z</time></trkpt><trkpt lat="48.93132015237994" lon="19.309442557306355"><ele>828.2857142857142</ele><time>2026-05-03T12:20:41Z</time></trkpt><trkpt lat="48.93136046021233" lon="19.309516620119155"><ele>824.1428571428572</ele><time>2026-05-03T12:20:43Z</time></trkpt><trkpt lat="48.931427866943295" lon="19.30956722143017"><ele>820.0</ele><time>2026-05-03T12:20:48Z</time></trkpt><trkpt lat="48.93148361992928" lon="19.309640906759483"><ele>820.0</ele><time>2026-05-03T12:20:52Z</time></trkpt><trkpt lat="48.931560482401835" lon="19.309713489666326"><ele>820.0</ele><time>2026-05-03T12:20:56Z</time></trkpt><trkpt lat="48.931621789506025" lon="19.30977028176771"><ele>820.0</ele><time>2026-05-03T12:20:59Z</time></trkpt><trkpt lat="48.931669191707975" lon="19.30983917013792"><ele>820.0</ele><time>2026-05-03T12:21:02Z</time></trkpt><trkpt lat="48.93172745522701" lon="19.309902601999966"><ele>820.0</ele><time>2026-05-03T12:21:05Z</time></trkpt><trkpt lat="48.931800819513754" lon="19.309942758211765"><ele>820.0</ele><time>2026-05-03T12:21:09Z</time></trkpt><trkpt lat="48.931862516259635" lon="19.309989307293336"><ele>820.0</ele><time>2026-05-03T12:21:14Z</time></trkpt><trkpt lat="48.93193078417424" lon="19.31001784210492"><ele>815.4999999999999</ele><time>2026-05-03T12:21:18Z</time></trkpt><trkpt lat="48.932015389349004" lon="19.31004266228573"><ele>811.0</ele><time>2026-05-03T12:21:21Z</time></trkpt><trkpt lat="48.932096610848916" lon="19.310099286809045"><ele>806.5</ele><time>2026-05-03T12:21:24Z</time></trkpt><trkpt lat="48.93214150314324" lon="19.310207043580018"><ele>802.0</ele><time>2026-05-03T12:21:29Z</time></trkpt><trkpt lat="48.932211546266664" lon="19.310212624568315"><ele>797.4999999999999</ele><time>2026-05-03T12:21:31Z</time></trkpt><trkpt lat="48.93225573360388" lon="19.310096610526113"><ele>793.0</ele><time>2026-05-03T12:21:34Z</time></trkpt><trkpt lat="48.9321832193832" lon="19.310000376130887"><ele>792.9999999999999</ele><time>2026-05-03T12:21:37Z</time></trkpt><trkpt lat="48.932097509639064" lon="19.30993730125"><ele>793.0</ele><time>2026-05-03T12:21:39Z</time></trkpt><trkpt lat="48.93201573514937" lon="19.30988483922318"><ele>793.0</ele><time>2026-05-03T12:21:41Z</time></trkpt><trkpt lat="48.93194720678522" lon="19.309846958603885"><ele>793.0</ele><time>2026-05-03T12:21:42Z</time></trkpt><trkpt lat="48.931878217734344" lon="19.309807506546136"><ele>792.9999999999999</ele><time>2026-05-03T12:21:43Z</time></trkpt><trkpt lat="48.93178915977881" lon="19.309751224681143"><ele>793.0</ele><time>2026-05-03T12:21:44Z</time></trkpt><trkpt lat="48.93169861267297" lon="19.30969527143016"><ele>796.8571428571429</ele><time>2026-05-03T12:21:45Z</time></trkpt><trkpt lat="48.93162892329285" lon="19.309634748342916"><ele>800.7142857142858</ele><time>2026-05-03T12:21:46Z</time></trkpt><trkpt lat="48.93154489821737" lon="19.309617372844656"><ele>804.5714285714287</ele><time>2026-05-03T12:21:47Z</time></trkpt><trkpt lat="48.93146984497378" lon="19.309578001386235"><ele>808.4285714285714</ele><time>2026-05-03T12:21:48Z</time></trkpt><trkpt lat="48.93140430381159" lon="19.30956408526747"><ele>812.2857142857142</ele><time>2026-05-03T12:21:49Z</time></trkpt><trkpt lat="48.93133758033482" lon="19.309528743074303"><ele>816.1428571428572</ele><time>2026-05-03T12:21:50Z</time></trkpt><trkpt lat="48.93127396795391" lon="19.309496310539068"><ele>820.0</ele><time>2026-05-03T12:21:51Z</time></trkpt><trkpt lat="48.93120476966038" lon="19.30945299634376"><ele>819.9999999999999</ele><time>2026-05-03T12:21:52Z</time></trkpt><trkpt lat="48.93112583600726" lon="19.309407534455566"><ele>820.0</ele><time>2026-05-03T12:21:53Z</time></trkpt><trkpt lat="48.93104893115808" lon="19.30936770820177"><ele>820.0</ele><time>2026-05-03T12:21:54Z</time></trkpt><trkpt lat="48.93097214183961" lon="19.30932647497252"><ele>820.0</ele><time>2026-05-03T12:21:55Z</time></trkpt><trkpt lat="48.93089206459416" lon="19.309303049644242"><ele>819.9999999999999</ele><time>2026-05-03T12:21:56Z</time></trkpt><trkpt lat="48.93081505183664" lon="19.309286065748395"><ele>820.0</ele><time>2026-05-03T12:21:57Z</time></trkpt><trkpt lat="48.930714595496156" lon="19.309187201646964"><ele>824.4999999999999</ele><time>2026-05-03T12:21:59Z</time></trkpt><trkpt lat="48.93067170405004" lon="19.30909699886113"><ele>829.0</ele><time>2026-05-03T12:22:00Z</time></trkpt><trkpt lat="48.93064226819196" lon="19.30891205695168"><ele>833.5</ele><time>2026-05-03T12:22:02Z</time></trkpt><trkpt lat="48.93065501781223" lon="19.308775314240766"><ele>838.0</ele><time>2026-05-03T12:22:04Z</time></trkpt><trkpt lat="48.93070911438741" lon="19.30871036903597"><ele>842.4999999999999</ele><time>2026-05-03T12:22:06Z</time></trkpt><trkpt lat="48.930769735802706" lon="19.308659365282516"><ele>847.0</ele><time>2026-05-03T12:22:08Z</time></trkpt><trkpt lat="48.93083192022032" lon="19.308586253506867"><ele>843.5714285714286</ele><time>2026-05-03T12:22:12Z</time></trkpt><trkpt lat="48.93090531784802" lon="19.308529882522006"><ele>840.1428571428571</ele><time>2026-05-03T12:22:14Z</time></trkpt><trkpt lat="48.93097327827097" lon="19.30851548790345"><ele>836.7142857142858</ele><time>2026-05-03T12:22:16Z</time></trkpt><trkpt lat="48.931041199689034" lon="19.308537607233838"><ele>833.2857142857142</ele><time>2026-05-03T12:22:19Z</time></trkpt><trkpt lat="48.931123156078655" lon="19.308542559055685"><ele>829.8571428571429</ele><time>2026-05-03T12:22:22Z</time></trkpt><trkpt lat="48.93113027759525" lon="19.30844182993881"><ele>826.4285714285714</ele><time>2026-05-03T12:23:15Z</time></trkpt><trkpt lat="48.931144563020865" lon="19.308321979585923"><ele>823.0</ele><time>2026-05-03T12:23:18Z</time></trkpt><trkpt lat="48.93117410004158" lon="19.308172283791546"><ele>822.0</ele><time>2026-05-03T12:23:20Z</time></trkpt><trkpt lat="48.93118253293745" lon="19.308068765525032"><ele>821.0</ele><time>2026-05-03T12:23:21Z</time></trkpt><trkpt lat="48.9312065576642" lon="19.30788457449725"><ele>820.0</ele><time>2026-05-03T12:23:23Z</time></trkpt><trkpt lat="48.931233968331654" lon="19.307794008466193"><ele>819.0</ele><time>2026-05-03T12:23:24Z</time></trkpt><trkpt lat="48.93130432229015" lon="19.30766648318668"><ele>818.0</ele><time>2026-05-03T12:23:26Z</time></trkpt><trkpt lat="48.931369537291076" lon="19.307573980211696"><ele>818.0</ele><time>2026-05-03T12:23:28Z</time></trkpt><trkpt lat="48.931439319789675" lon="19.30747753711026"><ele>818.0</ele><time>2026-05-03T12:23:30Z</time></trkpt><trkpt lat="48.93151774326922" lon="19.307331845583118"><ele>818.0</ele><time>2026-05-03T12:23:32Z</time></trkpt><trkpt lat="48.93160616599908" lon="19.307212773360806"><ele>818.0</ele><time>2026-05-03T12:23:34Z</time></trkpt><trkpt lat="48.931664925162835" lon="19.307058907441796"><ele>816.5000000000001</ele><time>2026-05-03T12:23:36Z</time></trkpt><trkpt lat="48.93171139569464" lon="19.306875998036457"><ele>815.0</ele><time>2026-05-03T12:23:38Z</time></trkpt><trkpt lat="48.931762255717025" lon="19.306789319047564"><ele>813.5</ele><time>2026-05-03T12:23:39Z</time></trkpt><trkpt lat="48.93181121216821" lon="19.306708284545767"><ele>812.0</ele><time>2026-05-03T12:23:40Z</time></trkpt><trkpt lat="48.93185129528521" lon="19.306620998473825"><ele>810.5000000000001</ele><time>2026-05-03T12:23:41Z</time></trkpt><trkpt lat="48.931887060667776" lon="19.306537650922035"><ele>809.0</ele><time>2026-05-03T12:23:42Z</time></trkpt><trkpt lat="48.93195512733224" lon="19.30639812319129"><ele>805.6666666666667</ele><time>2026-05-03T12:23:44Z</time></trkpt><trkpt lat="48.93199319527205" lon="19.306310073975528"><ele>802.3333333333334</ele><time>2026-05-03T12:23:45Z</time></trkpt><trkpt lat="48.932028334182704" lon="19.306221329970114"><ele>799.0</ele><time>2026-05-03T12:23:46Z</time></trkpt><trkpt lat="48.93207226327253" lon="19.30606268453987"><ele>795.6666666666667</ele><time>2026-05-03T12:23:48Z</time></trkpt><trkpt lat="48.93209330871004" lon="19.30597193693669"><ele>792.3333333333334</ele><time>2026-05-03T12:23:49Z</time></trkpt><trkpt lat="48.932118523084924" lon="19.305807238346226"><ele>789.0</ele><time>2026-05-03T12:23:51Z</time></trkpt><trkpt lat="48.9321264199121" lon="19.305669590946664"><ele>787.4000000000001</ele><time>2026-05-03T12:23:53Z</time></trkpt><trkpt lat="48.93209960214953" lon="19.305539036513544"><ele>785.8</ele><time>2026-05-03T12:23:56Z</time></trkpt><trkpt lat="48.93204937487224" lon="19.305422241750172"><ele>784.2</ele><time>2026-05-03T12:23:59Z</time></trkpt><trkpt lat="48.931977515826006" lon="19.305356460335023"><ele>782.5999999999999</ele><time>2026-05-03T12:24:02Z</time></trkpt><trkpt lat="48.93189737000337" lon="19.30533059131331"><ele>781.0</ele><time>2026-05-03T12:24:05Z</time></trkpt><trkpt lat="48.93179613270249" lon="19.305294766696036"><ele>783.5999999999999</ele><time>2026-05-03T12:24:06Z</time></trkpt><trkpt lat="48.93166282336073" lon="19.30525821691564"><ele>786.2</ele><time>2026-05-03T12:24:07Z</time></trkpt><trkpt lat="48.93160017376013" lon="19.305158950517896"><ele>788.8</ele><time>2026-05-03T12:24:08Z</time></trkpt><trkpt lat="48.93154356987309" lon="19.305103126063052"><ele>791.4000000000001</ele><time>2026-05-03T12:24:09Z</time></trkpt><trkpt lat="48.93144294703239" lon="19.304996602290437"><ele>794.0</ele><time>2026-05-03T12:24:11Z</time></trkpt><trkpt lat="48.93137160427734" lon="19.30489408683124"><ele>794.0000000000001</ele><time>2026-05-03T12:24:12Z</time></trkpt><trkpt lat="48.93133351920004" lon="19.304805998039093"><ele>794.0</ele><time>2026-05-03T12:24:13Z</time></trkpt><trkpt lat="48.93129450928049" lon="19.304709133342662"><ele>794.0</ele><time>2026-05-03T12:24:14Z</time></trkpt><trkpt lat="48.931237670410916" lon="19.304593363580217"><ele>794.0</ele><time>2026-05-03T12:24:15Z</time></trkpt><trkpt lat="48.93119222126249" lon="19.30446740345872"><ele>794.0000000000001</ele><time>2026-05-03T12:24:16Z</time></trkpt><trkpt lat="48.93115080945759" lon="19.304373805890304"><ele>794.0</ele><time>2026-05-03T12:24:17Z</time></trkpt><trkpt lat="48.931120018080215" lon="19.30425232766716"><ele>792.3333333333334</ele><time>2026-05-03T12:24:18Z</time></trkpt><trkpt lat="48.93107677067944" lon="19.304148765975008"><ele>790.6666666666667</ele><time>2026-05-03T12:24:19Z</time></trkpt><trkpt lat="48.9310209336617" lon="19.304026659233976"><ele>789.0</ele><time>2026-05-03T12:24:20Z</time></trkpt><trkpt lat="48.93098740170146" lon="19.303903198733252"><ele>787.3333333333333</ele><time>2026-05-03T12:24:21Z</time></trkpt><trkpt lat="48.93094851155886" lon="19.303783422791867"><ele>785.6666666666666</ele><time>2026-05-03T12:24:22Z</time></trkpt><trkpt lat="48.930920559539764" lon="19.30366956145327"><ele>784.0</ele><time>2026-05-03T12:24:23Z</time></trkpt><trkpt lat="48.930894759959244" lon="19.303541900183834"><ele>788.8000000000001</ele><time>2026-05-03T12:24:24Z</time></trkpt><trkpt lat="48.93085138779919" lon="19.30341787057629"><ele>793.6</ele><time>2026-05-03T12:24:25Z</time></trkpt><trkpt lat="48.93078229894445" lon="19.30329345041108"><ele>798.4</ele><time>2026-05-03T12:24:26Z</time></trkpt><trkpt lat="48.93075980986555" lon="19.3031300878032"><ele>803.2</ele><time>2026-05-03T12:24:27Z</time></trkpt><trkpt lat="48.93072231208873" lon="19.302985292268154"><ele>808.0</ele><time>2026-05-03T12:24:28Z</time></trkpt><trkpt lat="48.93067859215542" lon="19.302860081506637"><ele>808.0</ele><time>2026-05-03T12:24:29Z</time></trkpt><trkpt lat="48.93064747853459" lon="19.30273746458508"><ele>808.0</ele><time>2026-05-03T12:24:30Z</time></trkpt><trkpt lat="48.930611146169554" lon="19.302596024735347"><ele>808.0</ele><time>2026-05-03T12:24:31Z</time></trkpt><trkpt lat="48.93055383840603" lon="19.302471123514035"><ele>808.0</ele><time>2026-05-03T12:24:32Z</time></trkpt><trkpt lat="48.930498685485965" lon="19.302368733267496"><ele>808.0</ele><time>2026-05-03T12:24:33Z</time></trkpt><trkpt lat="48.9304416377071" lon="19.3022628085235"><ele>807.0</ele><time>2026-05-03T12:24:34Z</time></trkpt><trkpt lat="48.93038121174435" lon="19.30216371344929"><ele>806.0</ele><time>2026-05-03T12:24:35Z</time></trkpt><trkpt lat="48.93033200428796" lon="19.302056809672614"><ele>805.0</ele><time>2026-05-03T12:24:36Z</time></trkpt><trkpt lat="48.93028166025567" lon="19.301938566598"><ele>804.0</ele><time>2026-05-03T12:24:37Z</time></trkpt><trkpt lat="48.930241677555806" lon="19.30182001581113"><ele>803.0</ele><time>2026-05-03T12:24:38Z</time></trkpt><trkpt lat="48.93017747002972" lon="19.30170178805944"><ele>803.0000000000001</ele><time>2026-05-03T12:24:39Z</time></trkpt><trkpt lat="48.93010563215476" lon="19.301583467290843"><ele>803.0</ele><time>2026-05-03T12:24:40Z</time></trkpt><trkpt lat="48.930043652848795" lon="19.301491828997452"><ele>803.0</ele><time>2026-05-03T12:24:41Z</time></trkpt><trkpt lat="48.929988732334195" lon="19.30142464627835"><ele>803.0</ele><time>2026-05-03T12:24:42Z</time></trkpt><trkpt lat="48.9299206615902" lon="19.30135930340124"><ele>803.0000000000001</ele><time>2026-05-03T12:24:43Z</time></trkpt><trkpt lat="48.92983339397439" lon="19.3012845655729"><ele>803.0</ele><time>2026-05-03T12:24:44Z</time></trkpt><trkpt lat="48.92977205419198" lon="19.30126055886306"><ele>806.3333333333334</ele><time>2026-05-03T12:24:45Z</time></trkpt><trkpt lat="48.929699661510696" lon="19.301217945344842"><ele>809.6666666666667</ele><time>2026-05-03T12:24:46Z</time></trkpt><trkpt lat="48.9296206178319" lon="19.301178027304587"><ele>813.0</ele><time>2026-05-03T12:24:47Z</time></trkpt><trkpt lat="48.92953410338672" lon="19.301108060632025"><ele>816.3333333333333</ele><time>2026-05-03T12:24:48Z</time></trkpt><trkpt lat="48.929447883245906" lon="19.301029815584396"><ele>819.6666666666666</ele><time>2026-05-03T12:24:49Z</time></trkpt><trkpt lat="48.929373523861706" lon="19.300960680272894"><ele>823.0</ele><time>2026-05-03T12:24:50Z</time></trkpt><trkpt lat="48.92929580636847" lon="19.30090457050403"><ele>825.9999999999999</ele><time>2026-05-03T12:24:51Z</time></trkpt><trkpt lat="48.92921245467966" lon="19.30085367298667"><ele>829.0</ele><time>2026-05-03T12:24:52Z</time></trkpt><trkpt lat="48.929130836687314" lon="19.30080002065829"><ele>832.0</ele><time>2026-05-03T12:24:53Z</time></trkpt><trkpt lat="48.929053580823805" lon="19.300748422652358"><ele>835.0</ele><time>2026-05-03T12:24:54Z</time></trkpt><trkpt lat="48.92898408854201" lon="19.300720552124368"><ele>837.9999999999999</ele><time>2026-05-03T12:24:55Z</time></trkpt><trkpt lat="48.92891862196426" lon="19.300723816473095"><ele>841.0</ele><time>2026-05-03T12:24:56Z</time></trkpt><trkpt lat="48.92883916593408" lon="19.30072223514465"><ele>841.0</ele><time>2026-05-03T12:24:57Z</time></trkpt><trkpt lat="48.92874960868169" lon="19.300692946570997"><ele>841.0</ele><time>2026-05-03T12:24:58Z</time></trkpt><trkpt lat="48.92864631630957" lon="19.30066452997357"><ele>841.0</ele><time>2026-05-03T12:24:59Z</time></trkpt><trkpt lat="48.92855037262032" lon="19.30063618944736"><ele>841.0</ele><time>2026-05-03T12:25:00Z</time></trkpt><trkpt lat="48.928447955794276" lon="19.300592181537017"><ele>841.0</ele><time>2026-05-03T12:25:01Z</time></trkpt><trkpt lat="48.92836802297903" lon="19.30055806255857"><ele>841.1666666666666</ele><time>2026-05-03T12:25:02Z</time></trkpt><trkpt lat="48.92831026279921" lon="19.300518416707416"><ele>841.3333333333333</ele><time>2026-05-03T12:25:03Z</time></trkpt><trkpt lat="48.92825451378231" lon="19.30046946404553"><ele>841.5</ele><time>2026-05-03T12:25:04Z</time></trkpt><trkpt lat="48.92818136992744" lon="19.300414589628303"><ele>841.6666666666667</ele><time>2026-05-03T12:25:05Z</time></trkpt><trkpt lat="48.9280948604983" lon="19.30036132232376"><ele>841.8333333333334</ele><time>2026-05-03T12:25:06Z</time></trkpt><trkpt lat="48.92802482586023" lon="19.300331243725807"><ele>842.0</ele><time>2026-05-03T12:25:07Z</time></trkpt><trkpt lat="48.92793432368933" lon="19.300305689137954"><ele>842.0000000000001</ele><time>2026-05-03T12:25:08Z</time></trkpt><trkpt lat="48.92784755289738" lon="19.30027553359695"><ele>842.0</ele><time>2026-05-03T12:25:09Z</time></trkpt><trkpt lat="48.92777093466187" lon="19.300260974443376"><ele>842.0</ele><time>2026-05-03T12:25:10Z</time></trkpt><trkpt lat="48.92768853432635" lon="19.300230780202412"><ele>842.0</ele><time>2026-05-03T12:25:11Z</time></trkpt><trkpt lat="48.927623186993" lon="19.300185420388512"><ele>842.0000000000001</ele><time>2026-05-03T12:25:12Z</time></trkpt><trkpt lat="48.92756384002413" lon="19.30013560308341"><ele>842.0</ele><time>2026-05-03T12:25:13Z</time></trkpt><trkpt lat="48.92749244645442" lon="19.300093590891496"><ele>844.4000000000001</ele><time>2026-05-03T12:25:14Z</time></trkpt><trkpt lat="48.92743457657662" lon="19.300055567785545"><ele>846.8000000000001</ele><time>2026-05-03T12:25:15Z</time></trkpt><trkpt lat="48.92735307325359" lon="19.29991915041365"><ele>849.2</ele><time>2026-05-03T12:25:17Z</time></trkpt><trkpt lat="48.92731182517609" lon="19.299823439996654"><ele>851.6</ele><time>2026-05-03T12:25:18Z</time></trkpt><trkpt lat="48.92726785330592" lon="19.29970483513918"><ele>854.0</ele><time>2026-05-03T12:25:19Z</time></trkpt><trkpt lat="48.92723014084602" lon="19.29955734129197"><ele>854.0000000000001</ele><time>2026-05-03T12:25:20Z</time></trkpt><trkpt lat="48.92719498546748" lon="19.299410659494704"><ele>854.0</ele><time>2026-05-03T12:25:21Z</time></trkpt><trkpt lat="48.92715462730155" lon="19.299304642602607"><ele>854.0</ele><time>2026-05-03T12:25:22Z</time></trkpt><trkpt lat="48.92712231615807" lon="19.29921630059497"><ele>854.0</ele><time>2026-05-03T12:25:23Z</time></trkpt><trkpt lat="48.92708748864572" lon="19.29913545086866"><ele>854.0000000000001</ele><time>2026-05-03T12:25:24Z</time></trkpt><trkpt lat="48.92702206029126" lon="19.298964950614383"><ele>854.0</ele><time>2026-05-03T12:25:26Z</time></trkpt><trkpt lat="48.92700198552087" lon="19.298858979059084"><ele>855.0000000000001</ele><time>2026-05-03T12:25:27Z</time></trkpt><trkpt lat="48.92697442401849" lon="19.298734346716206"><ele>856.0</ele><time>2026-05-03T12:25:28Z</time></trkpt><trkpt lat="48.92695785011951" lon="19.298601204697903"><ele>857.0</ele><time>2026-05-03T12:25:29Z</time></trkpt><trkpt lat="48.92693716369773" lon="19.298487826529254"><ele>858.0</ele><time>2026-05-03T12:25:30Z</time></trkpt><trkpt lat="48.926907854566" lon="19.298373803603106"><ele>859.0000000000001</ele><time>2026-05-03T12:25:31Z</time></trkpt><trkpt lat="48.926880807840895" lon="19.29826671047417"><ele>860.0</ele><time>2026-05-03T12:25:32Z</time></trkpt><trkpt lat="48.92686696656043" lon="19.298158869651804"><ele>860.5</ele><time>2026-05-03T12:25:33Z</time></trkpt><trkpt lat="48.92683480459714" lon="19.298012868718565"><ele>861.0</ele><time>2026-05-03T12:25:35Z</time></trkpt><trkpt lat="48.92674098193552" lon="19.297936869514665"><ele>861.5</ele><time>2026-05-03T12:25:37Z</time></trkpt><trkpt lat="48.92663527178672" lon="19.297842782681258"><ele>862.0</ele><time>2026-05-03T12:25:39Z</time></trkpt><trkpt lat="48.92653667997094" lon="19.29772120255413"><ele>863.1666666666666</ele><time>2026-05-03T12:25:41Z</time></trkpt><trkpt lat="48.92648614994578" lon="19.297653739809896"><ele>864.3333333333333</ele><time>2026-05-03T12:25:42Z</time></trkpt><trkpt lat="48.9264249867608" lon="19.297598229198236"><ele>865.5</ele><time>2026-05-03T12:25:43Z</time></trkpt><trkpt lat="48.926368239661244" lon="19.297547011594233"><ele>866.6666666666667</ele><time>2026-05-03T12:25:44Z</time></trkpt><trkpt lat="48.92629794721471" lon="19.297429249417245"><ele>867.8333333333334</ele><time>2026-05-03T12:25:46Z</time></trkpt><trkpt lat="48.926244928620996" lon="19.297322692044474"><ele>869.0</ele><time>2026-05-03T12:25:48Z</time></trkpt><trkpt lat="48.926204172372785" lon="19.297223890900298"><ele>866.1666666666667</ele><time>2026-05-03T12:25:50Z</time></trkpt><trkpt lat="48.926170571949825" lon="19.297111563074687"><ele>863.3333333333334</ele><time>2026-05-03T12:25:52Z</time></trkpt><trkpt lat="48.9261306566732" lon="19.297004072463857"><ele>860.5</ele><time>2026-05-03T12:25:54Z</time></trkpt><trkpt lat="48.92609663860346" lon="19.296918395480812"><ele>857.6666666666667</ele><time>2026-05-03T12:25:56Z</time></trkpt><trkpt lat="48.92606338530107" lon="19.296823398858198"><ele>854.8333333333334</ele><time>2026-05-03T12:25:58Z</time></trkpt><trkpt lat="48.926027393100945" lon="19.296699208976985"><ele>852.0</ele><time>2026-05-03T12:26:01Z</time></trkpt><trkpt lat="48.92598072017372" lon="19.2965825009591"><ele>851.9999999999999</ele><time>2026-05-03T12:26:05Z</time></trkpt><trkpt lat="48.92595175840955" lon="19.296480104891543"><ele>852.0</ele><time>2026-05-03T12:26:07Z</time></trkpt><trkpt lat="48.92593337829661" lon="19.296379668299064"><ele>852.0</ele><time>2026-05-03T12:26:09Z</time></trkpt><trkpt lat="48.92589108614862" lon="19.29627373235265"><ele>852.0</ele><time>2026-05-03T12:26:12Z</time></trkpt><trkpt lat="48.925887747286986" lon="19.29616736710326"><ele>852.0</ele><time>2026-05-03T12:26:16Z</time></trkpt><trkpt lat="48.92588640032848" lon="19.296047212518406"><ele>851.9999999999999</ele><time>2026-05-03T12:26:19Z</time></trkpt><trkpt lat="48.92588578805832" lon="19.29594974374411"><ele>852.0</ele><time>2026-05-03T12:26:21Z</time></trkpt><trkpt lat="48.925912479635194" lon="19.29586013179232"><ele>849.3333333333334</ele><time>2026-05-03T12:26:25Z</time></trkpt><trkpt lat="48.92590481354435" lon="19.29573877272569"><ele>846.6666666666667</ele><time>2026-05-03T12:26:27Z</time></trkpt><trkpt lat="48.92591008898805" lon="19.295611723260862"><ele>844.0</ele><time>2026-05-03T12:26:29Z</time></trkpt><trkpt lat="48.92591213188054" lon="19.295450725962123"><ele>841.3333333333334</ele><time>2026-05-03T12:26:33Z</time></trkpt><trkpt lat="48.925887733168146" lon="19.295358749974007"><ele>838.6666666666667</ele><time>2026-05-03T12:26:35Z</time></trkpt><trkpt lat="48.925882613716766" lon="19.295219506546935"><ele>836.0</ele><time>2026-05-03T12:26:39Z</time></trkpt><trkpt lat="48.92588793336788" lon="19.295117054270072"><ele>834.3333333333334</ele><time>2026-05-03T12:26:42Z</time></trkpt><trkpt lat="48.9258958120005" lon="19.29498538344598"><ele>832.6666666666667</ele><time>2026-05-03T12:26:45Z</time></trkpt><trkpt lat="48.9259025347723" lon="19.294834780137798"><ele>831.0</ele><time>2026-05-03T12:26:47Z</time></trkpt><trkpt lat="48.925899309378465" lon="19.2947244522785"><ele>829.3333333333333</ele><time>2026-05-03T12:26:49Z</time></trkpt><trkpt lat="48.92589235888046" lon="19.294618294071377"><ele>827.6666666666666</ele><time>2026-05-03T12:26:51Z</time></trkpt><trkpt lat="48.92590488487929" lon="19.29449619872004"><ele>826.0</ele><time>2026-05-03T12:26:53Z</time></trkpt><trkpt lat="48.92590416563621" lon="19.29434071202992"><ele>822.8333333333333</ele><time>2026-05-03T12:26:55Z</time></trkpt><trkpt lat="48.92592003839084" lon="19.294220390349512"><ele>819.6666666666666</ele><time>2026-05-03T12:26:57Z</time></trkpt><trkpt lat="48.925958768490396" lon="19.294117438246836"><ele>816.5</ele><time>2026-05-03T12:26:59Z</time></trkpt><trkpt lat="48.925981787589016" lon="19.294023310913698"><ele>813.3333333333333</ele><time>2026-05-03T12:27:01Z</time></trkpt><trkpt lat="48.92600545189636" lon="19.293887068132435"><ele>810.1666666666666</ele><time>2026-05-03T12:27:03Z</time></trkpt><trkpt lat="48.92605145469403" lon="19.293773058209336"><ele>807.0</ele><time>2026-05-03T12:27:05Z</time></trkpt><trkpt lat="48.92614578782723" lon="19.29368340138819"><ele>801.8</ele><time>2026-05-03T12:27:07Z</time></trkpt><trkpt lat="48.92622375391171" lon="19.293614804456467"><ele>796.6</ele><time>2026-05-03T12:27:10Z</time></trkpt><trkpt lat="48.926314444978004" lon="19.293572973278405"><ele>791.4</ele><time>2026-05-03T12:27:12Z</time></trkpt><trkpt lat="48.92640221666879" lon="19.29351881625337"><ele>786.1999999999999</ele><time>2026-05-03T12:27:14Z</time></trkpt><trkpt lat="48.92649994206219" lon="19.293492747125583"><ele>781.0</ele><time>2026-05-03T12:27:16Z</time></trkpt><trkpt lat="48.92658904706657" lon="19.2934438555244"><ele>781.0</ele><time>2026-05-03T12:27:18Z</time></trkpt><trkpt lat="48.9267066275013" lon="19.293373020458276"><ele>781.0</ele><time>2026-05-03T12:27:20Z</time></trkpt><trkpt lat="48.92681451293974" lon="19.293302494655673"><ele>781.0</ele><time>2026-05-03T12:27:22Z</time></trkpt><trkpt lat="48.92691067163463" lon="19.29323872450557"><ele>781.0</ele><time>2026-05-03T12:27:24Z</time></trkpt><trkpt lat="48.92701692533067" lon="19.293151482960205"><ele>778.9999999999999</ele><time>2026-05-03T12:27:26Z</time></trkpt><trkpt lat="48.927115995693676" lon="19.29306438881888"><ele>777.0</ele><time>2026-05-03T12:27:28Z</time></trkpt><trkpt lat="48.92721915254327" lon="19.292979408304642"><ele>775.0</ele><time>2026-05-03T12:27:30Z</time></trkpt><trkpt lat="48.92727199832558" lon="19.29292128575448"><ele>773.0</ele><time>2026-05-03T12:27:31Z</time></trkpt><trkpt lat="48.927326811363265" lon="19.292860489995906"><ele>770.9999999999999</ele><time>2026-05-03T12:27:32Z</time></trkpt><trkpt lat="48.927384211131624" lon="19.29280046712842"><ele>769.0</ele><time>2026-05-03T12:27:33Z</time></trkpt><trkpt lat="48.92743876314343" lon="19.292731358685234"><ele>769.0</ele><time>2026-05-03T12:27:34Z</time></trkpt><trkpt lat="48.92748475812486" lon="19.292662929415023"><ele>769.0</ele><time>2026-05-03T12:27:35Z</time></trkpt><trkpt lat="48.927577332690035" lon="19.292521164063622"><ele>769.0</ele><time>2026-05-03T12:27:37Z</time></trkpt><trkpt lat="48.92762540475484" lon="19.292449605193436"><ele>769.0</ele><time>2026-05-03T12:27:38Z</time></trkpt><trkpt lat="48.92771325012003" lon="19.292316622571402"><ele>769.0</ele><time>2026-05-03T12:27:40Z</time></trkpt><trkpt lat="48.927750116246166" lon="19.29223212638745"><ele>768.4000000000001</ele><time>2026-05-03T12:27:41Z</time></trkpt><trkpt lat="48.9277851418694" lon="19.292132806510175"><ele>767.8</ele><time>2026-05-03T12:27:42Z</time></trkpt><trkpt lat="48.92782071791893" lon="19.292030763633882"><ele>767.2</ele><time>2026-05-03T12:27:43Z</time></trkpt><trkpt lat="48.92790670689661" lon="19.29188311235267"><ele>766.5999999999999</ele><time>2026-05-03T12:27:45Z</time></trkpt><trkpt lat="48.92800332902027" lon="19.29178562550734"><ele>766.0</ele><time>2026-05-03T12:27:47Z</time></trkpt><trkpt lat="48.92807476179669" lon="19.291701014756306"><ele>766.0</ele><time>2026-05-03T12:27:49Z</time></trkpt><trkpt lat="48.92811292000834" lon="19.291594686481332"><ele>766.0</ele><time>2026-05-03T12:27:51Z</time></trkpt><trkpt lat="48.928194090051015" lon="19.29147417027888"><ele>766.0</ele><time>2026-05-03T12:27:53Z</time></trkpt><trkpt lat="48.92826637600818" lon="19.291349772230447"><ele>766.0</ele><time>2026-05-03T12:27:54Z</time></trkpt><trkpt lat="48.928355715089516" lon="19.291185859900057"><ele>766.0</ele><time>2026-05-03T12:27:55Z</time></trkpt><trkpt lat="48.928441773181795" lon="19.291036553887263"><ele>766.5</ele><time>2026-05-03T12:27:56Z</time></trkpt><trkpt lat="48.92852547292197" lon="19.29091227458247"><ele>767.0</ele><time>2026-05-03T12:27:57Z</time></trkpt><trkpt lat="48.928627009895486" lon="19.29079531701894"><ele>767.5</ele><time>2026-05-03T12:27:58Z</time></trkpt><trkpt lat="48.92874072680673" lon="19.29069287457654"><ele>768.0</ele><time>2026-05-03T12:27:59Z</time></trkpt><trkpt lat="48.928869172697205" lon="19.290571232554065"><ele>768.25</ele><time>2026-05-03T12:28:00Z</time></trkpt><trkpt lat="48.92899709048499" lon="19.290434711024513"><ele>768.5</ele><time>2026-05-03T12:28:01Z</time></trkpt><trkpt lat="48.92909852943845" lon="19.290305429029818"><ele>768.75</ele><time>2026-05-03T12:28:02Z</time></trkpt><trkpt lat="48.929188161800525" lon="19.290175396172334"><ele>769.0</ele><time>2026-05-03T12:28:03Z</time></trkpt><trkpt lat="48.92927033544039" lon="19.290041585759816"><ele>768.5</ele><time>2026-05-03T12:28:04Z</time></trkpt><trkpt lat="48.92936556719841" lon="19.289881744097134"><ele>768.0</ele><time>2026-05-03T12:28:05Z</time></trkpt><trkpt lat="48.929475360833266" lon="19.28970757596843"><ele>767.5</ele><time>2026-05-03T12:28:06Z</time></trkpt><trkpt lat="48.929563227448945" lon="19.289555900871708"><ele>767.0</ele><time>2026-05-03T12:28:07Z</time></trkpt><trkpt lat="48.92962608033899" lon="19.28944581688202"><ele>769.6</ele><time>2026-05-03T12:28:08Z</time></trkpt><trkpt lat="48.92968892467371" lon="19.289336814065884"><ele>772.2</ele><time>2026-05-03T12:28:09Z</time></trkpt><trkpt lat="48.92974554594198" lon="19.28920936129361"><ele>774.8</ele><time>2026-05-03T12:28:10Z</time></trkpt><trkpt lat="48.92979756039423" lon="19.289113897035573"><ele>777.4</ele><time>2026-05-03T12:28:11Z</time></trkpt><trkpt lat="48.92987878394703" lon="19.288987425346022"><ele>780.0</ele><time>2026-05-03T12:28:13Z</time></trkpt><trkpt lat="48.92992411357146" lon="19.28891701030936"><ele>782.4</ele><time>2026-05-03T12:28:14Z</time></trkpt><trkpt lat="48.929970827678794" lon="19.2888123730665"><ele>784.8</ele><time>2026-05-03T12:28:15Z</time></trkpt><trkpt lat="48.93001002668267" lon="19.28867119238904"><ele>787.2</ele><time>2026-05-03T12:28:16Z</time></trkpt><trkpt lat="48.9300330331335" lon="19.288538139746652"><ele>789.6</ele><time>2026-05-03T12:28:17Z</time></trkpt><trkpt lat="48.93008265273785" lon="19.288361561011882"><ele>792.0</ele><time>2026-05-03T12:28:19Z</time></trkpt><trkpt lat="48.9301101392284" lon="19.28827007070902"><ele>792.0</ele><time>2026-05-03T12:28:20Z</time></trkpt><trkpt lat="48.930121071601135" lon="19.288116470885658"><ele>792.0</ele><time>2026-05-03T12:28:22Z</time></trkpt><trkpt lat="48.93012905823431" lon="19.287964722724187"><ele>792.0</ele><time>2026-05-03T12:28:24Z</time></trkpt><trkpt lat="48.9301101703089" lon="19.287857674657268"><ele>792.0</ele><time>2026-05-03T12:28:26Z</time></trkpt><trkpt lat="48.930071162132954" lon="19.287750102440608"><ele>792.0</ele><time>2026-05-03T12:28:28Z</time></trkpt><trkpt lat="48.930095679628316" lon="19.28762156007399"><ele>792.0</ele><time>2026-05-03T12:28:31Z</time></trkpt><trkpt lat="48.93010644782057" lon="19.287504664872145"><ele>792.6666666666666</ele><time>2026-05-03T12:28:33Z</time></trkpt><trkpt lat="48.93010083980159" lon="19.287361141169658"><ele>793.3333333333333</ele><time>2026-05-03T12:28:36Z</time></trkpt><trkpt lat="48.93012838116341" lon="19.287265065719268"><ele>794.0</ele><time>2026-05-03T12:28:39Z</time></trkpt><trkpt lat="48.93018840962387" lon="19.287234115810865"><ele>794.6666666666666</ele><time>2026-05-03T12:28:41Z</time></trkpt><trkpt lat="48.93027792027534" lon="19.28716811413256"><ele>795.3333333333333</ele><time>2026-05-03T12:28:43Z</time></trkpt><trkpt lat="48.93031561407166" lon="19.28706920151741"><ele>796.0</ele><time>2026-05-03T12:28:45Z</time></trkpt><trkpt lat="48.93031811136542" lon="19.286933202341096"><ele>796.1999999999999</ele><time>2026-05-03T12:28:47Z</time></trkpt><trkpt lat="48.93031356331038" lon="19.28678173464077"><ele>796.4</ele><time>2026-05-03T12:28:49Z</time></trkpt><trkpt lat="48.93032018896095" lon="19.286617935594233"><ele>796.6</ele><time>2026-05-03T12:28:51Z</time></trkpt><trkpt lat="48.93031299717723" lon="19.28645005344931"><ele>796.8</ele><time>2026-05-03T12:28:53Z</time></trkpt><trkpt lat="48.93029869794658" lon="19.28635452291256"><ele>797.0</ele><time>2026-05-03T12:28:54Z</time></trkpt><trkpt lat="48.93026231360725" lon="19.286207812395137"><ele>799.2</ele><time>2026-05-03T12:28:56Z</time></trkpt><trkpt lat="48.930235797263265" lon="19.2860449373594"><ele>801.4000000000001</ele><time>2026-05-03T12:28:58Z</time></trkpt><trkpt lat="48.93022388082236" lon="19.285911765579375"><ele>803.5999999999999</ele><time>2026-05-03T12:29:00Z</time></trkpt><trkpt lat="48.93020862044048" lon="19.285769476660867"><ele>805.8</ele><time>2026-05-03T12:29:02Z</time></trkpt><trkpt lat="48.93016907798524" lon="19.285643666098423"><ele>808.0</ele><time>2026-05-03T12:29:04Z</time></trkpt><trkpt lat="48.93014301335092" lon="19.28553414128581"><ele>811.1666666666666</ele><time>2026-05-03T12:29:06Z</time></trkpt><trkpt lat="48.930173443223005" lon="19.28539893579108"><ele>814.3333333333333</ele><time>2026-05-03T12:29:08Z</time></trkpt><trkpt lat="48.93022687165356" lon="19.285264565896863"><ele>817.5</ele><time>2026-05-03T12:29:10Z</time></trkpt><trkpt lat="48.93024924331867" lon="19.28513058641632"><ele>820.6666666666667</ele><time>2026-05-03T12:29:13Z</time></trkpt><trkpt lat="48.930270180532595" lon="19.285026686106995"><ele>823.8333333333334</ele><time>2026-05-03T12:29:16Z</time></trkpt><trkpt lat="48.93032676018814" lon="19.28497190666246"><ele>827.0</ele><time>2026-05-03T12:29:18Z</time></trkpt><trkpt lat="48.930399966011386" lon="19.284872799393145"><ele>827.0000000000001</ele><time>2026-05-03T12:30:05Z</time></trkpt><trkpt lat="48.93046898681053" lon="19.28480042026418"><ele>827.0</ele><time>2026-05-03T12:30:07Z</time></trkpt><trkpt lat="48.93052385530673" lon="19.28471180820637"><ele>827.0</ele><time>2026-05-03T12:30:10Z</time></trkpt><trkpt lat="48.93057347273453" lon="19.28461013355363"><ele>827.0</ele><time>2026-05-03T12:30:13Z</time></trkpt><trkpt lat="48.93064560454686" lon="19.284551741945407"><ele>827.0000000000001</ele><time>2026-05-03T12:30:16Z</time></trkpt><trkpt lat="48.93069217189519" lon="19.28444786212164"><ele>827.0</ele><time>2026-05-03T12:30:18Z</time></trkpt><trkpt lat="48.930761255470905" lon="19.284357493471642"><ele>829.2857142857143</ele><time>2026-05-03T12:30:21Z</time></trkpt><trkpt lat="48.93082910146557" lon="19.284323006633002"><ele>831.5714285714286</ele><time>2026-05-03T12:30:25Z</time></trkpt><trkpt lat="48.93089153051696" lon="19.284290840711524"><ele>833.8571428571429</ele><time>2026-05-03T12:30:27Z</time></trkpt><trkpt lat="48.93096809639407" lon="19.284270310504574"><ele>836.1428571428571</ele><time>2026-05-03T12:30:30Z</time></trkpt><trkpt lat="48.93101679934498" lon="19.284207938482268"><ele>838.4285714285713</ele><time>2026-05-03T12:30:33Z</time></trkpt><trkpt lat="48.931082654348" lon="19.284141744385618"><ele>840.7142857142857</ele><time>2026-05-03T12:30:40Z</time></trkpt><trkpt lat="48.93114423505743" lon="19.284039407843053"><ele>843.0</ele><time>2026-05-03T12:31:28Z</time></trkpt><trkpt lat="48.931132485344996" lon="19.283939316539474"><ele>848.6666666666666</ele><time>2026-05-03T12:31:33Z</time></trkpt><trkpt lat="48.93110812531683" lon="19.28379321476211"><ele>854.3333333333333</ele><time>2026-05-03T12:33:25Z</time></trkpt><trkpt lat="48.9311440635096" lon="19.283655876616717"><ele>860.0</ele><time>2026-05-03T12:33:27Z</time></trkpt><trkpt lat="48.931186558467964" lon="19.283562916084506"><ele>865.6666666666666</ele><time>2026-05-03T12:33:32Z</time></trkpt><trkpt lat="48.93118846035853" lon="19.283709997394062"><ele>871.3333333333333</ele><time>2026-05-03T12:34:18Z</time></trkpt><trkpt lat="48.93115317344856" lon="19.283808048743033"><ele>877.0</ele><time>2026-05-03T12:34:21Z</time></trkpt><trkpt lat="48.93112466682572" lon="19.2839063056959"><ele>876.9999999999999</ele><time>2026-05-03T12:34:24Z</time></trkpt><trkpt lat="48.931080419226625" lon="19.28397961869618"><ele>877.0</ele><time>2026-05-03T12:34:29Z</time></trkpt><trkpt lat="48.93108689311697" lon="19.283880940392788"><ele>877.0</ele><time>2026-05-03T12:34:59Z</time></trkpt><trkpt lat="48.931101981875436" lon="19.283976411206762"><ele>877.0</ele><time>2026-05-03T12:36:01Z</time></trkpt><trkpt lat="48.931163508612" lon="19.284057794153217"><ele>876.9999999999999</ele><time>2026-05-03T12:36:33Z</time></trkpt><trkpt lat="48.93115684171338" lon="19.283921451469354"><ele>877.0</ele><time>2026-05-03T12:38:10Z</time></trkpt><trkpt lat="48.931196086848345" lon="19.283752141661942"><ele>877.0000000000001</ele><time>2026-05-03T12:38:12Z</time></trkpt><trkpt lat="48.93124265626821" lon="19.28367279757056"><ele>877.0</ele><time>2026-05-03T12:38:13Z</time></trkpt><trkpt lat="48.93123500963973" lon="19.283576642424855"><ele>877.0</ele><time>2026-05-03T12:38:16Z</time></trkpt><trkpt lat="48.93117339502606" lon="19.283604578037398"><ele>877.0</ele><time>2026-05-03T12:38:52Z</time></trkpt><trkpt lat="48.93118523450956" lon="19.283704832393646"><ele>877.0</ele><time>2026-05-03T12:39:05Z</time></trkpt><trkpt lat="48.931150613078906" lon="19.283791525691786"><ele>877.0000000000001</ele><time>2026-05-03T12:39:08Z</time></trkpt><trkpt lat="48.93111769643481" lon="19.283896994334572"><ele>877.0</ele><time>2026-05-03T12:39:14Z</time></trkpt><trkpt lat="48.931114468442104" lon="19.283996832341348"><ele>874.5714285714287</ele><time>2026-05-03T12:39:27Z</time></trkpt><trkpt lat="48.93112874657196" lon="19.284098525344547"><ele>872.1428571428571</ele><time>2026-05-03T12:39:30Z</time></trkpt><trkpt lat="48.93106780930764" lon="19.284150972238557"><ele>869.7142857142858</ele><time>2026-05-03T12:39:36Z</time></trkpt><trkpt lat="48.9310072727716" lon="19.284181881728152"><ele>867.2857142857143</ele><time>2026-05-03T12:40:02Z</time></trkpt><trkpt lat="48.930942654935606" lon="19.284234585565944"><ele>864.8571428571429</ele><time>2026-05-03T12:40:11Z</time></trkpt><trkpt lat="48.93087313271806" lon="19.284280005149057"><ele>862.4285714285714</ele><time>2026-05-03T12:40:15Z</time></trkpt><trkpt lat="48.93078851104437" lon="19.284313444411325"><ele>860.0</ele><time>2026-05-03T12:40:19Z</time></trkpt><trkpt lat="48.930719302385384" lon="19.284393627728562"><ele>857.1666666666667</ele><time>2026-05-03T12:40:23Z</time></trkpt><trkpt lat="48.93067258280471" lon="19.28447431819487"><ele>854.3333333333334</ele><time>2026-05-03T12:40:27Z</time></trkpt><trkpt lat="48.930631861888216" lon="19.284568453747276"><ele>851.5</ele><time>2026-05-03T12:40:32Z</time></trkpt><trkpt lat="48.93057344069694" lon="19.284648465814332"><ele>848.6666666666667</ele><time>2026-05-03T12:40:37Z</time></trkpt><trkpt lat="48.930539662082545" lon="19.284734917448013"><ele>845.8333333333334</ele><time>2026-05-03T12:40:43Z</time></trkpt><trkpt lat="48.93048397645124" lon="19.284807668190613"><ele>843.0</ele><time>2026-05-03T12:40:47Z</time></trkpt><trkpt lat="48.930408965236104" lon="19.28488249190363"><ele>840.3333333333334</ele><time>2026-05-03T12:40:50Z</time></trkpt><trkpt lat="48.930355640363544" lon="19.28493885650664"><ele>837.6666666666667</ele><time>2026-05-03T12:40:52Z</time></trkpt><trkpt lat="48.93028568411625" lon="19.285008393230058"><ele>835.0</ele><time>2026-05-03T12:40:54Z</time></trkpt><trkpt lat="48.93022084683968" lon="19.2850954844322"><ele>832.3333333333334</ele><time>2026-05-03T12:41:13Z</time></trkpt><trkpt lat="48.93019793105012" lon="19.28522766125127"><ele>829.6666666666667</ele><time>2026-05-03T12:41:17Z</time></trkpt><trkpt lat="48.930175397016676" lon="19.28532878258234"><ele>827.0</ele><time>2026-05-03T12:41:19Z</time></trkpt><trkpt lat="48.93014459978933" lon="19.28542422582285"><ele>827.0000000000001</ele><time>2026-05-03T12:41:21Z</time></trkpt><trkpt lat="48.930097296129134" lon="19.28551834569101"><ele>827.0</ele><time>2026-05-03T12:41:23Z</time></trkpt><trkpt lat="48.930040940001604" lon="19.285626505657323"><ele>827.0</ele><time>2026-05-03T12:41:25Z</time></trkpt><trkpt lat="48.92997214780681" lon="19.2856701696119"><ele>827.0</ele><time>2026-05-03T12:41:27Z</time></trkpt><trkpt lat="48.92988737998807" lon="19.285668843918614"><ele>827.0000000000001</ele><time>2026-05-03T12:41:29Z</time></trkpt><trkpt lat="48.929795862672165" lon="19.285705319526645"><ele>827.0</ele><time>2026-05-03T12:41:31Z</time></trkpt><trkpt lat="48.92969911690918" lon="19.285726627561576"><ele>820.4000000000001</ele><time>2026-05-03T12:41:33Z</time></trkpt><trkpt lat="48.92960640244194" lon="19.28574274841261"><ele>813.8000000000001</ele><time>2026-05-03T12:41:35Z</time></trkpt><trkpt lat="48.92948878525205" lon="19.285760437825278"><ele>807.2</ele><time>2026-05-03T12:41:37Z</time></trkpt><trkpt lat="48.92938488906506" lon="19.285777692481513"><ele>800.6</ele><time>2026-05-03T12:41:39Z</time></trkpt><trkpt lat="48.92930582842782" lon="19.28578829284089"><ele>794.0</ele><time>2026-05-03T12:41:41Z</time></trkpt><trkpt lat="48.92923053580958" lon="19.285842231229434"><ele>793.8333333333334</ele><time>2026-05-03T12:41:43Z</time></trkpt><trkpt lat="48.929162230078894" lon="19.285919891230293"><ele>793.6666666666667</ele><time>2026-05-03T12:41:45Z</time></trkpt><trkpt lat="48.92913055377187" lon="19.286005017481536"><ele>793.5</ele><time>2026-05-03T12:41:47Z</time></trkpt><trkpt lat="48.92907417127161" lon="19.286099499421436"><ele>793.3333333333333</ele><time>2026-05-03T12:41:50Z</time></trkpt><trkpt lat="48.92903318596256" lon="19.286185273974365"><ele>793.1666666666666</ele><time>2026-05-03T12:41:52Z</time></trkpt><trkpt lat="48.92899274176078" lon="19.286300350755592"><ele>793.0</ele><time>2026-05-03T12:41:54Z</time></trkpt><trkpt lat="48.928952285788675" lon="19.286423155197102"><ele>791.4999999999999</ele><time>2026-05-03T12:41:56Z</time></trkpt><trkpt lat="48.92891676100444" lon="19.286551852013027"><ele>790.0</ele><time>2026-05-03T12:41:58Z</time></trkpt><trkpt lat="48.928897061978894" lon="19.28666261796546"><ele>788.5</ele><time>2026-05-03T12:42:00Z</time></trkpt><trkpt lat="48.928874841858445" lon="19.286779152784906"><ele>787.0</ele><time>2026-05-03T12:42:02Z</time></trkpt><trkpt lat="48.92883902263419" lon="19.286899899019375"><ele>785.4999999999999</ele><time>2026-05-03T12:42:04Z</time></trkpt><trkpt lat="48.92880430792483" lon="19.287052081117935"><ele>784.0</ele><time>2026-05-03T12:42:06Z</time></trkpt><trkpt lat="48.92876058627705" lon="19.287204465723775"><ele>782.9999999999999</ele><time>2026-05-03T12:42:08Z</time></trkpt><trkpt lat="48.92872797523756" lon="19.28734661399555"><ele>782.0</ele><time>2026-05-03T12:42:10Z</time></trkpt><trkpt lat="48.928717264501586" lon="19.287460068759813"><ele>781.0</ele><time>2026-05-03T12:42:12Z</time></trkpt><trkpt lat="48.92868872798596" lon="19.287570498678047"><ele>780.0</ele><time>2026-05-03T12:42:14Z</time></trkpt><trkpt lat="48.928607803407594" lon="19.287616930260327"><ele>778.9999999999999</ele><time>2026-05-03T12:42:16Z</time></trkpt><trkpt lat="48.92853924546424" lon="19.28758369406725"><ele>778.0</ele><time>2026-05-03T12:42:18Z</time></trkpt><trkpt lat="48.928453902184664" lon="19.287552283884278"><ele>774.25</ele><time>2026-05-03T12:42:20Z</time></trkpt><trkpt lat="48.92834875618848" lon="19.287488019415303"><ele>770.5</ele><time>2026-05-03T12:42:22Z</time></trkpt><trkpt lat="48.92823267811905" lon="19.28748504122151"><ele>766.75</ele><time>2026-05-03T12:42:24Z</time></trkpt><trkpt lat="48.928118207577114" lon="19.287512019235464"><ele>763.0</ele><time>2026-05-03T12:42:26Z</time></trkpt><trkpt lat="48.92800908682407" lon="19.287539761981275"><ele>763.0</ele><time>2026-05-03T12:42:28Z</time></trkpt><trkpt lat="48.92790724897142" lon="19.28755747537364"><ele>763.0</ele><time>2026-05-03T12:42:30Z</time></trkpt><trkpt lat="48.92781484735835" lon="19.287568883626122"><ele>763.0</ele><time>2026-05-03T12:42:32Z</time></trkpt><trkpt lat="48.927707577747235" lon="19.287572513992494"><ele>763.0</ele><time>2026-05-03T12:42:34Z</time></trkpt><trkpt lat="48.92761523348442" lon="19.287564741388202"><ele>763.0</ele><time>2026-05-03T12:42:36Z</time></trkpt><trkpt lat="48.927532186469506" lon="19.287511707435502"><ele>762.5999999999999</ele><time>2026-05-03T12:42:38Z</time></trkpt><trkpt lat="48.927468999930184" lon="19.287420281271714"><ele>762.1999999999999</ele><time>2026-05-03T12:42:40Z</time></trkpt><trkpt lat="48.92740771239003" lon="19.2873259679061"><ele>761.8</ele><time>2026-05-03T12:42:42Z</time></trkpt><trkpt lat="48.92734442948046" lon="19.28723224458277"><ele>761.4</ele><time>2026-05-03T12:42:44Z</time></trkpt><trkpt lat="48.92734040509794" lon="19.287087540258234"><ele>761.0</ele><time>2026-05-03T12:42:46Z</time></trkpt><trkpt lat="48.9273579595074" lon="19.286938960747335"><ele>761.0</ele><time>2026-05-03T12:42:48Z</time></trkpt><trkpt lat="48.92736075485653" lon="19.286842768441414"><ele>761.0</ele><time>2026-05-03T12:42:49Z</time></trkpt><trkpt lat="48.92734615708657" lon="19.28664682101346"><ele>761.0</ele><time>2026-05-03T12:42:51Z</time></trkpt><trkpt lat="48.92731566206465" lon="19.28655231844329"><ele>761.0</ele><time>2026-05-03T12:42:52Z</time></trkpt><trkpt lat="48.927286820895326" lon="19.28646094332797"><ele>761.0</ele><time>2026-05-03T12:42:53Z</time></trkpt><trkpt lat="48.92726313541416" lon="19.286366936759784"><ele>761.0</ele><time>2026-05-03T12:42:54Z</time></trkpt><trkpt lat="48.92723842770198" lon="19.286277681778564"><ele>763.1999999999999</ele><time>2026-05-03T12:42:55Z</time></trkpt><trkpt lat="48.927181252596355" lon="19.286111615151878"><ele>765.4</ele><time>2026-05-03T12:42:57Z</time></trkpt><trkpt lat="48.92715400411326" lon="19.286019886301897"><ele>767.6</ele><time>2026-05-03T12:42:58Z</time></trkpt><trkpt lat="48.92710585657695" lon="19.28586787469656"><ele>769.8</ele><time>2026-05-03T12:43:00Z</time></trkpt><trkpt lat="48.92706792693369" lon="19.285731112136116"><ele>772.0</ele><time>2026-05-03T12:43:02Z</time></trkpt><trkpt lat="48.92702624829486" lon="19.285636364166503"><ele>770.3333333333333</ele><time>2026-05-03T12:43:04Z</time></trkpt><trkpt lat="48.926960247805255" lon="19.285524622312035"><ele>768.6666666666666</ele><time>2026-05-03T12:43:07Z</time></trkpt><trkpt lat="48.926890915099875" lon="19.285442695703253"><ele>767.0</ele><time>2026-05-03T12:43:10Z</time></trkpt><trkpt lat="48.92681851681252" lon="19.285352122417283"><ele>765.3333333333333</ele><time>2026-05-03T12:43:12Z</time></trkpt><trkpt lat="48.92675051231653" lon="19.28527752346921"><ele>763.6666666666666</ele><time>2026-05-03T12:43:15Z</time></trkpt><trkpt lat="48.92669979938296" lon="19.28534911978343"><ele>762.0</ele><time>2026-05-03T12:43:19Z</time></trkpt><trkpt lat="48.92677695269276" lon="19.285387832367007"><ele>764.0</ele><time>2026-05-03T12:43:21Z</time></trkpt><trkpt lat="48.92687405801605" lon="19.285438636945734"><ele>766.0</ele><time>2026-05-03T12:43:23Z</time></trkpt><trkpt lat="48.92696787090814" lon="19.285526740860746"><ele>768.0</ele><time>2026-05-03T12:43:25Z</time></trkpt><trkpt lat="48.92702185947235" lon="19.285615130087518"><ele>770.0</ele><time>2026-05-03T12:43:27Z</time></trkpt><trkpt lat="48.927068543696635" lon="19.285727484087126"><ele>772.0</ele><time>2026-05-03T12:43:29Z</time></trkpt><trkpt lat="48.92709696376243" lon="19.28583035179865"><ele>771.9999999999999</ele><time>2026-05-03T12:43:31Z</time></trkpt><trkpt lat="48.92711299048307" lon="19.28593184939837"><ele>772.0</ele><time>2026-05-03T12:44:24Z</time></trkpt><trkpt lat="48.9270565131483" lon="19.28598632658459"><ele>772.0</ele><time>2026-05-03T12:44:28Z</time></trkpt><trkpt lat="48.9270423777738" lon="19.285835575800395"><ele>772.0</ele><time>2026-05-03T12:44:31Z</time></trkpt><trkpt lat="48.92706614107222" lon="19.28574562685884"><ele>771.9999999999999</ele><time>2026-05-03T12:44:33Z</time></trkpt><trkpt lat="48.92704573788597" lon="19.28564609200941"><ele>772.0</ele><time>2026-05-03T12:44:35Z</time></trkpt><trkpt lat="48.926958878888556" lon="19.28551262082033"><ele>770.0</ele><time>2026-05-03T12:44:37Z</time></trkpt><trkpt lat="48.926872113459865" lon="19.285415735299114"><ele>768.0</ele><time>2026-05-03T12:44:39Z</time></trkpt><trkpt lat="48.92680294834328" lon="19.28535574399728"><ele>766.0</ele><time>2026-05-03T12:44:41Z</time></trkpt><trkpt lat="48.92671353130399" lon="19.28524900515818"><ele>764.0</ele><time>2026-05-03T12:44:44Z</time></trkpt><trkpt lat="48.92664166868976" lon="19.285146813838015"><ele>762.0</ele><time>2026-05-03T12:44:46Z</time></trkpt><trkpt lat="48.926586770813195" lon="19.285085202287657"><ele>762.0</ele><time>2026-05-03T12:44:48Z</time></trkpt><trkpt lat="48.92651788931642" lon="19.285019643649417"><ele>762.0</ele><time>2026-05-03T12:44:50Z</time></trkpt><trkpt lat="48.9264293559513" lon="19.284947919710785"><ele>762.0</ele><time>2026-05-03T12:44:52Z</time></trkpt><trkpt lat="48.92635515560771" lon="19.28488829737828"><ele>762.0</ele><time>2026-05-03T12:44:54Z</time></trkpt><trkpt lat="48.92628199856963" lon="19.28481495854947"><ele>762.0</ele><time>2026-05-03T12:44:56Z</time></trkpt><trkpt lat="48.926228277724924" lon="19.284763276675815"><ele>762.0</ele><time>2026-05-03T12:44:57Z</time></trkpt><trkpt lat="48.926132793635865" lon="19.284659858337896"><ele>759.0</ele><time>2026-05-03T12:44:59Z</time></trkpt><trkpt lat="48.92605325781634" lon="19.284549206173324"><ele>756.0</ele><time>2026-05-03T12:45:01Z</time></trkpt><trkpt lat="48.92599080516562" lon="19.284413355516776"><ele>753.0</ele><time>2026-05-03T12:45:03Z</time></trkpt><trkpt lat="48.92592743772452" lon="19.284311333656543"><ele>750.0</ele><time>2026-05-03T12:45:05Z</time></trkpt><trkpt lat="48.92586044621903" lon="19.284206148735212"><ele>747.0</ele><time>2026-05-03T12:45:07Z</time></trkpt><trkpt lat="48.92577132338502" lon="19.28410195538532"><ele>747.0</ele><time>2026-05-03T12:45:09Z</time></trkpt><trkpt lat="48.925655678045075" lon="19.284036475044438"><ele>747.0</ele><time>2026-05-03T12:45:11Z</time></trkpt><trkpt lat="48.925592528042664" lon="19.284008777874604"><ele>747.0</ele><time>2026-05-03T12:45:12Z</time></trkpt><trkpt lat="48.925470781437255" lon="19.283952140623327"><ele>747.0</ele><time>2026-05-03T12:45:14Z</time></trkpt><trkpt lat="48.925363141625176" lon="19.28386093352941"><ele>747.0</ele><time>2026-05-03T12:45:16Z</time></trkpt><trkpt lat="48.92528620751234" lon="19.283740269357917"><ele>744.6</ele><time>2026-05-03T12:45:18Z</time></trkpt><trkpt lat="48.92522351262532" lon="19.283613063888726"><ele>742.2</ele><time>2026-05-03T12:45:20Z</time></trkpt><trkpt lat="48.925163081589155" lon="19.28349708923"><ele>739.8</ele><time>2026-05-03T12:45:22Z</time></trkpt><trkpt lat="48.92511227899292" lon="19.2833716555114"><ele>737.4</ele><time>2026-05-03T12:45:24Z</time></trkpt><trkpt lat="48.925073042652144" lon="19.283293616706473"><ele>735.0</ele><time>2026-05-03T12:45:25Z</time></trkpt><trkpt lat="48.925003095004975" lon="19.283155889089638"><ele>735.8</ele><time>2026-05-03T12:45:27Z</time></trkpt><trkpt lat="48.92493965722735" lon="19.2830272856679"><ele>736.6</ele><time>2026-05-03T12:45:29Z</time></trkpt><trkpt lat="48.92486109404614" lon="19.282920997684247"><ele>737.4000000000001</ele><time>2026-05-03T12:45:31Z</time></trkpt><trkpt lat="48.924778091234515" lon="19.282838371813785"><ele>738.2</ele><time>2026-05-03T12:45:33Z</time></trkpt><trkpt lat="48.924703730582884" lon="19.28276963973498"><ele>739.0</ele><time>2026-05-03T12:45:35Z</time></trkpt><trkpt lat="48.92462273151995" lon="19.28276752036708"><ele>739.0</ele><time>2026-05-03T12:45:37Z</time></trkpt><trkpt lat="48.92455824419614" lon="19.2827771826461"><ele>739.0</ele><time>2026-05-03T12:45:38Z</time></trkpt><trkpt lat="48.92448603749773" lon="19.2827580964185"><ele>739.0</ele><time>2026-05-03T12:45:39Z</time></trkpt><trkpt lat="48.924416713372274" lon="19.282732815587885"><ele>739.0</ele><time>2026-05-03T12:45:40Z</time></trkpt><trkpt lat="48.92435406314759" lon="19.28270095974299"><ele>739.0</ele><time>2026-05-03T12:45:41Z</time></trkpt><trkpt lat="48.92430252837936" lon="19.282632054915513"><ele>739.0</ele><time>2026-05-03T12:45:42Z</time></trkpt><trkpt lat="48.92423798395114" lon="19.282551235461902"><ele>739.0</ele><time>2026-05-03T12:45:43Z</time></trkpt><trkpt lat="48.92414703436352" lon="19.28240239666246"><ele>737.4000000000001</ele><time>2026-05-03T12:45:44Z</time></trkpt><trkpt lat="48.92407514684691" lon="19.28228153313938"><ele>735.8</ele><time>2026-05-03T12:45:45Z</time></trkpt><trkpt lat="48.924007820395246" lon="19.282178886195318"><ele>734.2</ele><time>2026-05-03T12:45:46Z</time></trkpt><trkpt lat="48.92395586715444" lon="19.282120070108117"><ele>732.5999999999999</ele><time>2026-05-03T12:45:47Z</time></trkpt><trkpt lat="48.92390754886804" lon="19.282032864639717"><ele>731.0</ele><time>2026-05-03T12:45:48Z</time></trkpt><trkpt lat="48.92381170097531" lon="19.281952015511038"><ele>730.5999999999999</ele><time>2026-05-03T12:45:50Z</time></trkpt><trkpt lat="48.92370791671864" lon="19.281945591308187"><ele>730.2</ele><time>2026-05-03T12:45:52Z</time></trkpt><trkpt lat="48.923643605331954" lon="19.28198210064265"><ele>729.8</ele><time>2026-05-03T12:45:53Z</time></trkpt><trkpt lat="48.923536396524796" lon="19.282031925838172"><ele>729.4000000000001</ele><time>2026-05-03T12:45:55Z</time></trkpt><trkpt lat="48.92343180699188" lon="19.282111300387154"><ele>729.0</ele><time>2026-05-03T12:45:57Z</time></trkpt><trkpt lat="48.9233297525192" lon="19.282209587408513"><ele>730.0</ele><time>2026-05-03T12:45:59Z</time></trkpt><trkpt lat="48.923229251583905" lon="19.282302732585777"><ele>731.0</ele><time>2026-05-03T12:46:01Z</time></trkpt><trkpt lat="48.92312761897878" lon="19.282362969671247"><ele>732.0</ele><time>2026-05-03T12:46:03Z</time></trkpt><trkpt lat="48.92301836953337" lon="19.282389953648195"><ele>733.0</ele><time>2026-05-03T12:46:05Z</time></trkpt><trkpt lat="48.92295419980329" lon="19.28239414040127"><ele>734.0</ele><time>2026-05-03T12:46:06Z</time></trkpt><trkpt lat="48.92283271645256" lon="19.28241692139014"><ele>734.0</ele><time>2026-05-03T12:46:08Z</time></trkpt><trkpt lat="48.92276407709793" lon="19.28245182072079"><ele>734.0</ele><time>2026-05-03T12:46:09Z</time></trkpt><trkpt lat="48.9226994489283" lon="19.282492129133345"><ele>734.0</ele><time>2026-05-03T12:46:10Z</time></trkpt><trkpt lat="48.92264319842481" lon="19.282547712431406"><ele>734.0</ele><time>2026-05-03T12:46:11Z</time></trkpt><trkpt lat="48.92258955659006" lon="19.282606819244222"><ele>734.0</ele><time>2026-05-03T12:46:12Z</time></trkpt><trkpt lat="48.922513047919786" lon="19.282754491106154"><ele>734.0</ele><time>2026-05-03T12:46:14Z</time></trkpt><trkpt lat="48.9224702842696" lon="19.28292777458798"><ele>733.4000000000001</ele><time>2026-05-03T12:46:16Z</time></trkpt><trkpt lat="48.92241382265687" lon="19.28308021213508"><ele>732.8</ele><time>2026-05-03T12:46:18Z</time></trkpt><trkpt lat="48.92233791138715" lon="19.28322518042266"><ele>732.2</ele><time>2026-05-03T12:46:20Z</time></trkpt><trkpt lat="48.922216988099805" lon="19.283297500966007"><ele>731.5999999999999</ele><time>2026-05-03T12:46:22Z</time></trkpt><trkpt lat="48.922147776512716" lon="19.28330608230214"><ele>731.0</ele><time>2026-05-03T12:46:23Z</time></trkpt><trkpt lat="48.922076521318246" lon="19.283322656918873"><ele>732.0</ele><time>2026-05-03T12:46:24Z</time></trkpt><trkpt lat="48.92200815638764" lon="19.283335938946255"><ele>733.0</ele><time>2026-05-03T12:46:25Z</time></trkpt><trkpt lat="48.921938227598595" lon="19.283336655080483"><ele>734.0</ele><time>2026-05-03T12:46:26Z</time></trkpt><trkpt lat="48.92181334700799" lon="19.283338443923647"><ele>735.0</ele><time>2026-05-03T12:46:28Z</time></trkpt><trkpt lat="48.9217396847217" lon="19.283351476478707"><ele>736.0</ele><time>2026-05-03T12:46:29Z</time></trkpt><trkpt lat="48.92166111137493" lon="19.283368060633777"><ele>737.0</ele><time>2026-05-03T12:46:30Z</time></trkpt><trkpt lat="48.92157797921081" lon="19.283402059623096"><ele>737.0</ele><time>2026-05-03T12:46:31Z</time></trkpt><trkpt lat="48.92149917061317" lon="19.283458968700383"><ele>737.0</ele><time>2026-05-03T12:46:32Z</time></trkpt><trkpt lat="48.92141084633555" lon="19.283521639577398"><ele>737.0</ele><time>2026-05-03T12:46:33Z</time></trkpt><trkpt lat="48.921339048526725" lon="19.28359819194941"><ele>737.0</ele><time>2026-05-03T12:46:34Z</time></trkpt><trkpt lat="48.92124778462607" lon="19.283662636970476"><ele>737.0</ele><time>2026-05-03T12:46:35Z</time></trkpt><trkpt lat="48.921164386097296" lon="19.28372566004019"><ele>737.0</ele><time>2026-05-03T12:46:36Z</time></trkpt><trkpt lat="48.92107579773868" lon="19.28380245054276"><ele>737.0</ele><time>2026-05-03T12:46:37Z</time></trkpt><trkpt lat="48.92098683113587" lon="19.283876425771023"><ele>737.0</ele><time>2026-05-03T12:46:38Z</time></trkpt><trkpt lat="48.92090188005125" lon="19.283951083285416"><ele>737.0</ele><time>2026-05-03T12:46:39Z</time></trkpt><trkpt lat="48.92083024565425" lon="19.284015632820207"><ele>737.0</ele><time>2026-05-03T12:46:40Z</time></trkpt><trkpt lat="48.920760583296634" lon="19.284086555413896"><ele>739.6666666666666</ele><time>2026-05-03T12:46:41Z</time></trkpt><trkpt lat="48.92069377046835" lon="19.284147238531723"><ele>742.3333333333333</ele><time>2026-05-03T12:46:42Z</time></trkpt><trkpt lat="48.9206233200939" lon="19.2842069324015"><ele>745.0</ele><time>2026-05-03T12:46:43Z</time></trkpt><trkpt lat="48.92054221186162" lon="19.284269324506543"><ele>747.6666666666666</ele><time>2026-05-03T12:46:44Z</time></trkpt><trkpt lat="48.92045409430116" lon="19.28432644486146"><ele>750.3333333333334</ele><time>2026-05-03T12:46:45Z</time></trkpt><trkpt lat="48.92036430961903" lon="19.284369881045016"><ele>753.0</ele><time>2026-05-03T12:46:46Z</time></trkpt><trkpt lat="48.92027601811414" lon="19.284397333178358"><ele>753.0</ele><time>2026-05-03T12:46:47Z</time></trkpt><trkpt lat="48.920182200833366" lon="19.284450355580837"><ele>753.0</ele><time>2026-05-03T12:46:48Z</time></trkpt><trkpt lat="48.92009760102874" lon="19.284482726932055"><ele>753.0</ele><time>2026-05-03T12:46:49Z</time></trkpt><trkpt lat="48.92000607913522" lon="19.28452733161619"><ele>753.0</ele><time>2026-05-03T12:46:50Z</time></trkpt><trkpt lat="48.91990882394945" lon="19.28457915777539"><ele>753.0</ele><time>2026-05-03T12:46:51Z</time></trkpt><trkpt lat="48.91980343101615" lon="19.284625722960712"><ele>757.4</ele><time>2026-05-03T12:46:52Z</time></trkpt><trkpt lat="48.91969956357296" lon="19.284670282935203"><ele>761.8</ele><time>2026-05-03T12:46:53Z</time></trkpt><trkpt lat="48.91959834171348" lon="19.284720979680422"><ele>766.2</ele><time>2026-05-03T12:46:54Z</time></trkpt><trkpt lat="48.91948071978155" lon="19.284730296507178"><ele>770.6</ele><time>2026-05-03T12:46:55Z</time></trkpt><trkpt lat="48.91936617688427" lon="19.284728977140347"><ele>775.0</ele><time>2026-05-03T12:46:56Z</time></trkpt><trkpt lat="48.91927064040973" lon="19.28471230341277"><ele>777.25</ele><time>2026-05-03T12:46:57Z</time></trkpt><trkpt lat="48.9191530819577" lon="19.284717800138207"><ele>779.5</ele><time>2026-05-03T12:46:58Z</time></trkpt><trkpt lat="48.919034701696745" lon="19.284722729184665"><ele>781.75</ele><time>2026-05-03T12:46:59Z</time></trkpt><trkpt lat="48.91892936932161" lon="19.2847184052389"><ele>784.0</ele><time>2026-05-03T12:47:00Z</time></trkpt><trkpt lat="48.918810877462455" lon="19.28472149722486"><ele>784.0</ele><time>2026-05-03T12:47:01Z</time></trkpt><trkpt lat="48.91870698544147" lon="19.284713971200414"><ele>784.0</ele><time>2026-05-03T12:47:02Z</time></trkpt><trkpt lat="48.918595613760665" lon="19.284705101340755"><ele>784.0</ele><time>2026-05-03T12:47:03Z</time></trkpt><trkpt lat="48.91848203449296" lon="19.28469029052068"><ele>784.0</ele><time>2026-05-03T12:47:04Z</time></trkpt><trkpt lat="48.918368330132175" lon="19.284682874096877"><ele>784.0</ele><time>2026-05-03T12:47:05Z</time></trkpt><trkpt lat="48.91825079851054" lon="19.284657966560054"><ele>783.2</ele><time>2026-05-03T12:47:06Z</time></trkpt><trkpt lat="48.9181336267391" lon="19.284646001368312"><ele>782.4000000000001</ele><time>2026-05-03T12:47:07Z</time></trkpt><trkpt lat="48.91802332527147" lon="19.284643646568878"><ele>781.6</ele><time>2026-05-03T12:47:08Z</time></trkpt><trkpt lat="48.917910456250844" lon="19.28464855908207"><ele>780.8</ele><time>2026-05-03T12:47:09Z</time></trkpt><trkpt lat="48.917805274644344" lon="19.284664025949226"><ele>780.0</ele><time>2026-05-03T12:47:10Z</time></trkpt><trkpt lat="48.91769854599703" lon="19.284684362922178"><ele>780.0</ele><time>2026-05-03T12:47:11Z</time></trkpt><trkpt lat="48.91759870805749" lon="19.28472799447149"><ele>780.0</ele><time>2026-05-03T12:47:12Z</time></trkpt><trkpt lat="48.91749277661975" lon="19.284766326621735"><ele>780.0</ele><time>2026-05-03T12:47:13Z</time></trkpt><trkpt lat="48.91739149627476" lon="19.284808129298217"><ele>780.0</ele><time>2026-05-03T12:47:14Z</time></trkpt><trkpt lat="48.917294609613215" lon="19.284871126009367"><ele>780.0</ele><time>2026-05-03T12:47:15Z</time></trkpt><trkpt lat="48.91719424251849" lon="19.284936997142182"><ele>779.2</ele><time>2026-05-03T12:47:16Z</time></trkpt><trkpt lat="48.91710096115605" lon="19.284981839302617"><ele>778.4</ele><time>2026-05-03T12:47:17Z</time></trkpt><trkpt lat="48.91700980441329" lon="19.285013037433483"><ele>777.5999999999999</ele><time>2026-05-03T12:47:18Z</time></trkpt><trkpt lat="48.916911497749986" lon="19.285063013351113"><ele>776.8</ele><time>2026-05-03T12:47:19Z</time></trkpt><trkpt lat="48.916811017267825" lon="19.285102066220702"><ele>776.0</ele><time>2026-05-03T12:47:20Z</time></trkpt><trkpt lat="48.91670285768678" lon="19.285173507259998"><ele>776.0</ele><time>2026-05-03T12:47:21Z</time></trkpt><trkpt lat="48.91658983702813" lon="19.28523942011743"><ele>776.0</ele><time>2026-05-03T12:47:22Z</time></trkpt><trkpt lat="48.91648050033026" lon="19.285310812485708"><ele>776.0</ele><time>2026-05-03T12:47:23Z</time></trkpt><trkpt lat="48.91637333874985" lon="19.28535217703375"><ele>776.0</ele><time>2026-05-03T12:47:24Z</time></trkpt><trkpt lat="48.916258380584104" lon="19.2854037995518"><ele>776.0</ele><time>2026-05-03T12:47:25Z</time></trkpt><trkpt lat="48.91614759919933" lon="19.285461547179803"><ele>776.0</ele><time>2026-05-03T12:47:26Z</time></trkpt><trkpt lat="48.91602811178987" lon="19.285521135886963"><ele>776.0</ele><time>2026-05-03T12:47:27Z</time></trkpt><trkpt lat="48.915911582568334" lon="19.28559461703125"><ele>776.0</ele><time>2026-05-03T12:47:28Z</time></trkpt><trkpt lat="48.91580432864769" lon="19.285695392490613"><ele>775.25</ele><time>2026-05-03T12:47:29Z</time></trkpt><trkpt lat="48.9156896069094" lon="19.28577813212552"><ele>774.5</ele><time>2026-05-03T12:47:30Z</time></trkpt><trkpt lat="48.91557899435554" lon="19.28585754380625"><ele>773.75</ele><time>2026-05-03T12:47:31Z</time></trkpt><trkpt lat="48.91546562264036" lon="19.28595141457131"><ele>773.0</ele><time>2026-05-03T12:47:32Z</time></trkpt><trkpt lat="48.915355828713125" lon="19.286045397715164"><ele>773.0</ele><time>2026-05-03T12:47:33Z</time></trkpt><trkpt lat="48.91524095269133" lon="19.286135198385967"><ele>773.0</ele><time>2026-05-03T12:47:34Z</time></trkpt><trkpt lat="48.91513302814583" lon="19.286210243090547"><ele>773.0</ele><time>2026-05-03T12:47:35Z</time></trkpt><trkpt lat="48.915028803457915" lon="19.286286677722032"><ele>773.0</ele><time>2026-05-03T12:47:36Z</time></trkpt><trkpt lat="48.9149183715214" lon="19.286378925344142"><ele>775.0</ele><time>2026-05-03T12:47:37Z</time></trkpt><trkpt lat="48.91481225017661" lon="19.28645943451863"><ele>777.0</ele><time>2026-05-03T12:47:38Z</time></trkpt><trkpt lat="48.91470380306348" lon="19.286545193621613"><ele>779.0</ele><time>2026-05-03T12:47:39Z</time></trkpt><trkpt lat="48.91460217691302" lon="19.286621520444854"><ele>781.0</ele><time>2026-05-03T12:47:40Z</time></trkpt><trkpt lat="48.9144987533011" lon="19.28670260784452"><ele>781.0</ele><time>2026-05-03T12:47:41Z</time></trkpt><trkpt lat="48.914397968184076" lon="19.286769882627627"><ele>781.0</ele><time>2026-05-03T12:47:42Z</time></trkpt><trkpt lat="48.9142907214854" lon="19.286845061922428"><ele>781.0</ele><time>2026-05-03T12:47:43Z</time></trkpt><trkpt lat="48.914171576597255" lon="19.286888023217653"><ele>781.0</ele><time>2026-05-03T12:47:44Z</time></trkpt><trkpt lat="48.91405077843174" lon="19.286922083833126"><ele>781.75</ele><time>2026-05-03T12:47:45Z</time></trkpt><trkpt lat="48.91393880862309" lon="19.286959493822874"><ele>782.5</ele><time>2026-05-03T12:47:46Z</time></trkpt><trkpt lat="48.91382809862014" lon="19.287017271105842"><ele>783.25</ele><time>2026-05-03T12:47:47Z</time></trkpt><trkpt lat="48.91371800606638" lon="19.287086969439468"><ele>784.0</ele><time>2026-05-03T12:47:48Z</time></trkpt><trkpt lat="48.913607779779994" lon="19.287157663837224"><ele>784.0</ele><time>2026-05-03T12:47:49Z</time></trkpt><trkpt lat="48.91350655287762" lon="19.28721958246181"><ele>784.0</ele><time>2026-05-03T12:47:50Z</time></trkpt><trkpt lat="48.913400679136075" lon="19.28729034050671"><ele>784.0</ele><time>2026-05-03T12:47:51Z</time></trkpt><trkpt lat="48.91330045310352" lon="19.287353186185396"><ele>784.0</ele><time>2026-05-03T12:47:52Z</time></trkpt><trkpt lat="48.91319527372375" lon="19.287414816914595"><ele>784.0</ele><time>2026-05-03T12:47:53Z</time></trkpt><trkpt lat="48.91309071723112" lon="19.28747041985388"><ele>785.6</ele><time>2026-05-03T12:47:54Z</time></trkpt><trkpt lat="48.91299261019622" lon="19.287531737573666"><ele>787.2</ele><time>2026-05-03T12:47:55Z</time></trkpt><trkpt lat="48.91290240168175" lon="19.2876124008843"><ele>788.8000000000001</ele><time>2026-05-03T12:47:56Z</time></trkpt><trkpt lat="48.91281541046952" lon="19.28770991956182"><ele>790.4000000000001</ele><time>2026-05-03T12:47:57Z</time></trkpt><trkpt lat="48.912729368491405" lon="19.28781325742729"><ele>792.0</ele><time>2026-05-03T12:47:58Z</time></trkpt><trkpt lat="48.91264518559606" lon="19.287912089333116"><ele>794.4000000000001</ele><time>2026-05-03T12:47:59Z</time></trkpt><trkpt lat="48.91255547594892" lon="19.288015385528954"><ele>796.8000000000001</ele><time>2026-05-03T12:48:00Z</time></trkpt><trkpt lat="48.91246851094153" lon="19.288114182406062"><ele>799.2</ele><time>2026-05-03T12:48:01Z</time></trkpt><trkpt lat="48.91238427070627" lon="19.288217911361127"><ele>801.6</ele><time>2026-05-03T12:48:02Z</time></trkpt><trkpt lat="48.912308147122914" lon="19.28833542854067"><ele>804.0</ele><time>2026-05-03T12:48:03Z</time></trkpt><trkpt lat="48.912239595950936" lon="19.288459949216353"><ele>804.0</ele><time>2026-05-03T12:48:04Z</time></trkpt><trkpt lat="48.91217073189204" lon="19.288600191243123"><ele>804.0</ele><time>2026-05-03T12:48:05Z</time></trkpt><trkpt lat="48.91210378483855" lon="19.28873722044152"><ele>804.0</ele><time>2026-05-03T12:48:06Z</time></trkpt><trkpt lat="48.91203960504179" lon="19.288873283222497"><ele>804.0</ele><time>2026-05-03T12:48:07Z</time></trkpt><trkpt lat="48.91196427401499" lon="19.289002085079705"><ele>805.6</ele><time>2026-05-03T12:48:08Z</time></trkpt><trkpt lat="48.911890824076806" lon="19.289101721849452"><ele>807.2</ele><time>2026-05-03T12:48:09Z</time></trkpt><trkpt lat="48.91182859166873" lon="19.2892370006374"><ele>808.8000000000001</ele><time>2026-05-03T12:48:10Z</time></trkpt><trkpt lat="48.91175891364355" lon="19.289365566083188"><ele>810.4000000000001</ele><time>2026-05-03T12:48:11Z</time></trkpt><trkpt lat="48.91168495982901" lon="19.289491974193446"><ele>812.0</ele><time>2026-05-03T12:48:12Z</time></trkpt><trkpt lat="48.911614099695264" lon="19.28962557740799"><ele>812.4000000000001</ele><time>2026-05-03T12:48:13Z</time></trkpt><trkpt lat="48.911557753040526" lon="19.289758709354825"><ele>812.8000000000001</ele><time>2026-05-03T12:48:14Z</time></trkpt><trkpt lat="48.9115030400577" lon="19.289897974877878"><ele>813.2</ele><time>2026-05-03T12:48:15Z</time></trkpt><trkpt lat="48.91146110649929" lon="19.290045810307806"><ele>813.6</ele><time>2026-05-03T12:48:16Z</time></trkpt><trkpt lat="48.91143135569674" lon="19.29019994758424"><ele>814.0</ele><time>2026-05-03T12:48:17Z</time></trkpt><trkpt lat="48.911419313681" lon="19.29035106025383"><ele>814.0</ele><time>2026-05-03T12:48:18Z</time></trkpt><trkpt lat="48.911417416449375" lon="19.29051485797057"><ele>814.0</ele><time>2026-05-03T12:48:19Z</time></trkpt><trkpt lat="48.911443985939016" lon="19.29070484091668"><ele>814.0</ele><time>2026-05-03T12:48:20Z</time></trkpt><trkpt lat="48.91146337038666" lon="19.290835932642242"><ele>814.0</ele><time>2026-05-03T12:48:21Z</time></trkpt><trkpt lat="48.9114945102527" lon="19.290978637291875"><ele>814.0</ele><time>2026-05-03T12:48:22Z</time></trkpt><trkpt lat="48.9115156760625" lon="19.291125303869297"><ele>814.2</ele><time>2026-05-03T12:48:23Z</time></trkpt><trkpt lat="48.911530299695386" lon="19.291272461472236"><ele>814.4000000000001</ele><time>2026-05-03T12:48:24Z</time></trkpt><trkpt lat="48.911550606413336" lon="19.29141259982497"><ele>814.6</ele><time>2026-05-03T12:48:25Z</time></trkpt><trkpt lat="48.91158076889682" lon="19.29150413459841"><ele>814.8</ele><time>2026-05-03T12:48:26Z</time></trkpt><trkpt lat="48.911628765635236" lon="19.291646515940513"><ele>815.0</ele><time>2026-05-03T12:48:27Z</time></trkpt><trkpt lat="48.91169256124831" lon="19.29180461212308"><ele>820.0</ele><time>2026-05-03T12:48:28Z</time></trkpt><trkpt lat="48.911754844721465" lon="19.29193812607258"><ele>825.0</ele><time>2026-05-03T12:48:29Z</time></trkpt><trkpt lat="48.9118276744143" lon="19.292066843005088"><ele>830.0</ele><time>2026-05-03T12:48:30Z</time></trkpt><trkpt lat="48.911897783814254" lon="19.29221102099503"><ele>835.0</ele><time>2026-05-03T12:48:31Z</time></trkpt><trkpt lat="48.9119657348238" lon="19.292351481161344"><ele>835.0</ele><time>2026-05-03T12:48:32Z</time></trkpt><trkpt lat="48.91202569042803" lon="19.29251286589151"><ele>835.0</ele><time>2026-05-03T12:48:33Z</time></trkpt><trkpt lat="48.91209681996195" lon="19.29264878291957"><ele>835.0</ele><time>2026-05-03T12:48:34Z</time></trkpt><trkpt lat="48.91215763723333" lon="19.292805630163844"><ele>835.0</ele><time>2026-05-03T12:48:35Z</time></trkpt><trkpt lat="48.912229085880966" lon="19.29294370147388"><ele>831.75</ele><time>2026-05-03T12:48:36Z</time></trkpt><trkpt lat="48.91230293263732" lon="19.2930980762332"><ele>828.5</ele><time>2026-05-03T12:48:37Z</time></trkpt><trkpt lat="48.912376130550506" lon="19.29324362659453"><ele>825.25</ele><time>2026-05-03T12:48:38Z</time></trkpt><trkpt lat="48.912444139909404" lon="19.293406075289134"><ele>822.0</ele><time>2026-05-03T12:48:39Z</time></trkpt><trkpt lat="48.912512886447146" lon="19.293538213629827"><ele>829.5</ele><time>2026-05-03T12:48:40Z</time></trkpt><trkpt lat="48.91258370504248" lon="19.29368640434766"><ele>837.0</ele><time>2026-05-03T12:48:41Z</time></trkpt><trkpt lat="48.9126482919336" lon="19.29385306233603"><ele>844.5</ele><time>2026-05-03T12:48:42Z</time></trkpt><trkpt lat="48.912705204205494" lon="19.294013517864727"><ele>852.0</ele><time>2026-05-03T12:48:43Z</time></trkpt><trkpt lat="48.912762353090756" lon="19.29416968462129"><ele>852.0</ele><time>2026-05-03T12:48:44Z</time></trkpt><trkpt lat="48.9128143971838" lon="19.29432588603188"><ele>852.0</ele><time>2026-05-03T12:48:45Z</time></trkpt><trkpt lat="48.91286758256404" lon="19.294494759111505"><ele>852.0</ele><time>2026-05-03T12:48:46Z</time></trkpt><trkpt lat="48.91291821803451" lon="19.29465560868976"><ele>852.0</ele><time>2026-05-03T12:48:47Z</time></trkpt><trkpt lat="48.912970418038945" lon="19.29481698245798"><ele>849.8</ele><time>2026-05-03T12:48:48Z</time></trkpt><trkpt lat="48.91301853834835" lon="19.294965921197342"><ele>847.6</ele><time>2026-05-03T12:48:49Z</time></trkpt><trkpt lat="48.91306871868547" lon="19.2951274967526"><ele>845.4</ele><time>2026-05-03T12:48:50Z</time></trkpt><trkpt lat="48.91311526956599" lon="19.295274570640736"><ele>843.1999999999999</ele><time>2026-05-03T12:48:51Z</time></trkpt><trkpt lat="48.91316802204642" lon="19.295417942332286"><ele>841.0</ele><time>2026-05-03T12:48:52Z</time></trkpt><trkpt lat="48.913222544930605" lon="19.29556762523788"><ele>840.1999999999999</ele><time>2026-05-03T12:48:53Z</time></trkpt><trkpt lat="48.913271644985336" lon="19.29570379590592"><ele>839.4</ele><time>2026-05-03T12:48:54Z</time></trkpt><trkpt lat="48.913315139889775" lon="19.295833469973783"><ele>838.6</ele><time>2026-05-03T12:48:55Z</time></trkpt><trkpt lat="48.913360113729226" lon="19.295956155619482"><ele>837.8</ele><time>2026-05-03T12:48:56Z</time></trkpt><trkpt lat="48.91340900039951" lon="19.29607476394934"><ele>837.0</ele><time>2026-05-03T12:48:57Z</time></trkpt><trkpt lat="48.91345067021442" lon="19.296196916933123"><ele>844.3333333333334</ele><time>2026-05-03T12:48:58Z</time></trkpt><trkpt lat="48.91349749994055" lon="19.2963096138439"><ele>851.6666666666667</ele><time>2026-05-03T12:48:59Z</time></trkpt><trkpt lat="48.91354283801316" lon="19.296418347275857"><ele>859.0</ele><time>2026-05-03T12:49:00Z</time></trkpt><trkpt lat="48.91358288889675" lon="19.296541284028276"><ele>866.3333333333334</ele><time>2026-05-03T12:49:01Z</time></trkpt><trkpt lat="48.91361239037221" lon="19.2966610655851"><ele>873.6666666666667</ele><time>2026-05-03T12:49:02Z</time></trkpt><trkpt lat="48.91365186480848" lon="19.29678366805677"><ele>881.0</ele><time>2026-05-03T12:49:03Z</time></trkpt><trkpt lat="48.91368883694346" lon="19.2969167962345"><ele>881.0</ele><time>2026-05-03T12:49:04Z</time></trkpt><trkpt lat="48.913718251987945" lon="19.297047620812183"><ele>880.9999999999999</ele><time>2026-05-03T12:49:05Z</time></trkpt><trkpt lat="48.913751015593526" lon="19.297204343269975"><ele>880.9999999999999</ele><time>2026-05-03T12:49:06Z</time></trkpt><trkpt lat="48.91378199202256" lon="19.29735069717144"><ele>881.0</ele><time>2026-05-03T12:49:07Z</time></trkpt><trkpt lat="48.913805191147375" lon="19.297498555841862"><ele>881.0</ele><time>2026-05-03T12:49:08Z</time></trkpt><trkpt lat="48.913805887807264" lon="19.297649105195813"><ele>878.5999999999999</ele><time>2026-05-03T12:49:09Z</time></trkpt><trkpt lat="48.91379099823378" lon="19.297789339082218"><ele>876.1999999999999</ele><time>2026-05-03T12:49:10Z</time></trkpt><trkpt lat="48.91376947332346" lon="19.297957055098724"><ele>873.8000000000001</ele><time>2026-05-03T12:49:11Z</time></trkpt><trkpt lat="48.91375370112577" lon="19.298099645672405"><ele>871.4000000000001</ele><time>2026-05-03T12:49:12Z</time></trkpt><trkpt lat="48.91373134978733" lon="19.298257770754446"><ele>869.0</ele><time>2026-05-03T12:49:13Z</time></trkpt><trkpt lat="48.913705795824654" lon="19.298438322646543"><ele>867.25</ele><time>2026-05-03T12:49:14Z</time></trkpt><trkpt lat="48.91367636536236" lon="19.29861914294363"><ele>865.5</ele><time>2026-05-03T12:49:15Z</time></trkpt><trkpt lat="48.91363292783272" lon="19.29879045347168"><ele>863.75</ele><time>2026-05-03T12:49:16Z</time></trkpt><trkpt lat="48.913587407608915" lon="19.2989442343565"><ele>862.0</ele><time>2026-05-03T12:49:17Z</time></trkpt><trkpt lat="48.91353503902025" lon="19.29908684800611"><ele>861.4000000000001</ele><time>2026-05-03T12:49:18Z</time></trkpt><trkpt lat="48.913480547900974" lon="19.299209332280157"><ele>860.8000000000001</ele><time>2026-05-03T12:49:19Z</time></trkpt><trkpt lat="48.91342847460479" lon="19.29933302745677"><ele>860.2</ele><time>2026-05-03T12:49:20Z</time></trkpt><trkpt lat="48.91337192046307" lon="19.29945661638895"><ele>859.6</ele><time>2026-05-03T12:49:21Z</time></trkpt><trkpt lat="48.91331154820378" lon="19.299583247233652"><ele>859.0</ele><time>2026-05-03T12:49:22Z</time></trkpt><trkpt lat="48.913256248366615" lon="19.299704700804586"><ele>856.6</ele><time>2026-05-03T12:49:23Z</time></trkpt><trkpt lat="48.913183515989196" lon="19.29983703611128"><ele>854.2</ele><time>2026-05-03T12:49:24Z</time></trkpt><trkpt lat="48.91311715321726" lon="19.299974816318244"><ele>851.8000000000001</ele><time>2026-05-03T12:49:25Z</time></trkpt><trkpt lat="48.913061453054766" lon="19.300099276666604"><ele>849.4000000000001</ele><time>2026-05-03T12:49:26Z</time></trkpt><trkpt lat="48.913008118745665" lon="19.30022211363442"><ele>847.0</ele><time>2026-05-03T12:49:27Z</time></trkpt><trkpt lat="48.912958618755304" lon="19.30035788748752"><ele>846.9999999999999</ele><time>2026-05-03T12:49:28Z</time></trkpt><trkpt lat="48.912922271245066" lon="19.300476995463278"><ele>847.0</ele><time>2026-05-03T12:49:29Z</time></trkpt><trkpt lat="48.91290095803349" lon="19.300600667589944"><ele>847.0</ele><time>2026-05-03T12:49:30Z</time></trkpt><trkpt lat="48.91289206771404" lon="19.300702900915294"><ele>847.0</ele><time>2026-05-03T12:49:31Z</time></trkpt><trkpt lat="48.91288862786307" lon="19.300816591048793"><ele>846.9999999999999</ele><time>2026-05-03T12:49:32Z</time></trkpt><trkpt lat="48.912890858419985" lon="19.300939187257338"><ele>847.0</ele><time>2026-05-03T12:49:33Z</time></trkpt><trkpt lat="48.91289687307619" lon="19.301089761067786"><ele>847.2</ele><time>2026-05-03T12:49:34Z</time></trkpt><trkpt lat="48.91290180679613" lon="19.30122596863704"><ele>847.4000000000001</ele><time>2026-05-03T12:49:35Z</time></trkpt><trkpt lat="48.91290314631382" lon="19.3013666471786"><ele>847.5999999999999</ele><time>2026-05-03T12:49:36Z</time></trkpt><trkpt lat="48.912900402172696" lon="19.3015219563199"><ele>847.8</ele><time>2026-05-03T12:49:37Z</time></trkpt><trkpt lat="48.912900928276095" lon="19.301666807619963"><ele>848.0</ele><time>2026-05-03T12:49:38Z</time></trkpt><trkpt lat="48.91289506323237" lon="19.30182819377505"><ele>848.0</ele><time>2026-05-03T12:49:39Z</time></trkpt><trkpt lat="48.912893829213175" lon="19.3020012861881"><ele>848.0</ele><time>2026-05-03T12:49:40Z</time></trkpt><trkpt lat="48.91289433708456" lon="19.302176685021575"><ele>848.0</ele><time>2026-05-03T12:49:41Z</time></trkpt><trkpt lat="48.912903899186425" lon="19.302346771929525"><ele>848.0</ele><time>2026-05-03T12:49:42Z</time></trkpt><trkpt lat="48.91290703081492" lon="19.302521573151314"><ele>849.4</ele><time>2026-05-03T12:49:43Z</time></trkpt><trkpt lat="48.9129036297349" lon="19.302694236346877"><ele>850.8</ele><time>2026-05-03T12:49:44Z</time></trkpt><trkpt lat="48.91290520949557" lon="19.30286291647599"><ele>852.2</ele><time>2026-05-03T12:49:45Z</time></trkpt><trkpt lat="48.91291390357338" lon="19.30303729646546"><ele>853.6</ele><time>2026-05-03T12:49:46Z</time></trkpt><trkpt lat="48.91292372680903" lon="19.30319763097202"><ele>855.0</ele><time>2026-05-03T12:49:47Z</time></trkpt><trkpt lat="48.912938306341765" lon="19.30335280941279"><ele>855.8</ele><time>2026-05-03T12:49:48Z</time></trkpt><trkpt lat="48.91296078899083" lon="19.303488217089146"><ele>856.6</ele><time>2026-05-03T12:49:49Z</time></trkpt><trkpt lat="48.91298578898438" lon="19.303622705704736"><ele>857.4000000000001</ele><time>2026-05-03T12:49:50Z</time></trkpt><trkpt lat="48.91301708076239" lon="19.30375357391669"><ele>858.2</ele><time>2026-05-03T12:49:51Z</time></trkpt><trkpt lat="48.91306519937229" lon="19.30389167564176"><ele>859.0</ele><time>2026-05-03T12:49:52Z</time></trkpt><trkpt lat="48.913096779380055" lon="19.304034619736218"><ele>860.0</ele><time>2026-05-03T12:49:53Z</time></trkpt><trkpt lat="48.91314039880374" lon="19.304169101275573"><ele>861.0000000000001</ele><time>2026-05-03T12:49:54Z</time></trkpt><trkpt lat="48.913183076912034" lon="19.304288833802723"><ele>862.0000000000001</ele><time>2026-05-03T12:49:55Z</time></trkpt><trkpt lat="48.91321584050599" lon="19.304412477247965"><ele>863.0</ele><time>2026-05-03T12:49:56Z</time></trkpt><trkpt lat="48.91326909768432" lon="19.304534322688557"><ele>864.0</ele><time>2026-05-03T12:49:57Z</time></trkpt><trkpt lat="48.91333108895817" lon="19.30465325634446"><ele>865.4000000000001</ele><time>2026-05-03T12:49:58Z</time></trkpt><trkpt lat="48.91339402651801" lon="19.304773565327757"><ele>866.8000000000001</ele><time>2026-05-03T12:49:59Z</time></trkpt><trkpt lat="48.91346819696489" lon="19.304895863620054"><ele>868.1999999999999</ele><time>2026-05-03T12:50:00Z</time></trkpt><trkpt lat="48.91354061677539" lon="19.305010494898116"><ele>869.5999999999999</ele><time>2026-05-03T12:50:01Z</time></trkpt><trkpt lat="48.91361519931261" lon="19.305111948030778"><ele>871.0</ele><time>2026-05-03T12:50:02Z</time></trkpt><trkpt lat="48.91368704377669" lon="19.305205533470925"><ele>870.9999999999999</ele><time>2026-05-03T12:50:03Z</time></trkpt><trkpt lat="48.91374565063159" lon="19.30528460287267"><ele>871.0</ele><time>2026-05-03T12:50:04Z</time></trkpt><trkpt lat="48.91379452745826" lon="19.305369247341538"><ele>871.0</ele><time>2026-05-03T12:50:05Z</time></trkpt><trkpt lat="48.91384072277521" lon="19.305448520447182"><ele>871.0</ele><time>2026-05-03T12:50:06Z</time></trkpt><trkpt lat="48.91388316181693" lon="19.305556183325407"><ele>870.9999999999999</ele><time>2026-05-03T12:50:07Z</time></trkpt><trkpt lat="48.91392988087826" lon="19.305659586239997"><ele>871.0</ele><time>2026-05-03T12:50:08Z</time></trkpt><trkpt lat="48.91397428735088" lon="19.305777718081565"><ele>871.6666666666666</ele><time>2026-05-03T12:50:09Z</time></trkpt><trkpt lat="48.91400394325152" lon="19.30590248660132"><ele>872.3333333333333</ele><time>2026-05-03T12:50:10Z</time></trkpt><trkpt lat="48.914030273077735" lon="19.3060335625897"><ele>873.0</ele><time>2026-05-03T12:50:11Z</time></trkpt><trkpt lat="48.914053230346774" lon="19.306157083191383"><ele>873.6666666666667</ele><time>2026-05-03T12:50:12Z</time></trkpt><trkpt lat="48.91410005426549" lon="19.306257515124287"><ele>874.3333333333334</ele><time>2026-05-03T12:50:13Z</time></trkpt><trkpt lat="48.914148452423476" lon="19.306370054655165"><ele>875.0</ele><time>2026-05-03T12:50:14Z</time></trkpt><trkpt lat="48.91419234129458" lon="19.306490899970207"><ele>877.0</ele><time>2026-05-03T12:50:15Z</time></trkpt><trkpt lat="48.91421981734204" lon="19.306621292449105"><ele>879.0</ele><time>2026-05-03T12:50:16Z</time></trkpt><trkpt lat="48.914228882595815" lon="19.306770414588794"><ele>881.0</ele><time>2026-05-03T12:50:17Z</time></trkpt><trkpt lat="48.91424689187106" lon="19.306923012272453"><ele>883.0</ele><time>2026-05-03T12:50:18Z</time></trkpt><trkpt lat="48.9142499497229" lon="19.30705508155603"><ele>885.0</ele><time>2026-05-03T12:50:19Z</time></trkpt><trkpt lat="48.914268339833335" lon="19.307188912428128"><ele>887.8333333333334</ele><time>2026-05-03T12:50:20Z</time></trkpt><trkpt lat="48.914274796124765" lon="19.30730744060794"><ele>890.6666666666667</ele><time>2026-05-03T12:50:21Z</time></trkpt><trkpt lat="48.91427023246072" lon="19.307433383979788"><ele>893.5</ele><time>2026-05-03T12:50:22Z</time></trkpt><trkpt lat="48.91426786638603" lon="19.307556241780173"><ele>896.3333333333334</ele><time>2026-05-03T12:50:23Z</time></trkpt><trkpt lat="48.91428487316142" lon="19.307678202447164"><ele>899.1666666666667</ele><time>2026-05-03T12:50:24Z</time></trkpt><trkpt lat="48.9143131217749" lon="19.307795583762324"><ele>902.0</ele><time>2026-05-03T12:50:25Z</time></trkpt><trkpt lat="48.91433363987965" lon="19.30789095480857"><ele>902.0000000000001</ele><time>2026-05-03T12:50:26Z</time></trkpt><trkpt lat="48.914352119417885" lon="19.308015252306465"><ele>902.0</ele><time>2026-05-03T12:50:27Z</time></trkpt><trkpt lat="48.91436710660238" lon="19.308161216269077"><ele>902.0</ele><time>2026-05-03T12:50:28Z</time></trkpt><trkpt lat="48.91437242749223" lon="19.308278493901224"><ele>902.0</ele><time>2026-05-03T12:50:29Z</time></trkpt><trkpt lat="48.914371864246085" lon="19.308396454620436"><ele>902.0000000000001</ele><time>2026-05-03T12:50:30Z</time></trkpt><trkpt lat="48.914376809975124" lon="19.308538058834905"><ele>902.0</ele><time>2026-05-03T12:50:31Z</time></trkpt><trkpt lat="48.914368525000114" lon="19.308667994358952"><ele>902.1666666666667</ele><time>2026-05-03T12:50:32Z</time></trkpt><trkpt lat="48.914367039252824" lon="19.308798128041662"><ele>902.3333333333334</ele><time>2026-05-03T12:50:33Z</time></trkpt><trkpt lat="48.91436822285424" lon="19.30892197161402"><ele>902.5</ele><time>2026-05-03T12:50:34Z</time></trkpt><trkpt lat="48.914383129796306" lon="19.309049254366027"><ele>902.6666666666667</ele><time>2026-05-03T12:50:35Z</time></trkpt><trkpt lat="48.91438981105901" lon="19.30917372505572"><ele>902.8333333333334</ele><time>2026-05-03T12:50:36Z</time></trkpt><trkpt lat="48.91438565645562" lon="19.309293923451186"><ele>903.0</ele><time>2026-05-03T12:50:37Z</time></trkpt><trkpt lat="48.91436167712562" lon="19.30938739169045"><ele>903.0</ele><time>2026-05-03T12:50:38Z</time></trkpt><trkpt lat="48.914369535053346" lon="19.30953758467461"><ele>903.0</ele><time>2026-05-03T12:50:39Z</time></trkpt><trkpt lat="48.91436816695442" lon="19.309657929465473"><ele>903.0</ele><time>2026-05-03T12:50:40Z</time></trkpt><trkpt lat="48.914372051417196" lon="19.309800482310457"><ele>903.0</ele><time>2026-05-03T12:50:41Z</time></trkpt><trkpt lat="48.91435404548276" lon="19.30992230733119"><ele>903.0</ele><time>2026-05-03T12:50:42Z</time></trkpt><trkpt lat="48.91434655609724" lon="19.310061576108208"><ele>903.0</ele><time>2026-05-03T12:50:43Z</time></trkpt><trkpt lat="48.9143555043461" lon="19.31018058394381"><ele>903.5</ele><time>2026-05-03T12:50:44Z</time></trkpt><trkpt lat="48.914387866681565" lon="19.31029151974614"><ele>904.0</ele><time>2026-05-03T12:50:45Z</time></trkpt><trkpt lat="48.91440941194446" lon="19.31041120058559"><ele>904.5</ele><time>2026-05-03T12:50:46Z</time></trkpt><trkpt lat="48.914435426804765" lon="19.31052261875289"><ele>905.0</ele><time>2026-05-03T12:50:47Z</time></trkpt><trkpt lat="48.91443440121063" lon="19.310655812537863"><ele>905.5</ele><time>2026-05-03T12:50:48Z</time></trkpt><trkpt lat="48.91444184677516" lon="19.310799439207628"><ele>906.0</ele><time>2026-05-03T12:50:49Z</time></trkpt><trkpt lat="48.91446196828183" lon="19.310915927170246"><ele>906.1999999999999</ele><time>2026-05-03T12:50:50Z</time></trkpt><trkpt lat="48.91449423465007" lon="19.311040687069934"><ele>906.3999999999999</ele><time>2026-05-03T12:50:51Z</time></trkpt><trkpt lat="48.914537476884846" lon="19.311167134383464"><ele>906.6</ele><time>2026-05-03T12:50:52Z</time></trkpt><trkpt lat="48.91459154599055" lon="19.311294657426217"><ele>906.8</ele><time>2026-05-03T12:50:53Z</time></trkpt><trkpt lat="48.91464987252711" lon="19.311415162121392"><ele>907.0</ele><time>2026-05-03T12:50:54Z</time></trkpt><trkpt lat="48.91471634618241" lon="19.311561451179212"><ele>907.2</ele><time>2026-05-03T12:50:55Z</time></trkpt><trkpt lat="48.91477609158485" lon="19.31169563912601"><ele>907.4000000000001</ele><time>2026-05-03T12:50:56Z</time></trkpt><trkpt lat="48.914818375925684" lon="19.31182386611904"><ele>907.5999999999999</ele><time>2026-05-03T12:50:57Z</time></trkpt><trkpt lat="48.91485023649851" lon="19.311945756227484"><ele>907.8</ele><time>2026-05-03T12:50:58Z</time></trkpt><trkpt lat="48.91489190525385" lon="19.31210463637862"><ele>908.0</ele><time>2026-05-03T12:50:59Z</time></trkpt><trkpt lat="48.91494948669027" lon="19.312226528652783"><ele>908.5000000000001</ele><time>2026-05-03T12:51:00Z</time></trkpt><trkpt lat="48.91500997361983" lon="19.312350421892358"><ele>909.0</ele><time>2026-05-03T12:51:01Z</time></trkpt><trkpt lat="48.91505933794597" lon="19.31245922987769"><ele>909.5</ele><time>2026-05-03T12:51:02Z</time></trkpt><trkpt lat="48.91506830593957" lon="19.31258430488925"><ele>910.0</ele><time>2026-05-03T12:51:03Z</time></trkpt><trkpt lat="48.915094864021" lon="19.312701565229087"><ele>910.5000000000001</ele><time>2026-05-03T12:51:04Z</time></trkpt><trkpt lat="48.915157043895796" lon="19.312794623062477"><ele>911.0</ele><time>2026-05-03T12:51:05Z</time></trkpt><trkpt lat="48.91518507171496" lon="19.312919439434065"><ele>912.4</ele><time>2026-05-03T12:51:06Z</time></trkpt><trkpt lat="48.91520744158821" lon="19.313036058299"><ele>913.8</ele><time>2026-05-03T12:51:07Z</time></trkpt><trkpt lat="48.9152642822896" lon="19.313122585286237"><ele>915.1999999999999</ele><time>2026-05-03T12:51:08Z</time></trkpt><trkpt lat="48.915322684929926" lon="19.313239519381984"><ele>916.5999999999999</ele><time>2026-05-03T12:51:09Z</time></trkpt><trkpt lat="48.91538940406905" lon="19.313356748225978"><ele>918.0</ele><time>2026-05-03T12:51:10Z</time></trkpt><trkpt lat="48.915412627609435" lon="19.31352892599673"><ele>918.0</ele><time>2026-05-03T12:51:11Z</time></trkpt><trkpt lat="48.91546953020529" lon="19.313598172682667"><ele>918.0</ele><time>2026-05-03T12:51:12Z</time></trkpt><trkpt lat="48.915472981140894" lon="19.31377423153466"><ele>918.0</ele><time>2026-05-03T12:51:13Z</time></trkpt><trkpt lat="48.91550664553917" lon="19.313873467818095"><ele>918.0</ele><time>2026-05-03T12:51:14Z</time></trkpt><trkpt lat="48.91553682280831" lon="19.313960030292044"><ele>918.0</ele><time>2026-05-03T12:51:15Z</time></trkpt><trkpt lat="48.91561454874587" lon="19.31408872138011"><ele>918.0</ele><time>2026-05-03T12:51:17Z</time></trkpt><trkpt lat="48.91565988410156" lon="19.314159710456384"><ele>918.6666666666666</ele><time>2026-05-03T12:51:18Z</time></trkpt><trkpt lat="48.91569602846199" lon="19.314325727048953"><ele>919.3333333333333</ele><time>2026-05-03T12:51:20Z</time></trkpt><trkpt lat="48.915722363419185" lon="19.314447840711246"><ele>920.0</ele><time>2026-05-03T12:51:22Z</time></trkpt><trkpt lat="48.91575373140874" lon="19.314532329179738"><ele>920.6666666666666</ele><time>2026-05-03T12:51:28Z</time></trkpt><trkpt lat="48.915743052331706" lon="19.314635251918702"><ele>921.3333333333333</ele><time>2026-05-03T12:52:14Z</time></trkpt><trkpt lat="48.915721411270376" lon="19.314755863102295"><ele>922.0</ele><time>2026-05-03T12:52:17Z</time></trkpt><trkpt lat="48.91574945553643" lon="19.314862324531145"><ele>922.3333333333333</ele><time>2026-05-03T12:52:19Z</time></trkpt><trkpt lat="48.915752550659896" lon="19.314960098021945"><ele>922.6666666666666</ele><time>2026-05-03T12:52:20Z</time></trkpt><trkpt lat="48.91573939951102" lon="19.315145372197208"><ele>923.0</ele><time>2026-05-03T12:52:22Z</time></trkpt><trkpt lat="48.915713277826754" lon="19.315245626668677"><ele>923.3333333333333</ele><time>2026-05-03T12:52:23Z</time></trkpt><trkpt lat="48.915676827593984" lon="19.315327682631903"><ele>923.6666666666666</ele><time>2026-05-03T12:52:24Z</time></trkpt><trkpt lat="48.915620508725866" lon="19.315484327612136"><ele>924.0</ele><time>2026-05-03T12:52:26Z</time></trkpt><trkpt lat="48.91557823813726" lon="19.315567445060918"><ele>925.3333333333334</ele><time>2026-05-03T12:52:27Z</time></trkpt><trkpt lat="48.91549890081956" lon="19.315726007777453"><ele>926.6666666666667</ele><time>2026-05-03T12:52:29Z</time></trkpt><trkpt lat="48.91544964591733" lon="19.315818683653728"><ele>928.0</ele><time>2026-05-03T12:52:30Z</time></trkpt><trkpt lat="48.915407819428545" lon="19.315909651239558"><ele>929.3333333333334</ele><time>2026-05-03T12:52:31Z</time></trkpt><trkpt lat="48.91536379134131" lon="19.316002909151916"><ele>930.6666666666667</ele><time>2026-05-03T12:52:32Z</time></trkpt><trkpt lat="48.91531999227559" lon="19.316110989880208"><ele>932.0</ele><time>2026-05-03T12:52:33Z</time></trkpt><trkpt lat="48.91525918662568" lon="19.31624442588715"><ele>932.0000000000001</ele><time>2026-05-03T12:52:35Z</time></trkpt><trkpt lat="48.91521492450801" lon="19.316347400050514"><ele>932.0</ele><time>2026-05-03T12:52:36Z</time></trkpt><trkpt lat="48.91517126702634" lon="19.316458682453376"><ele>932.0</ele><time>2026-05-03T12:52:37Z</time></trkpt><trkpt lat="48.91514353953703" lon="19.316553777492178"><ele>932.0</ele><time>2026-05-03T12:52:38Z</time></trkpt><trkpt lat="48.9150662144558" lon="19.31666489747839"><ele>932.0000000000001</ele><time>2026-05-03T12:52:40Z</time></trkpt><trkpt lat="48.91502186859753" lon="19.31675820833011"><ele>932.0</ele><time>2026-05-03T12:52:41Z</time></trkpt><trkpt lat="48.914974617475345" lon="19.31684686985867"><ele>934.8</ele><time>2026-05-03T12:52:42Z</time></trkpt><trkpt lat="48.914930016133056" lon="19.316952703875433"><ele>937.6</ele><time>2026-05-03T12:52:43Z</time></trkpt><trkpt lat="48.91488296190851" lon="19.31702461352157"><ele>940.3999999999999</ele><time>2026-05-03T12:52:44Z</time></trkpt><trkpt lat="48.91474845338543" lon="19.31715029383371"><ele>943.1999999999999</ele><time>2026-05-03T12:52:46Z</time></trkpt><trkpt lat="48.91469504068145" lon="19.317218511214847"><ele>946.0</ele><time>2026-05-03T12:52:47Z</time></trkpt><trkpt lat="48.91458277934488" lon="19.31740835600456"><ele>947.6666666666666</ele><time>2026-05-03T12:52:49Z</time></trkpt><trkpt lat="48.914539323782606" lon="19.3174906621053"><ele>949.3333333333333</ele><time>2026-05-03T12:52:50Z</time></trkpt><trkpt lat="48.91449780319149" lon="19.317573004774314"><ele>951.0</ele><time>2026-05-03T12:52:51Z</time></trkpt><trkpt lat="48.91445087241398" lon="19.31766913648116"><ele>952.6666666666667</ele><time>2026-05-03T12:52:52Z</time></trkpt><trkpt lat="48.914400721889315" lon="19.317740379006644"><ele>954.3333333333334</ele><time>2026-05-03T12:52:53Z</time></trkpt><trkpt lat="48.91428099209544" lon="19.317829784779672"><ele>956.0</ele><time>2026-05-03T12:52:55Z</time></trkpt><trkpt lat="48.914214282048356" lon="19.317898846587553"><ele>956.8</ele><time>2026-05-03T12:52:56Z</time></trkpt><trkpt lat="48.914114021092935" lon="19.31796471475795"><ele>957.5999999999999</ele><time>2026-05-03T12:52:57Z</time></trkpt><trkpt lat="48.91402870125695" lon="19.318011327578866"><ele>958.4</ele><time>2026-05-03T12:52:58Z</time></trkpt><trkpt lat="48.91394252630942" lon="19.31805053638983"><ele>959.2</ele><time>2026-05-03T12:52:59Z</time></trkpt><trkpt lat="48.9138608601387" lon="19.318089741337"><ele>960.0</ele><time>2026-05-03T12:53:00Z</time></trkpt><trkpt lat="48.91377582485006" lon="19.31811180507655"><ele>962.1666666666666</ele><time>2026-05-03T12:53:01Z</time></trkpt><trkpt lat="48.913687583859" lon="19.318136179904037"><ele>964.3333333333333</ele><time>2026-05-03T12:53:02Z</time></trkpt><trkpt lat="48.91360972064712" lon="19.318148957799423"><ele>966.5</ele><time>2026-05-03T12:53:03Z</time></trkpt><trkpt lat="48.91353956112024" lon="19.318134804340904"><ele>968.6666666666666</ele><time>2026-05-03T12:53:04Z</time></trkpt><trkpt lat="48.913439091849774" lon="19.318124027346162"><ele>970.8333333333333</ele><time>2026-05-03T12:53:05Z</time></trkpt><trkpt lat="48.9133440224911" lon="19.318126392911786"><ele>973.0</ele><time>2026-05-03T12:53:06Z</time></trkpt><trkpt lat="48.91324894091195" lon="19.318157330731744"><ele>973.5999999999999</ele><time>2026-05-03T12:53:07Z</time></trkpt><trkpt lat="48.91314902114646" lon="19.31817150412912"><ele>974.1999999999999</ele><time>2026-05-03T12:53:08Z</time></trkpt><trkpt lat="48.91304627684259" lon="19.318176893734417"><ele>974.8</ele><time>2026-05-03T12:53:09Z</time></trkpt><trkpt lat="48.912951875578166" lon="19.31819290711358"><ele>975.4</ele><time>2026-05-03T12:53:10Z</time></trkpt><trkpt lat="48.91286746866965" lon="19.31820262868923"><ele>976.0</ele><time>2026-05-03T12:53:11Z</time></trkpt><trkpt lat="48.912786653029514" lon="19.31818653454119"><ele>975.9999999999999</ele><time>2026-05-03T12:53:12Z</time></trkpt><trkpt lat="48.91270309525541" lon="19.31818720124024"><ele>976.0</ele><time>2026-05-03T12:53:13Z</time></trkpt><trkpt lat="48.91261979408905" lon="19.318199724337788"><ele>976.0</ele><time>2026-05-03T12:53:14Z</time></trkpt><trkpt lat="48.91254521330821" lon="19.31817027250996"><ele>976.0</ele><time>2026-05-03T12:53:17Z</time></trkpt><trkpt lat="48.91245656204257" lon="19.318107785845896"><ele>975.9999999999999</ele><time>2026-05-03T12:54:46Z</time></trkpt><trkpt lat="48.91239393298064" lon="19.31814497165076"><ele>976.0</ele><time>2026-05-03T12:54:49Z</time></trkpt><trkpt lat="48.91234300917594" lon="19.318210135461566"><ele>976.9999999999999</ele><time>2026-05-03T12:54:52Z</time></trkpt><trkpt lat="48.91229926255712" lon="19.318297075315233"><ele>978.0</ele><time>2026-05-03T12:54:54Z</time></trkpt><trkpt lat="48.91222547772379" lon="19.318381147197258"><ele>979.0</ele><time>2026-05-03T12:54:58Z</time></trkpt><trkpt lat="48.91216432347336" lon="19.318440470031554"><ele>980.0</ele><time>2026-05-03T12:55:01Z</time></trkpt><trkpt lat="48.912089223855034" lon="19.318490213055505"><ele>980.9999999999999</ele><time>2026-05-03T12:55:04Z</time></trkpt><trkpt lat="48.912026543867825" lon="19.31853212877906"><ele>982.0</ele><time>2026-05-03T12:55:06Z</time></trkpt><trkpt lat="48.911963493209534" lon="19.318595706439023"><ele>982.0</ele><time>2026-05-03T12:55:09Z</time></trkpt><trkpt lat="48.91190343000404" lon="19.318624985545068"><ele>981.9999999999999</ele><time>2026-05-03T12:55:12Z</time></trkpt><trkpt lat="48.91184661285899" lon="19.31868166463319"><ele>982.0</ele><time>2026-05-03T12:55:17Z</time></trkpt><trkpt lat="48.911773219838516" lon="19.31870463643382"><ele>982.0</ele><time>2026-05-03T12:55:19Z</time></trkpt><trkpt lat="48.91170775953559" lon="19.318737664389065"><ele>981.9999999999999</ele><time>2026-05-03T12:55:21Z</time></trkpt><trkpt lat="48.91164113571649" lon="19.3187923875304"><ele>982.0</ele><time>2026-05-03T12:55:23Z</time></trkpt><trkpt lat="48.911585315641844" lon="19.318837823488824"><ele>982.0</ele><time>2026-05-03T12:55:24Z</time></trkpt><trkpt lat="48.91151295907582" lon="19.318860337073936"><ele>984.0</ele><time>2026-05-03T12:55:26Z</time></trkpt><trkpt lat="48.91142831314418" lon="19.31889774136772"><ele>986.0</ele><time>2026-05-03T12:55:28Z</time></trkpt><trkpt lat="48.911330295223735" lon="19.318945869022418"><ele>988.0</ele><time>2026-05-03T12:55:30Z</time></trkpt><trkpt lat="48.91124678888799" lon="19.31901040143555"><ele>990.0</ele><time>2026-05-03T12:55:32Z</time></trkpt><trkpt lat="48.911166455438135" lon="19.31907591287859"><ele>992.0</ele><time>2026-05-03T12:55:34Z</time></trkpt><trkpt lat="48.91107913187543" lon="19.319139730597946"><ele>993.4000000000001</ele><time>2026-05-03T12:55:36Z</time></trkpt><trkpt lat="48.910999900338105" lon="19.31921825338331"><ele>994.8000000000001</ele><time>2026-05-03T12:55:38Z</time></trkpt><trkpt lat="48.91093196492723" lon="19.31930713758222"><ele>996.2</ele><time>2026-05-03T12:55:40Z</time></trkpt><trkpt lat="48.91084778570988" lon="19.319385798884767"><ele>997.6</ele><time>2026-05-03T12:55:42Z</time></trkpt><trkpt lat="48.91076726931658" lon="19.319458527296245"><ele>999.0</ele><time>2026-05-03T12:55:44Z</time></trkpt><trkpt lat="48.91068913300778" lon="19.319536934271316"><ele>1003.0</ele><time>2026-05-03T12:55:46Z</time></trkpt><trkpt lat="48.91063362255869" lon="19.319623509053518"><ele>1007.0000000000001</ele><time>2026-05-03T12:55:48Z</time></trkpt><trkpt lat="48.91058013692444" lon="19.3197487589154"><ele>1011.0000000000001</ele><time>2026-05-03T12:55:50Z</time></trkpt><trkpt lat="48.91053749710526" lon="19.319864913846985"><ele>1015.0</ele><time>2026-05-03T12:55:52Z</time></trkpt><trkpt lat="48.91046029003339" lon="19.319948617345602"><ele>1019.0</ele><time>2026-05-03T12:55:54Z</time></trkpt><trkpt lat="48.91040810817716" lon="19.320065486439972"><ele>1021.8000000000001</ele><time>2026-05-03T12:55:56Z</time></trkpt><trkpt lat="48.91035191737281" lon="19.320165289556485"><ele>1024.6000000000001</ele><time>2026-05-03T12:55:58Z</time></trkpt><trkpt lat="48.910280020254504" lon="19.32027534550032"><ele>1027.4</ele><time>2026-05-03T12:56:00Z</time></trkpt><trkpt lat="48.9102284859059" lon="19.320376002497788"><ele>1030.2</ele><time>2026-05-03T12:56:02Z</time></trkpt><trkpt lat="48.91016260592406" lon="19.32048456472351"><ele>1033.0</ele><time>2026-05-03T12:56:04Z</time></trkpt><trkpt lat="48.910130855379116" lon="19.32062715792338"><ele>1041.2</ele><time>2026-05-03T12:56:06Z</time></trkpt><trkpt lat="48.91006974712844" lon="19.32077607712935"><ele>1049.4</ele><time>2026-05-03T12:56:08Z</time></trkpt><trkpt lat="48.910046631645926" lon="19.320881047159467"><ele>1057.6000000000001</ele><time>2026-05-03T12:56:10Z</time></trkpt><trkpt lat="48.91002753910329" lon="19.321014815795916"><ele>1065.8</ele><time>2026-05-03T12:56:12Z</time></trkpt><trkpt lat="48.90998890786819" lon="19.32119466901168"><ele>1074.0</ele><time>2026-05-03T12:56:14Z</time></trkpt><trkpt lat="48.90994598662366" lon="19.321357536339555"><ele>1076.3333333333333</ele><time>2026-05-03T12:56:16Z</time></trkpt><trkpt lat="48.909898245635596" lon="19.3214580595705"><ele>1078.6666666666667</ele><time>2026-05-03T12:56:18Z</time></trkpt><trkpt lat="48.90984699067048" lon="19.32154839139234"><ele>1081.0</ele><time>2026-05-03T12:56:20Z</time></trkpt><trkpt lat="48.90980907790058" lon="19.321665799775836"><ele>1083.3333333333335</ele><time>2026-05-03T12:56:22Z</time></trkpt><trkpt lat="48.90976678945856" lon="19.321789707816425"><ele>1085.6666666666667</ele><time>2026-05-03T12:56:24Z</time></trkpt><trkpt lat="48.90972702063954" lon="19.3219363249856"><ele>1088.0</ele><time>2026-05-03T12:56:26Z</time></trkpt><trkpt lat="48.9096708348104" lon="19.32207077496794"><ele>1088.0</ele><time>2026-05-03T12:56:28Z</time></trkpt><trkpt lat="48.90962388535408" lon="19.322206479448063"><ele>1088.0</ele><time>2026-05-03T12:56:30Z</time></trkpt><trkpt lat="48.909579721814005" lon="19.322339057102074"><ele>1088.0</ele><time>2026-05-03T12:56:32Z</time></trkpt><trkpt lat="48.90954346373691" lon="19.322477196616774"><ele>1088.0</ele><time>2026-05-03T12:56:34Z</time></trkpt><trkpt lat="48.90950473196175" lon="19.322611853923615"><ele>1088.0</ele><time>2026-05-03T12:56:36Z</time></trkpt><trkpt lat="48.90947241484306" lon="19.32275631072314"><ele>1089.8</ele><time>2026-05-03T12:56:38Z</time></trkpt><trkpt lat="48.909415656112095" lon="19.322918728006446"><ele>1091.6</ele><time>2026-05-03T12:56:40Z</time></trkpt><trkpt lat="48.90938779119584" lon="19.32301566424576"><ele>1093.4</ele><time>2026-05-03T12:56:42Z</time></trkpt><trkpt lat="48.909362163671986" lon="19.323125741805658"><ele>1095.2</ele><time>2026-05-03T12:56:44Z</time></trkpt><trkpt lat="48.90930653378096" lon="19.323259082253703"><ele>1097.0</ele><time>2026-05-03T12:56:46Z</time></trkpt><trkpt lat="48.909272640729476" lon="19.32340124124984"><ele>1104.6</ele><time>2026-05-03T12:56:48Z</time></trkpt><trkpt lat="48.909223974964455" lon="19.323533996420878"><ele>1112.2</ele><time>2026-05-03T12:56:50Z</time></trkpt><trkpt lat="48.90916614497707" lon="19.32366916703087"><ele>1119.8</ele><time>2026-05-03T12:56:52Z</time></trkpt><trkpt lat="48.90908344516954" lon="19.32385771951448"><ele>1127.4</ele><time>2026-05-03T12:56:54Z</time></trkpt><trkpt lat="48.90903787099481" lon="19.323924422439585"><ele>1135.0</ele><time>2026-05-03T12:56:55Z</time></trkpt><trkpt lat="48.90897181100131" lon="19.324029080305454"><ele>1136.8</ele><time>2026-05-03T12:56:57Z</time></trkpt><trkpt lat="48.908900436150326" lon="19.324138619545288"><ele>1138.6</ele><time>2026-05-03T12:56:59Z</time></trkpt><trkpt lat="48.908828422564426" lon="19.324183328563613"><ele>1140.4</ele><time>2026-05-03T12:57:01Z</time></trkpt><trkpt lat="48.908742294345636" lon="19.32415598140985"><ele>1142.2</ele><time>2026-05-03T12:57:03Z</time></trkpt><trkpt lat="48.908643782333044" lon="19.32406321362371"><ele>1144.0</ele><time>2026-05-03T12:57:05Z</time></trkpt><trkpt lat="48.908578409775" lon="19.32404017899374"><ele>1144.0</ele><time>2026-05-03T12:57:07Z</time></trkpt><trkpt lat="48.90847416051054" lon="19.323988269365113"><ele>1144.0</ele><time>2026-05-03T12:57:09Z</time></trkpt><trkpt lat="48.908397590566544" lon="19.323904309958813"><ele>1144.0</ele><time>2026-05-03T12:57:11Z</time></trkpt><trkpt lat="48.908319523560436" lon="19.32386568573066"><ele>1144.0</ele><time>2026-05-03T12:57:14Z</time></trkpt><trkpt lat="48.90824543796917" lon="19.323903012758617"><ele>1144.0</ele><time>2026-05-03T12:57:16Z</time></trkpt><trkpt lat="48.90814173325817" lon="19.32391615289585"><ele>1149.0</ele><time>2026-05-03T12:57:18Z</time></trkpt><trkpt lat="48.90803675650411" lon="19.323942990259937"><ele>1154.0</ele><time>2026-05-03T12:57:22Z</time></trkpt><trkpt lat="48.90795051838739" lon="19.323952708726605"><ele>1159.0</ele><time>2026-05-03T12:57:24Z</time></trkpt><trkpt lat="48.90788236919873" lon="19.323944359436876"><ele>1164.0</ele><time>2026-05-03T12:57:26Z</time></trkpt><trkpt lat="48.907803409126444" lon="19.32395244346759"><ele>1169.0</ele><time>2026-05-03T12:57:29Z</time></trkpt><trkpt lat="48.907739831247866" lon="19.323991729726785"><ele>1174.0</ele><time>2026-05-03T12:57:32Z</time></trkpt><trkpt lat="48.907683644724735" lon="19.3240353103855"><ele>1174.0</ele><time>2026-05-03T13:00:42Z</time></trkpt><trkpt lat="48.90765449020588" lon="19.32412511816289"><ele>1174.0</ele><time>2026-05-03T13:10:18Z</time></trkpt><trkpt lat="48.90759967415863" lon="19.324173677446858"><ele>1174.0</ele><time>2026-05-03T13:11:18Z</time></trkpt><trkpt lat="48.90755719464174" lon="19.324248942966666"><ele>1174.0</ele><time>2026-05-03T13:12:06Z</time></trkpt><trkpt lat="48.907515294341536" lon="19.324336567596163"><ele>1174.0</ele><time>2026-05-03T13:12:29Z</time></trkpt><trkpt lat="48.90747380908314" lon="19.324408869106254"><ele>1174.0</ele><time>2026-05-03T13:13:31Z</time></trkpt><trkpt lat="48.90743942080022" lon="19.324501964186812"><ele>1174.0</ele><time>2026-05-03T13:15:41Z</time></trkpt><trkpt lat="48.907416390677945" lon="19.32459620284422"><ele>1177.3333333333333</ele><time>2026-05-03T13:15:48Z</time></trkpt><trkpt lat="48.907385454186844" lon="19.324682965165866"><ele>1180.6666666666665</ele><time>2026-05-03T13:15:57Z</time></trkpt><trkpt lat="48.90732035026825" lon="19.32479240644057"><ele>1184.0</ele><time>2026-05-03T13:17:00Z</time></trkpt><trkpt lat="48.90726920031368" lon="19.324876858893386"><ele>1187.3333333333333</ele><time>2026-05-03T13:17:02Z</time></trkpt><trkpt lat="48.90720698619744" lon="19.32496210170668"><ele>1190.6666666666667</ele><time>2026-05-03T13:17:05Z</time></trkpt><trkpt lat="48.90716777966527" lon="19.32504061404791"><ele>1194.0</ele><time>2026-05-03T13:17:07Z</time></trkpt><trkpt lat="48.90711404959161" lon="19.3251360889804"><ele>1196.3333333333333</ele><time>2026-05-03T13:17:10Z</time></trkpt><trkpt lat="48.90707145523971" lon="19.32524367362248"><ele>1198.6666666666667</ele><time>2026-05-03T13:17:13Z</time></trkpt><trkpt lat="48.907054195241905" lon="19.325347409895475"><ele>1201.0</ele><time>2026-05-03T13:17:16Z</time></trkpt><trkpt lat="48.90700822500057" lon="19.325422877766524"><ele>1203.3333333333335</ele><time>2026-05-03T13:17:19Z</time></trkpt><trkpt lat="48.90698278604035" lon="19.32555486987472"><ele>1205.6666666666667</ele><time>2026-05-03T13:17:29Z</time></trkpt><trkpt lat="48.906966304091746" lon="19.325692979076116"><ele>1208.0</ele><time>2026-05-03T13:17:32Z</time></trkpt><trkpt lat="48.90695139268952" lon="19.325818654091872"><ele>1209.3333333333335</ele><time>2026-05-03T13:17:34Z</time></trkpt><trkpt lat="48.90692144987561" lon="19.325956266808074"><ele>1210.6666666666667</ele><time>2026-05-03T13:17:36Z</time></trkpt><trkpt lat="48.90690823987187" lon="19.326073617862004"><ele>1212.0</ele><time>2026-05-03T13:17:38Z</time></trkpt><trkpt lat="48.906895145589964" lon="19.32619197425978"><ele>1213.3333333333333</ele><time>2026-05-03T13:17:41Z</time></trkpt><trkpt lat="48.90682340287676" lon="19.326285890020472"><ele>1214.6666666666665</ele><time>2026-05-03T13:17:45Z</time></trkpt><trkpt lat="48.90673603618006" lon="19.326351557807218"><ele>1216.0</ele><time>2026-05-03T13:17:47Z</time></trkpt><trkpt lat="48.90664447566697" lon="19.326389719187254"><ele>1218.2857142857142</ele><time>2026-05-03T13:17:50Z</time></trkpt><trkpt lat="48.9065874600824" lon="19.326432523092766"><ele>1220.5714285714287</ele><time>2026-05-03T13:17:52Z</time></trkpt><trkpt lat="48.90652823523491" lon="19.32647925827163"><ele>1222.857142857143</ele><time>2026-05-03T13:17:54Z</time></trkpt><trkpt lat="48.9064663842193" lon="19.326525949663445"><ele>1225.142857142857</ele><time>2026-05-03T13:17:56Z</time></trkpt><trkpt lat="48.90637469369311" lon="19.32660478210367"><ele>1227.4285714285716</ele><time>2026-05-03T13:17:59Z</time></trkpt><trkpt lat="48.906325025056965" lon="19.32666606432829"><ele>1229.7142857142858</ele><time>2026-05-03T13:18:01Z</time></trkpt><trkpt lat="48.90631483327035" lon="19.326772603400784"><ele>1232.0</ele><time>2026-05-03T13:18:07Z</time></trkpt><trkpt lat="48.9063874186832" lon="19.326760479828327"><ele>1232.0</ele><time>2026-05-03T13:19:33Z</time></trkpt><trkpt lat="48.906346073788264" lon="19.326841608797785"><ele>1232.0</ele><time>2026-05-03T13:19:48Z</time></trkpt><trkpt lat="48.90636105573484" lon="19.32674687559929"><ele>1232.0</ele><time>2026-05-03T13:27:31.001Z</time></trkpt><trkpt lat="48.90643167345176" lon="19.32659109600668"><ele>1232.0</ele><time>2026-05-03T13:28:50Z</time></trkpt><trkpt lat="48.90638770684963" lon="19.326684419028844"><ele>1232.0</ele><time>2026-05-03T13:28:56Z</time></trkpt><trkpt lat="48.906358304777314" lon="19.32682615552386"><ele>1232.0</ele><time>2026-05-03T13:29:22Z</time></trkpt><trkpt lat="48.90637044673009" lon="19.326730887963222"><ele>1232.0</ele><time>2026-05-03T13:34:05Z</time></trkpt><trkpt lat="48.906447628974306" lon="19.32675502175175"><ele>1232.0</ele><time>2026-05-03T13:38:27.001Z</time></trkpt><trkpt lat="48.90653515407412" lon="19.326768718931337"><ele>1232.0</ele><time>2026-05-03T13:38:29.001Z</time></trkpt><trkpt lat="48.90663773190046" lon="19.326787655351662"><ele>1232.0</ele><time>2026-05-03T13:38:31.001Z</time></trkpt><trkpt lat="48.906742326428066" lon="19.326795481782096"><ele>1232.0</ele><time>2026-05-03T13:38:33.001Z</time></trkpt><trkpt lat="48.90685677957879" lon="19.32680705689611"><ele>1229.4</ele><time>2026-05-03T13:38:35.001Z</time></trkpt><trkpt lat="48.906977676388664" lon="19.326843081833335"><ele>1226.8000000000002</ele><time>2026-05-03T13:38:37.001Z</time></trkpt><trkpt lat="48.90707511298959" lon="19.32688564949823"><ele>1224.2</ele><time>2026-05-03T13:38:39.001Z</time></trkpt><trkpt lat="48.90715580383174" lon="19.326924393012042"><ele>1221.6000000000001</ele><time>2026-05-03T13:38:41.001Z</time></trkpt><trkpt lat="48.90725060027359" lon="19.326952881394483"><ele>1219.0</ele><time>2026-05-03T13:38:43.001Z</time></trkpt><trkpt lat="48.90732903703815" lon="19.326974626467337"><ele>1219.0</ele><time>2026-05-03T13:38:45.001Z</time></trkpt><trkpt lat="48.90740833608751" lon="19.326991172617216"><ele>1219.0</ele><time>2026-05-03T13:38:47.001Z</time></trkpt><trkpt lat="48.90748045261718" lon="19.32700971434819"><ele>1219.0</ele><time>2026-05-03T13:38:49.001Z</time></trkpt><trkpt lat="48.90756550128329" lon="19.32706187616395"><ele>1219.0</ele><time>2026-05-03T13:38:52.001Z</time></trkpt><trkpt lat="48.90764538668713" lon="19.32709467853442"><ele>1219.0</ele><time>2026-05-03T13:38:56.001Z</time></trkpt><trkpt lat="48.90772105213843" lon="19.327143563865107"><ele>1219.0</ele><time>2026-05-03T13:38:59Z</time></trkpt><trkpt lat="48.90779139644565" lon="19.327181807328575"><ele>1215.4285714285716</ele><time>2026-05-03T13:39:02Z</time></trkpt><trkpt lat="48.90785934112034" lon="19.327223430018005"><ele>1211.857142857143</ele><time>2026-05-03T13:39:05Z</time></trkpt><trkpt lat="48.907917074577384" lon="19.327268753842034"><ele>1208.2857142857142</ele><time>2026-05-03T13:39:07Z</time></trkpt><trkpt lat="48.90799443265019" lon="19.327319836075404"><ele>1204.7142857142858</ele><time>2026-05-03T13:39:10Z</time></trkpt><trkpt lat="48.90806810301442" lon="19.327388170041928"><ele>1201.142857142857</ele><time>2026-05-03T13:39:14Z</time></trkpt><trkpt lat="48.90814001549335" lon="19.327418343124737"><ele>1197.5714285714287</ele><time>2026-05-03T13:39:16Z</time></trkpt><trkpt lat="48.90820234874199" lon="19.327451728676884"><ele>1194.0</ele><time>2026-05-03T13:39:19Z</time></trkpt><trkpt lat="48.908269544915264" lon="19.32746131190075"><ele>1193.8333333333333</ele><time>2026-05-03T13:39:22Z</time></trkpt><trkpt lat="48.90833624309579" lon="19.327523763228886"><ele>1193.6666666666667</ele><time>2026-05-03T13:39:25Z</time></trkpt><trkpt lat="48.90839742328695" lon="19.327587101378054"><ele>1193.5</ele><time>2026-05-03T13:39:28Z</time></trkpt><trkpt lat="48.908442807104855" lon="19.32767747164359"><ele>1193.3333333333335</ele><time>2026-05-03T13:39:31Z</time></trkpt><trkpt lat="48.908509632128414" lon="19.327744815101664"><ele>1193.1666666666667</ele><time>2026-05-03T13:39:35Z</time></trkpt><trkpt lat="48.90858552282697" lon="19.327777505925816"><ele>1193.0</ele><time>2026-05-03T13:39:38Z</time></trkpt><trkpt lat="48.9086592130973" lon="19.32779007189924"><ele>1188.3333333333335</ele><time>2026-05-03T13:39:41Z</time></trkpt><trkpt lat="48.90872565960375" lon="19.32776580389846"><ele>1183.6666666666667</ele><time>2026-05-03T13:39:46Z</time></trkpt><trkpt lat="48.908801402909795" lon="19.327737435540456"><ele>1179.0</ele><time>2026-05-03T13:39:50Z</time></trkpt><trkpt lat="48.90886865724965" lon="19.327755803807708"><ele>1174.3333333333333</ele><time>2026-05-03T13:39:54Z</time></trkpt><trkpt lat="48.90893956013042" lon="19.32775789449269"><ele>1169.6666666666665</ele><time>2026-05-03T13:39:58.001Z</time></trkpt><trkpt lat="48.90903623843135" lon="19.327751351591658"><ele>1165.0</ele><time>2026-05-03T13:40:02.001Z</time></trkpt><trkpt lat="48.90911135388058" lon="19.327710965856955"><ele>1165.0</ele><time>2026-05-03T13:40:05.001Z</time></trkpt><trkpt lat="48.90919810507206" lon="19.327666533829195"><ele>1165.0</ele><time>2026-05-03T13:40:08.001Z</time></trkpt><trkpt lat="48.909287988670755" lon="19.32762691575188"><ele>1165.0</ele><time>2026-05-03T13:40:11.001Z</time></trkpt><trkpt lat="48.90936349111278" lon="19.327608219799693"><ele>1165.0</ele><time>2026-05-03T13:40:14.001Z</time></trkpt><trkpt lat="48.909441910755575" lon="19.327605014355214"><ele>1165.0</ele><time>2026-05-03T13:40:20.001Z</time></trkpt><trkpt lat="48.90950772487956" lon="19.327593424422062"><ele>1165.0</ele><time>2026-05-03T13:40:22.001Z</time></trkpt><trkpt lat="48.90960731365562" lon="19.327598182559058"><ele>1161.8333333333333</ele><time>2026-05-03T13:40:25.001Z</time></trkpt><trkpt lat="48.9096962094759" lon="19.327606455319078"><ele>1158.6666666666665</ele><time>2026-05-03T13:40:27.001Z</time></trkpt><trkpt lat="48.9097653589983" lon="19.327625149891958"><ele>1155.5</ele><time>2026-05-03T13:40:29.001Z</time></trkpt><trkpt lat="48.90983851268448" lon="19.327624862323898"><ele>1152.3333333333333</ele><time>2026-05-03T13:40:32.001Z</time></trkpt><trkpt lat="48.90995016264496" lon="19.327594647500916"><ele>1149.1666666666667</ele><time>2026-05-03T13:40:35.001Z</time></trkpt><trkpt lat="48.91004769716246" lon="19.32759620480953"><ele>1146.0</ele><time>2026-05-03T13:40:38.001Z</time></trkpt><trkpt lat="48.910163062617194" lon="19.327562114721704"><ele>1143.0</ele><time>2026-05-03T13:40:41.001Z</time></trkpt><trkpt lat="48.91023706948518" lon="19.32755372805757"><ele>1140.0</ele><time>2026-05-03T13:40:43.001Z</time></trkpt><trkpt lat="48.91033009056183" lon="19.32752005856146"><ele>1137.0</ele><time>2026-05-03T13:40:45.001Z</time></trkpt><trkpt lat="48.910393966338546" lon="19.32751471466053"><ele>1134.0</ele><time>2026-05-03T13:40:47.001Z</time></trkpt><trkpt lat="48.91047179231728" lon="19.327495427853123"><ele>1131.0</ele><time>2026-05-03T13:40:49.001Z</time></trkpt><trkpt lat="48.910534209535555" lon="19.32746319831766"><ele>1128.0</ele><time>2026-05-03T13:40:52.001Z</time></trkpt><trkpt lat="48.91060281874882" lon="19.327428177519753"><ele>1128.0</ele><time>2026-05-03T13:40:55.001Z</time></trkpt><trkpt lat="48.91062736450899" lon="19.327527693501803"><ele>1128.0</ele><time>2026-05-03T13:41:07Z</time></trkpt><trkpt lat="48.91061983332407" lon="19.327645494151398"><ele>1128.0</ele><time>2026-05-03T13:41:20Z</time></trkpt><trkpt lat="48.91054667464445" lon="19.327632240861004"><ele>1128.0</ele><time>2026-05-03T13:41:32Z</time></trkpt><trkpt lat="48.91048012631057" lon="19.327624041172097"><ele>1128.0</ele><time>2026-05-03T13:41:38Z</time></trkpt><trkpt lat="48.91045462662063" lon="19.327739802814296"><ele>1128.0</ele><time>2026-05-03T13:41:46Z</time></trkpt><trkpt lat="48.91042786770517" lon="19.32785710169066"><ele>1128.0</ele><time>2026-05-03T13:41:49Z</time></trkpt><trkpt lat="48.91039546838021" lon="19.32795272608852"><ele>1128.0</ele><time>2026-05-03T13:41:52Z</time></trkpt><trkpt lat="48.91039102795481" lon="19.328063560798846"><ele>1128.0</ele><time>2026-05-03T13:41:55Z</time></trkpt><trkpt lat="48.91037822956212" lon="19.328192540206807"><ele>1128.0</ele><time>2026-05-03T13:42:01Z</time></trkpt><trkpt lat="48.91031774139854" lon="19.3282565202227"><ele>1128.0</ele><time>2026-05-03T13:42:03Z</time></trkpt><trkpt lat="48.91026169067749" lon="19.32835668485145"><ele>1128.0</ele><time>2026-05-03T13:42:06Z</time></trkpt><trkpt lat="48.910204646692655" lon="19.32844522307606"><ele>1128.0</ele><time>2026-05-03T13:42:09Z</time></trkpt><trkpt lat="48.910147991746996" lon="19.328510759885145"><ele>1128.0</ele><time>2026-05-03T13:42:11Z</time></trkpt><trkpt lat="48.91009832512945" lon="19.328571181712665"><ele>1128.0</ele><time>2026-05-03T13:42:13Z</time></trkpt><trkpt lat="48.910038860543054" lon="19.32866524272824"><ele>1128.0</ele><time>2026-05-03T13:42:15Z</time></trkpt><trkpt lat="48.90997553342991" lon="19.328759737690206"><ele>1128.0</ele><time>2026-05-03T13:42:17Z</time></trkpt><trkpt lat="48.90992359325383" lon="19.32885186101532"><ele>1128.0</ele><time>2026-05-03T13:42:19Z</time></trkpt><trkpt lat="48.909858898451716" lon="19.328930310253206"><ele>1128.0</ele><time>2026-05-03T13:42:22Z</time></trkpt><trkpt lat="48.909798431239196" lon="19.329013415530927"><ele>1128.0</ele><time>2026-05-03T13:42:25Z</time></trkpt><trkpt lat="48.90974400199829" lon="19.329084739204077"><ele>1128.0</ele><time>2026-05-03T13:42:27Z</time></trkpt><trkpt lat="48.90967533453249" lon="19.32912304665914"><ele>1128.0</ele><time>2026-05-03T13:42:29Z</time></trkpt><trkpt lat="48.90959022349287" lon="19.329152893974243"><ele>1128.0</ele><time>2026-05-03T13:42:31Z</time></trkpt><trkpt lat="48.909493191669895" lon="19.329180387573757"><ele>1128.0</ele><time>2026-05-03T13:42:33Z</time></trkpt><trkpt lat="48.909415586270995" lon="19.32917848053139"><ele>1128.0</ele><time>2026-05-03T13:42:35Z</time></trkpt><trkpt lat="48.909347663683555" lon="19.32919818698837"><ele>1128.0</ele><time>2026-05-03T13:42:37Z</time></trkpt><trkpt lat="48.9092663243803" lon="19.329201787141205"><ele>1128.0</ele><time>2026-05-03T13:42:39Z</time></trkpt><trkpt lat="48.90919139429158" lon="19.32921714990341"><ele>1128.0</ele><time>2026-05-03T13:42:40.001Z</time></trkpt><trkpt lat="48.909111477360426" lon="19.329231195092376"><ele>1128.0</ele><time>2026-05-03T13:42:42.001Z</time></trkpt><trkpt lat="48.909047550451696" lon="19.329297425512564"><ele>1128.0</ele><time>2026-05-03T13:42:44.001Z</time></trkpt><trkpt lat="48.90896489503009" lon="19.329405107500865"><ele>1130.3333333333333</ele><time>2026-05-03T13:42:46.001Z</time></trkpt><trkpt lat="48.908891542963296" lon="19.32950283756399"><ele>1132.6666666666667</ele><time>2026-05-03T13:42:48.001Z</time></trkpt><trkpt lat="48.908821552786165" lon="19.329575498476245"><ele>1135.0</ele><time>2026-05-03T13:42:50.001Z</time></trkpt><trkpt lat="48.908750022110645" lon="19.32963410629164"><ele>1137.3333333333335</ele><time>2026-05-03T13:42:52.001Z</time></trkpt><trkpt lat="48.908683649188184" lon="19.329704855783426"><ele>1139.6666666666667</ele><time>2026-05-03T13:42:54.001Z</time></trkpt><trkpt lat="48.90860916839913" lon="19.329791437017914"><ele>1142.0</ele><time>2026-05-03T13:42:56.001Z</time></trkpt><trkpt lat="48.90854268374693" lon="19.32985869249123"><ele>1141.3333333333335</ele><time>2026-05-03T13:42:58.001Z</time></trkpt><trkpt lat="48.90846678518333" lon="19.329940374984304"><ele>1140.6666666666667</ele><time>2026-05-03T13:43:00Z</time></trkpt><trkpt lat="48.9084060025518" lon="19.329999930537518"><ele>1140.0</ele><time>2026-05-03T13:43:02Z</time></trkpt><trkpt lat="48.90834271488727" lon="19.33003350444222"><ele>1139.3333333333333</ele><time>2026-05-03T13:43:04Z</time></trkpt><trkpt lat="48.90826975393404" lon="19.3301056935832"><ele>1138.6666666666665</ele><time>2026-05-03T13:43:07Z</time></trkpt><trkpt lat="48.908223582985464" lon="19.33017386211421"><ele>1138.0</ele><time>2026-05-03T13:43:10Z</time></trkpt><trkpt lat="48.908155540535404" lon="19.330270988112684"><ele>1138.0</ele><time>2026-05-03T13:43:13Z</time></trkpt><trkpt lat="48.90808717474576" lon="19.330361398321294"><ele>1138.0</ele><time>2026-05-03T13:43:17Z</time></trkpt><trkpt lat="48.90803386887714" lon="19.330422190648473"><ele>1138.0</ele><time>2026-05-03T13:43:19Z</time></trkpt><trkpt lat="48.907990333282804" lon="19.330501655360237"><ele>1138.0</ele><time>2026-05-03T13:43:21Z</time></trkpt><trkpt lat="48.907924082072356" lon="19.330566830388335"><ele>1138.0</ele><time>2026-05-03T13:43:23Z</time></trkpt><trkpt lat="48.90787350240874" lon="19.33064358294566"><ele>1138.0</ele><time>2026-05-03T13:43:26Z</time></trkpt><trkpt lat="48.907798764229426" lon="19.330714108663884"><ele>1135.6666666666665</ele><time>2026-05-03T13:43:28Z</time></trkpt><trkpt lat="48.9077342288509" lon="19.330785640791312"><ele>1133.3333333333333</ele><time>2026-05-03T13:43:30Z</time></trkpt><trkpt lat="48.907662074925824" lon="19.33080410220058"><ele>1131.0</ele><time>2026-05-03T13:43:32Z</time></trkpt><trkpt lat="48.90759625010571" lon="19.330839832883196"><ele>1128.6666666666667</ele><time>2026-05-03T13:43:34Z</time></trkpt><trkpt lat="48.90752394221069" lon="19.330854646017123"><ele>1126.3333333333335</ele><time>2026-05-03T13:43:36Z</time></trkpt><trkpt lat="48.90744652914024" lon="19.330897941006263"><ele>1124.0</ele><time>2026-05-03T13:43:38Z</time></trkpt><trkpt lat="48.907367226882116" lon="19.330931938986915"><ele>1124.0</ele><time>2026-05-03T13:43:42Z</time></trkpt><trkpt lat="48.90727834406167" lon="19.330964919637882"><ele>1124.0</ele><time>2026-05-03T13:43:45Z</time></trkpt><trkpt lat="48.90721214155007" lon="19.330982723571633"><ele>1124.0</ele><time>2026-05-03T13:43:47Z</time></trkpt><trkpt lat="48.90710334669227" lon="19.33102830166296"><ele>1124.0</ele><time>2026-05-03T13:43:49Z</time></trkpt><trkpt lat="48.90701374356176" lon="19.331113518118812"><ele>1124.0</ele><time>2026-05-03T13:43:51Z</time></trkpt><trkpt lat="48.90694805403" lon="19.33114742316647"><ele>1124.0</ele><time>2026-05-03T13:43:55Z</time></trkpt><trkpt lat="48.90686887856" lon="19.331167736634807"><ele>1124.0</ele><time>2026-05-03T13:44:03Z</time></trkpt><trkpt lat="48.90685484884851" lon="19.331323758754003"><ele>1124.0</ele><time>2026-05-03T13:44:06Z</time></trkpt><trkpt lat="48.90686564762582" lon="19.33143602989439"><ele>1124.0</ele><time>2026-05-03T13:44:08Z</time></trkpt><trkpt lat="48.90689134045062" lon="19.331544271794385"><ele>1124.0</ele><time>2026-05-03T13:44:12Z</time></trkpt><trkpt lat="48.906971351578306" lon="19.331531719868785"><ele>1124.0</ele><time>2026-05-03T13:44:35Z</time></trkpt><trkpt lat="48.907046772690784" lon="19.33155132895006"><ele>1124.0</ele><time>2026-05-03T13:44:43Z</time></trkpt><trkpt lat="48.907125166498005" lon="19.33154138570155"><ele>1122.8333333333335</ele><time>2026-05-03T13:44:46.001Z</time></trkpt><trkpt lat="48.907208014257876" lon="19.331541063704787"><ele>1121.6666666666667</ele><time>2026-05-03T13:44:52Z</time></trkpt><trkpt lat="48.90728576112601" lon="19.331517847292957"><ele>1120.5</ele><time>2026-05-03T13:44:55Z</time></trkpt><trkpt lat="48.90734455213104" lon="19.331447756061884"><ele>1119.3333333333333</ele><time>2026-05-03T13:44:58Z</time></trkpt><trkpt lat="48.90742264938272" lon="19.331415696513954"><ele>1118.1666666666665</ele><time>2026-05-03T13:45:01Z</time></trkpt><trkpt lat="48.90749411537575" lon="19.331399249480132"><ele>1117.0</ele><time>2026-05-03T13:45:04Z</time></trkpt><trkpt lat="48.907579258611584" lon="19.331423119983526"><ele>1113.6666666666665</ele><time>2026-05-03T13:45:07Z</time></trkpt><trkpt lat="48.9076643233794" lon="19.33141773837622"><ele>1110.3333333333333</ele><time>2026-05-03T13:45:10Z</time></trkpt><trkpt lat="48.90775554431383" lon="19.331425830111534"><ele>1107.0</ele><time>2026-05-03T13:45:13Z</time></trkpt><trkpt lat="48.907830244221664" lon="19.33143717123296"><ele>1103.6666666666667</ele><time>2026-05-03T13:45:15Z</time></trkpt><trkpt lat="48.90790495000232" lon="19.3314749612806"><ele>1100.3333333333335</ele><time>2026-05-03T13:45:17Z</time></trkpt><trkpt lat="48.907993614990964" lon="19.331517598796186"><ele>1097.0</ele><time>2026-05-03T13:45:19Z</time></trkpt><trkpt lat="48.908061276762595" lon="19.331535850420998"><ele>1097.0</ele><time>2026-05-03T13:45:21Z</time></trkpt><trkpt lat="48.90812507592698" lon="19.33155079068344"><ele>1097.0</ele><time>2026-05-03T13:45:23Z</time></trkpt><trkpt lat="48.908190311577776" lon="19.331539270548227"><ele>1097.0</ele><time>2026-05-03T13:45:26Z</time></trkpt><trkpt lat="48.908264796394995" lon="19.33156848266936"><ele>1097.0</ele><time>2026-05-03T13:45:29Z</time></trkpt><trkpt lat="48.90834176326436" lon="19.331608171391355"><ele>1097.0</ele><time>2026-05-03T13:45:32Z</time></trkpt><trkpt lat="48.908419995888444" lon="19.331622793529267"><ele>1097.0</ele><time>2026-05-03T13:45:34Z</time></trkpt><trkpt lat="48.90850467885733" lon="19.331634219507"><ele>1094.2857142857142</ele><time>2026-05-03T13:45:36Z</time></trkpt><trkpt lat="48.90856976033457" lon="19.331636626278634"><ele>1091.5714285714287</ele><time>2026-05-03T13:45:38Z</time></trkpt><trkpt lat="48.908655982242024" lon="19.331623083207766"><ele>1088.857142857143</ele><time>2026-05-03T13:45:41Z</time></trkpt><trkpt lat="48.9087358517427" lon="19.33164245671342"><ele>1086.142857142857</ele><time>2026-05-03T13:45:43Z</time></trkpt><trkpt lat="48.908802205803106" lon="19.331636656644125"><ele>1083.4285714285716</ele><time>2026-05-03T13:45:46Z</time></trkpt><trkpt lat="48.90886792768328" lon="19.331607140006003"><ele>1080.7142857142858</ele><time>2026-05-03T13:45:51Z</time></trkpt><trkpt lat="48.90893820583031" lon="19.33159121294285"><ele>1078.0</ele><time>2026-05-03T13:45:55Z</time></trkpt><trkpt lat="48.90900955825379" lon="19.331543882623926"><ele>1078.0</ele><time>2026-05-03T13:45:59Z</time></trkpt><trkpt lat="48.90907544839396" lon="19.331539348945693"><ele>1078.0</ele><time>2026-05-03T13:46:21Z</time></trkpt><trkpt lat="48.909146050112376" lon="19.331494390100858"><ele>1078.0</ele><time>2026-05-03T13:46:35Z</time></trkpt><trkpt lat="48.909225281190274" lon="19.33143662876141"><ele>1078.0</ele><time>2026-05-03T13:46:39Z</time></trkpt><trkpt lat="48.90928796320166" lon="19.331459798511077"><ele>1078.0</ele><time>2026-05-03T13:46:42Z</time></trkpt><trkpt lat="48.90934430521043" lon="19.33136565495442"><ele>1078.0</ele><time>2026-05-03T13:46:45Z</time></trkpt><trkpt lat="48.909422406228394" lon="19.331321276918057"><ele>1077.1666666666665</ele><time>2026-05-03T13:46:48Z</time></trkpt><trkpt lat="48.909503273781695" lon="19.331292871847122"><ele>1076.3333333333333</ele><time>2026-05-03T13:46:51Z</time></trkpt><trkpt lat="48.909594156504745" lon="19.33127483405327"><ele>1075.5</ele><time>2026-05-03T13:46:55Z</time></trkpt><trkpt lat="48.90966620407226" lon="19.331262712539772"><ele>1074.6666666666667</ele><time>2026-05-03T13:46:58Z</time></trkpt><trkpt lat="48.909756060732796" lon="19.331232959032356"><ele>1073.8333333333335</ele><time>2026-05-03T13:47:02Z</time></trkpt><trkpt lat="48.909832829321395" lon="19.33119807024159"><ele>1073.0</ele><time>2026-05-03T13:47:05Z</time></trkpt><trkpt lat="48.909923579479205" lon="19.331173532320562"><ele>1073.0</ele><time>2026-05-03T13:47:08Z</time></trkpt><trkpt lat="48.909993363518566" lon="19.331192431178646"><ele>1073.0</ele><time>2026-05-03T13:47:11Z</time></trkpt><trkpt lat="48.9100585435727" lon="19.331211160693037"><ele>1073.0</ele><time>2026-05-03T13:47:13Z</time></trkpt><trkpt lat="48.91013551112162" lon="19.331205288638127"><ele>1073.0</ele><time>2026-05-03T13:47:16Z</time></trkpt><trkpt lat="48.91020968098497" lon="19.33117938466141"><ele>1073.0</ele><time>2026-05-03T13:47:19Z</time></trkpt><trkpt lat="48.91028394907677" lon="19.331149109617467"><ele>1073.0</ele><time>2026-05-03T13:47:23Z</time></trkpt><trkpt lat="48.91036079984738" lon="19.33116894988724"><ele>1073.0</ele><time>2026-05-03T13:47:26Z</time></trkpt><trkpt lat="48.91044540544714" lon="19.33115140635045"><ele>1070.3333333333335</ele><time>2026-05-03T13:47:28Z</time></trkpt><trkpt lat="48.91052458988152" lon="19.331161137475615"><ele>1067.6666666666667</ele><time>2026-05-03T13:47:31Z</time></trkpt><trkpt lat="48.91060338927819" lon="19.33111480524691"><ele>1065.0</ele><time>2026-05-03T13:47:33Z</time></trkpt><trkpt lat="48.91069796895513" lon="19.331099438152535"><ele>1062.3333333333333</ele><time>2026-05-03T13:47:36Z</time></trkpt><trkpt lat="48.91076971526743" lon="19.331049216409024"><ele>1059.6666666666665</ele><time>2026-05-03T13:47:39Z</time></trkpt><trkpt lat="48.9108412919063" lon="19.331032374100594"><ele>1057.0</ele><time>2026-05-03T13:47:42Z</time></trkpt><trkpt lat="48.91093131730579" lon="19.33099449855048"><ele>1054.0</ele><time>2026-05-03T13:47:46Z</time></trkpt><trkpt lat="48.91103885750997" lon="19.331037042774796"><ele>1051.0</ele><time>2026-05-03T13:47:48Z</time></trkpt><trkpt lat="48.91114831841713" lon="19.33098748906383"><ele>1048.0</ele><time>2026-05-03T13:47:50Z</time></trkpt><trkpt lat="48.91124886870957" lon="19.33097295264281"><ele>1045.0</ele><time>2026-05-03T13:47:53Z</time></trkpt><trkpt lat="48.911344613720914" lon="19.3309492298584"><ele>1042.0</ele><time>2026-05-03T13:47:54Z</time></trkpt><trkpt lat="48.91145781681743" lon="19.330938682387924"><ele>1042.0</ele><time>2026-05-03T13:47:56Z</time></trkpt><trkpt lat="48.91153958919866" lon="19.33090533985589"><ele>1042.0</ele><time>2026-05-03T13:48:00Z</time></trkpt><trkpt lat="48.9116114439006" lon="19.330894330756575"><ele>1042.0</ele><time>2026-05-03T13:48:03Z</time></trkpt><trkpt lat="48.91170107103591" lon="19.330853728981825"><ele>1042.0</ele><time>2026-05-03T13:48:06Z</time></trkpt><trkpt lat="48.911813895365945" lon="19.33081839864565"><ele>1042.0</ele><time>2026-05-03T13:48:09Z</time></trkpt><trkpt lat="48.9118928026387" lon="19.33083557430599"><ele>1042.0</ele><time>2026-05-03T13:48:10Z</time></trkpt><trkpt lat="48.911983682477704" lon="19.330840305586825"><ele>1039.6666666666665</ele><time>2026-05-03T13:48:12Z</time></trkpt><trkpt lat="48.912059541512726" lon="19.33083777692139"><ele>1037.3333333333333</ele><time>2026-05-03T13:48:15Z</time></trkpt><trkpt lat="48.912154741042784" lon="19.330842039263924"><ele>1035.0</ele><time>2026-05-03T13:48:17Z</time></trkpt><trkpt lat="48.9122285105462" lon="19.33085543845765"><ele>1032.6666666666667</ele><time>2026-05-03T13:48:19Z</time></trkpt><trkpt lat="48.912291796876126" lon="19.33086463139871"><ele>1030.3333333333335</ele><time>2026-05-03T13:48:21Z</time></trkpt><trkpt lat="48.912358606137595" lon="19.33087407016503"><ele>1028.0</ele><time>2026-05-03T13:48:23Z</time></trkpt><trkpt lat="48.91245968499672" lon="19.330893152340984"><ele>1028.0</ele><time>2026-05-03T13:48:25Z</time></trkpt><trkpt lat="48.91254428061389" lon="19.330922300490034"><ele>1028.0</ele><time>2026-05-03T13:48:27Z</time></trkpt><trkpt lat="48.91262161346988" lon="19.33093892734201"><ele>1028.0</ele><time>2026-05-03T13:48:29Z</time></trkpt><trkpt lat="48.912707120621874" lon="19.330887467714604"><ele>1028.0</ele><time>2026-05-03T13:48:31Z</time></trkpt><trkpt lat="48.91278519255096" lon="19.330825079815156"><ele>1028.0</ele><time>2026-05-03T13:48:34Z</time></trkpt><trkpt lat="48.912878243530855" lon="19.330856955482577"><ele>1028.0</ele><time>2026-05-03T13:48:37Z</time></trkpt><trkpt lat="48.91296109713833" lon="19.3308432996188"><ele>1026.6666666666667</ele><time>2026-05-03T13:48:39Z</time></trkpt><trkpt lat="48.913022439003456" lon="19.33088501484486"><ele>1025.3333333333335</ele><time>2026-05-03T13:48:43Z</time></trkpt><trkpt lat="48.91309187228964" lon="19.33093123280315"><ele>1024.0</ele><time>2026-05-03T13:48:45Z</time></trkpt><trkpt lat="48.91317087203646" lon="19.330954336294862"><ele>1022.6666666666667</ele><time>2026-05-03T13:48:48Z</time></trkpt><trkpt lat="48.9132435193581" lon="19.33096082284342"><ele>1021.3333333333334</ele><time>2026-05-03T13:48:51Z</time></trkpt><trkpt lat="48.91331676087148" lon="19.33098712302374"><ele>1020.0</ele><time>2026-05-03T13:48:54Z</time></trkpt><trkpt lat="48.91341998347108" lon="19.331011148302924"><ele>1018.6666666666666</ele><time>2026-05-03T13:48:57Z</time></trkpt><trkpt lat="48.913490078401765" lon="19.33101431921932"><ele>1017.3333333333333</ele><time>2026-05-03T13:48:58Z</time></trkpt><trkpt lat="48.91357189989657" lon="19.331051803705584"><ele>1016.0</ele><time>2026-05-03T13:49:00Z</time></trkpt><trkpt lat="48.91366936771745" lon="19.331032401531818"><ele>1014.6666666666666</ele><time>2026-05-03T13:49:02Z</time></trkpt><trkpt lat="48.913742021885085" lon="19.33100598384374"><ele>1013.3333333333333</ele><time>2026-05-03T13:49:05Z</time></trkpt><trkpt lat="48.91383198415476" lon="19.331002377094524"><ele>1012.0</ele><time>2026-05-03T13:49:07Z</time></trkpt><trkpt lat="48.913906308105226" lon="19.331014722807847"><ele>1011.9999999999999</ele><time>2026-05-03T13:49:10Z</time></trkpt><trkpt lat="48.91397161139842" lon="19.331021864206"><ele>1012.0</ele><time>2026-05-03T13:49:12Z</time></trkpt><trkpt lat="48.91404535347631" lon="19.33100965401215"><ele>1012.0</ele><time>2026-05-03T13:49:14Z</time></trkpt><trkpt lat="48.91411273250281" lon="19.33102901712087"><ele>1012.0</ele><time>2026-05-03T13:49:15Z</time></trkpt><trkpt lat="48.91418953976318" lon="19.33104566333128"><ele>1011.9999999999999</ele><time>2026-05-03T13:49:16Z</time></trkpt><trkpt lat="48.91428516923753" lon="19.331087095520843"><ele>1012.0</ele><time>2026-05-03T13:49:18Z</time></trkpt><trkpt lat="48.91436640024945" lon="19.331103450411057"><ele>1009.2</ele><time>2026-05-03T13:49:20Z</time></trkpt><trkpt lat="48.91447686856455" lon="19.331123563958705"><ele>1006.4000000000001</ele><time>2026-05-03T13:49:22Z</time></trkpt><trkpt lat="48.91459677667725" lon="19.33113586374006"><ele>1003.5999999999999</ele><time>2026-05-03T13:49:24Z</time></trkpt><trkpt lat="48.91467124366203" lon="19.3311407947403"><ele>1000.8</ele><time>2026-05-03T13:49:26Z</time></trkpt><trkpt lat="48.91474068375227" lon="19.33115347068923"><ele>998.0</ele><time>2026-05-03T13:49:28Z</time></trkpt><trkpt lat="48.914838416856405" lon="19.331164067895518"><ele>998.0000000000001</ele><time>2026-05-03T13:49:30Z</time></trkpt><trkpt lat="48.914901816701644" lon="19.331142533039078"><ele>998.0</ele><time>2026-05-03T13:49:31Z</time></trkpt><trkpt lat="48.91497553282818" lon="19.331136125206694"><ele>998.0</ele><time>2026-05-03T13:49:33Z</time></trkpt><trkpt lat="48.91504461692733" lon="19.331166680219"><ele>998.0</ele><time>2026-05-03T13:49:34Z</time></trkpt><trkpt lat="48.915160019859215" lon="19.33120283065096"><ele>998.0000000000001</ele><time>2026-05-03T13:49:36Z</time></trkpt><trkpt lat="48.915268236830336" lon="19.331238234377942"><ele>998.0</ele><time>2026-05-03T13:49:38Z</time></trkpt><trkpt lat="48.91537581032322" lon="19.331269623472668"><ele>995.2</ele><time>2026-05-03T13:49:40Z</time></trkpt><trkpt lat="48.91547577295379" lon="19.33126693441992"><ele>992.4</ele><time>2026-05-03T13:49:42Z</time></trkpt><trkpt lat="48.91559384737381" lon="19.33125979378704"><ele>989.6000000000001</ele><time>2026-05-03T13:49:44Z</time></trkpt><trkpt lat="48.91570648371383" lon="19.33122571416332"><ele>986.8000000000001</ele><time>2026-05-03T13:49:46Z</time></trkpt><trkpt lat="48.91581022841432" lon="19.331177430099082"><ele>984.0</ele><time>2026-05-03T13:49:48Z</time></trkpt><trkpt lat="48.91588768521674" lon="19.331166558485414"><ele>982.6666666666666</ele><time>2026-05-03T13:49:49Z</time></trkpt><trkpt lat="48.915950744545725" lon="19.331143811128985"><ele>981.3333333333333</ele><time>2026-05-03T13:49:50Z</time></trkpt><trkpt lat="48.91603026749481" lon="19.331113477594865"><ele>980.0</ele><time>2026-05-03T13:49:51Z</time></trkpt><trkpt lat="48.9161034930801" lon="19.33109700679099"><ele>978.6666666666666</ele><time>2026-05-03T13:49:52Z</time></trkpt><trkpt lat="48.91618331721118" lon="19.331089978745705"><ele>977.3333333333333</ele><time>2026-05-03T13:49:53Z</time></trkpt><trkpt lat="48.916265625091604" lon="19.331081125495288"><ele>976.0</ele><time>2026-05-03T13:49:54Z</time></trkpt><trkpt lat="48.91635547339105" lon="19.331076945535916"><ele>976.0</ele><time>2026-05-03T13:49:55Z</time></trkpt><trkpt lat="48.91643947664613" lon="19.331085178073298"><ele>975.9999999999999</ele><time>2026-05-03T13:49:56Z</time></trkpt><trkpt lat="48.91652909438489" lon="19.331079866260623"><ele>975.9999999999999</ele><time>2026-05-03T13:49:57Z</time></trkpt><trkpt lat="48.916624886065165" lon="19.331096215066662"><ele>976.0</ele><time>2026-05-03T13:49:58Z</time></trkpt><trkpt lat="48.916710070098375" lon="19.331108724709154"><ele>976.0</ele><time>2026-05-03T13:49:59Z</time></trkpt><trkpt lat="48.916806954652884" lon="19.33110690142224"><ele>974.4</ele><time>2026-05-03T13:50:00Z</time></trkpt><trkpt lat="48.91689348717266" lon="19.331107243848635"><ele>972.8</ele><time>2026-05-03T13:50:01Z</time></trkpt><trkpt lat="48.91698383356604" lon="19.33109969893353"><ele>971.1999999999999</ele><time>2026-05-03T13:50:02Z</time></trkpt><trkpt lat="48.91707731108588" lon="19.33108347684122"><ele>969.5999999999999</ele><time>2026-05-03T13:50:03Z</time></trkpt><trkpt lat="48.91716893135908" lon="19.33106021933297"><ele>968.0</ele><time>2026-05-03T13:50:04Z</time></trkpt><trkpt lat="48.91725758683451" lon="19.331046508103835"><ele>968.0</ele><time>2026-05-03T13:50:05Z</time></trkpt><trkpt lat="48.91734449297578" lon="19.33101947412308"><ele>968.0</ele><time>2026-05-03T13:50:06Z</time></trkpt><trkpt lat="48.91743814503151" lon="19.331008502294768"><ele>968.0</ele><time>2026-05-03T13:50:07Z</time></trkpt><trkpt lat="48.917529424510775" lon="19.33100044494527"><ele>968.0</ele><time>2026-05-03T13:50:08Z</time></trkpt><trkpt lat="48.91761891887717" lon="19.330991833827703"><ele>968.0</ele><time>2026-05-03T13:50:09Z</time></trkpt><trkpt lat="48.91770666339991" lon="19.331003876354735"><ele>967.5000000000001</ele><time>2026-05-03T13:50:10Z</time></trkpt><trkpt lat="48.91778472363264" lon="19.331021716707017"><ele>967.0</ele><time>2026-05-03T13:50:11Z</time></trkpt><trkpt lat="48.917863612261804" lon="19.33105448070805"><ele>966.5</ele><time>2026-05-03T13:50:12Z</time></trkpt><trkpt lat="48.91794973735145" lon="19.33110022670148"><ele>966.0</ele><time>2026-05-03T13:50:13Z</time></trkpt><trkpt lat="48.91803085054554" lon="19.331137023284477"><ele>965.5000000000001</ele><time>2026-05-03T13:50:14Z</time></trkpt><trkpt lat="48.91810683862111" lon="19.33115178265756"><ele>965.0</ele><time>2026-05-03T13:50:15Z</time></trkpt><trkpt lat="48.91818904005741" lon="19.331154550587147"><ele>965.0000000000001</ele><time>2026-05-03T13:50:16Z</time></trkpt><trkpt lat="48.91827314742781" lon="19.33116338688294"><ele>965.0</ele><time>2026-05-03T13:50:17Z</time></trkpt><trkpt lat="48.91835134242818" lon="19.331170962920602"><ele>965.0</ele><time>2026-05-03T13:50:18Z</time></trkpt><trkpt lat="48.918426254625174" lon="19.33118283641113"><ele>965.0</ele><time>2026-05-03T13:50:19Z</time></trkpt><trkpt lat="48.918504744067725" lon="19.331191674492366"><ele>965.0000000000001</ele><time>2026-05-03T13:50:20Z</time></trkpt><trkpt lat="48.91861838842931" lon="19.331209611834996"><ele>965.0</ele><time>2026-05-03T13:50:22Z</time></trkpt><trkpt lat="48.91872583698817" lon="19.331268570203918"><ele>966.5000000000001</ele><time>2026-05-03T13:50:24Z</time></trkpt><trkpt lat="48.918790178336145" lon="19.331304568811056"><ele>968.0</ele><time>2026-05-03T13:50:25Z</time></trkpt><trkpt lat="48.9188630432734" lon="19.33135936940899"><ele>969.5</ele><time>2026-05-03T13:50:26Z</time></trkpt><trkpt lat="48.91892925752328" lon="19.33140440852878"><ele>971.0</ele><time>2026-05-03T13:50:27Z</time></trkpt><trkpt lat="48.91899640171554" lon="19.331465925338847"><ele>972.5000000000001</ele><time>2026-05-03T13:50:28Z</time></trkpt><trkpt lat="48.91907428331116" lon="19.331531261948253"><ele>974.0</ele><time>2026-05-03T13:50:29Z</time></trkpt><trkpt lat="48.919124985319876" lon="19.331600615443357"><ele>974.0</ele><time>2026-05-03T13:50:30Z</time></trkpt><trkpt lat="48.919200500625905" lon="19.331732633144224"><ele>974.0000000000001</ele><time>2026-05-03T13:50:32Z</time></trkpt><trkpt lat="48.91922836943901" lon="19.331822406238867"><ele>974.0000000000001</ele><time>2026-05-03T13:50:33Z</time></trkpt><trkpt lat="48.919246204459085" lon="19.331937141525348"><ele>974.0</ele><time>2026-05-03T13:50:34Z</time></trkpt><trkpt lat="48.9192974761312" lon="19.33211761997813"><ele>974.0</ele><time>2026-05-03T13:50:36Z</time></trkpt><trkpt lat="48.91932586803666" lon="19.332210396139402"><ele>970.1666666666667</ele><time>2026-05-03T13:50:37Z</time></trkpt><trkpt lat="48.919342374283765" lon="19.332311766937142"><ele>966.3333333333334</ele><time>2026-05-03T13:50:38Z</time></trkpt><trkpt lat="48.91934520416767" lon="19.33240759589697"><ele>962.5</ele><time>2026-05-03T13:50:39Z</time></trkpt><trkpt lat="48.919354788624126" lon="19.332530053258424"><ele>958.6666666666667</ele><time>2026-05-03T13:50:40Z</time></trkpt><trkpt lat="48.919344189845575" lon="19.332651497661764"><ele>954.8333333333334</ele><time>2026-05-03T13:50:41Z</time></trkpt><trkpt lat="48.91932608681475" lon="19.332766932354915"><ele>951.0</ele><time>2026-05-03T13:50:42Z</time></trkpt><trkpt lat="48.919306283572354" lon="19.33290025143515"><ele>951.0</ele><time>2026-05-03T13:50:43Z</time></trkpt><trkpt lat="48.91928619947539" lon="19.333018643019408"><ele>951.0</ele><time>2026-05-03T13:50:44Z</time></trkpt><trkpt lat="48.919259152836524" lon="19.33314041443159"><ele>951.0</ele><time>2026-05-03T13:50:45Z</time></trkpt><trkpt lat="48.91923718573986" lon="19.333237134408822"><ele>951.0</ele><time>2026-05-03T13:50:46Z</time></trkpt><trkpt lat="48.91920944778314" lon="19.33333856189627"><ele>951.0</ele><time>2026-05-03T13:50:47Z</time></trkpt><trkpt lat="48.919182406994516" lon="19.33342795170618"><ele>951.0</ele><time>2026-05-03T13:50:48Z</time></trkpt><trkpt lat="48.91915521853987" lon="19.333525779901336"><ele>951.0</ele><time>2026-05-03T13:50:49Z</time></trkpt><trkpt lat="48.91912688970444" lon="19.33362115005111"><ele>945.6666666666666</ele><time>2026-05-03T13:50:50Z</time></trkpt><trkpt lat="48.91910408946794" lon="19.33371584783881"><ele>940.3333333333333</ele><time>2026-05-03T13:50:51Z</time></trkpt><trkpt lat="48.91908074557305" lon="19.333809601394012"><ele>935.0</ele><time>2026-05-03T13:50:52Z</time></trkpt><trkpt lat="48.919011082779555" lon="19.333978613750087"><ele>929.6666666666666</ele><time>2026-05-03T13:50:54Z</time></trkpt><trkpt lat="48.91897164385279" lon="19.334056564814055"><ele>924.3333333333333</ele><time>2026-05-03T13:50:55Z</time></trkpt><trkpt lat="48.91891924742419" lon="19.334132957978856"><ele>919.0</ele><time>2026-05-03T13:50:56Z</time></trkpt><trkpt lat="48.918861534033915" lon="19.334206590149677"><ele>918.7142857142857</ele><time>2026-05-03T13:50:57Z</time></trkpt><trkpt lat="48.91881440788177" lon="19.33429010236308"><ele>918.4285714285713</ele><time>2026-05-03T13:50:58Z</time></trkpt><trkpt lat="48.91876237946445" lon="19.334394078215606"><ele>918.1428571428571</ele><time>2026-05-03T13:50:58.999Z</time></trkpt><trkpt lat="48.91870236248649" lon="19.334471799301646"><ele>917.8571428571429</ele><time>2026-05-03T13:50:59.999Z</time></trkpt><trkpt lat="48.91865642546445" lon="19.334555795182975"><ele>917.5714285714286</ele><time>2026-05-03T13:51:00.999Z</time></trkpt><trkpt lat="48.91861375150552" lon="19.334637593966754"><ele>917.2857142857142</ele><time>2026-05-03T13:51:01.999Z</time></trkpt><trkpt lat="48.918581189384625" lon="19.33472954558544"><ele>917.0</ele><time>2026-05-03T13:51:02.999Z</time></trkpt><trkpt lat="48.91852219304512" lon="19.334836998885166"><ele>917.0000000000001</ele><time>2026-05-03T13:51:04Z</time></trkpt><trkpt lat="48.91847836769977" lon="19.334930316732446"><ele>917.0</ele><time>2026-05-03T13:51:05Z</time></trkpt><trkpt lat="48.918445803105456" lon="19.335021058573307"><ele>917.0</ele><time>2026-05-03T13:51:06Z</time></trkpt><trkpt lat="48.91838558072351" lon="19.33509856399032"><ele>917.0</ele><time>2026-05-03T13:51:07Z</time></trkpt><trkpt lat="48.91834706008236" lon="19.33520182952999"><ele>917.0000000000001</ele><time>2026-05-03T13:51:08Z</time></trkpt><trkpt lat="48.918319221708074" lon="19.335314596546525"><ele>917.0</ele><time>2026-05-03T13:51:09Z</time></trkpt><trkpt lat="48.918298053436615" lon="19.33542324456513"><ele>916.6666666666667</ele><time>2026-05-03T13:51:10Z</time></trkpt><trkpt lat="48.9182699815991" lon="19.335550097982253"><ele>916.3333333333334</ele><time>2026-05-03T13:51:11Z</time></trkpt><trkpt lat="48.91825121987856" lon="19.33567431990887"><ele>916.0</ele><time>2026-05-03T13:51:12Z</time></trkpt><trkpt lat="48.918246015624035" lon="19.335794335122298"><ele>915.6666666666667</ele><time>2026-05-03T13:51:13Z</time></trkpt><trkpt lat="48.91824290129457" lon="19.335904243581716"><ele>915.3333333333334</ele><time>2026-05-03T13:51:14Z</time></trkpt><trkpt lat="48.918242698986035" lon="19.33601902665512"><ele>915.0</ele><time>2026-05-03T13:51:15Z</time></trkpt><trkpt lat="48.91825024055639" lon="19.336133152081004"><ele>914.8333333333334</ele><time>2026-05-03T13:51:16Z</time></trkpt><trkpt lat="48.91825393027125" lon="19.336267543915106"><ele>914.6666666666667</ele><time>2026-05-03T13:51:17Z</time></trkpt><trkpt lat="48.91826611162968" lon="19.336385191742288"><ele>914.5</ele><time>2026-05-03T13:51:18Z</time></trkpt><trkpt lat="48.91828670587838" lon="19.336504466029492"><ele>914.3333333333334</ele><time>2026-05-03T13:51:19Z</time></trkpt><trkpt lat="48.9183270331307" lon="19.336627751091676"><ele>914.1666666666667</ele><time>2026-05-03T13:51:20Z</time></trkpt><trkpt lat="48.91837838810342" lon="19.336723262470617"><ele>914.0</ele><time>2026-05-03T13:51:21Z</time></trkpt><trkpt lat="48.91843166688984" lon="19.33681064527506"><ele>911.5000000000001</ele><time>2026-05-03T13:51:22Z</time></trkpt><trkpt lat="48.91849215137536" lon="19.336903682869938"><ele>909.0</ele><time>2026-05-03T13:51:23Z</time></trkpt><trkpt lat="48.91855798341573" lon="19.336976373164568"><ele>906.5</ele><time>2026-05-03T13:51:24Z</time></trkpt><trkpt lat="48.918626601496726" lon="19.337042845191156"><ele>904.0</ele><time>2026-05-03T13:51:25Z</time></trkpt><trkpt lat="48.918689461903284" lon="19.337095714839343"><ele>901.5000000000001</ele><time>2026-05-03T13:51:26Z</time></trkpt><trkpt lat="48.91876183878346" lon="19.337159015210734"><ele>899.0</ele><time>2026-05-03T13:51:27Z</time></trkpt><trkpt lat="48.91884339459574" lon="19.337201620427344"><ele>898.8333333333334</ele><time>2026-05-03T13:51:28Z</time></trkpt><trkpt lat="48.91891341536156" lon="19.33724484972374"><ele>898.6666666666667</ele><time>2026-05-03T13:51:29Z</time></trkpt><trkpt lat="48.91899243322284" lon="19.33728769457156"><ele>898.5</ele><time>2026-05-03T13:51:30Z</time></trkpt><trkpt lat="48.91906638327751" lon="19.33732832345948"><ele>898.3333333333333</ele><time>2026-05-03T13:51:31Z</time></trkpt><trkpt lat="48.91913282482264" lon="19.3373546218617"><ele>898.1666666666666</ele><time>2026-05-03T13:51:32Z</time></trkpt><trkpt lat="48.91920438738865" lon="19.337380610157982"><ele>898.0</ele><time>2026-05-03T13:51:33Z</time></trkpt><trkpt lat="48.919281545955116" lon="19.337396034637273"><ele>898.0</ele><time>2026-05-03T13:51:34Z</time></trkpt><trkpt lat="48.91936846668869" lon="19.33737847385377"><ele>897.9999999999999</ele><time>2026-05-03T13:51:35Z</time></trkpt><trkpt lat="48.9194432593579" lon="19.337368084292315"><ele>898.0</ele><time>2026-05-03T13:51:36Z</time></trkpt><trkpt lat="48.91951589542737" lon="19.337335794339676"><ele>898.0</ele><time>2026-05-03T13:51:37Z</time></trkpt><trkpt lat="48.9195827967579" lon="19.33730098318278"><ele>897.9999999999999</ele><time>2026-05-03T13:51:38Z</time></trkpt><trkpt lat="48.91964074549655" lon="19.33725548129707"><ele>898.0</ele><time>2026-05-03T13:51:39Z</time></trkpt><trkpt lat="48.91969962241477" lon="19.337212693106263"><ele>898.0</ele><time>2026-05-03T13:51:40Z</time></trkpt><trkpt lat="48.91976820315253" lon="19.33714754307564"><ele>895.3333333333333</ele><time>2026-05-03T13:51:41Z</time></trkpt><trkpt lat="48.91982744035548" lon="19.337068873977284"><ele>892.6666666666666</ele><time>2026-05-03T13:51:42Z</time></trkpt><trkpt lat="48.91987385981477" lon="19.336975349647368"><ele>890.0</ele><time>2026-05-03T13:51:43Z</time></trkpt><trkpt lat="48.9199138445903" lon="19.33687282831681"><ele>887.3333333333333</ele><time>2026-05-03T13:51:44Z</time></trkpt><trkpt lat="48.91995848486208" lon="19.336773329160643"><ele>884.6666666666666</ele><time>2026-05-03T13:51:45Z</time></trkpt><trkpt lat="48.920006438011406" lon="19.336665363259414"><ele>882.0</ele><time>2026-05-03T13:51:46Z</time></trkpt><trkpt lat="48.920048196801" lon="19.336556164160513"><ele>882.1666666666666</ele><time>2026-05-03T13:51:47Z</time></trkpt><trkpt lat="48.92009785270308" lon="19.336454507020672"><ele>882.3333333333333</ele><time>2026-05-03T13:51:48Z</time></trkpt><trkpt lat="48.92015127976721" lon="19.336361249352635"><ele>882.5</ele><time>2026-05-03T13:51:49Z</time></trkpt><trkpt lat="48.920205369412656" lon="19.336273833228933"><ele>882.6666666666666</ele><time>2026-05-03T13:51:50Z</time></trkpt><trkpt lat="48.92025467706162" lon="19.336171849721683"><ele>882.8333333333333</ele><time>2026-05-03T13:51:51Z</time></trkpt><trkpt lat="48.92030683849763" lon="19.336076425163387"><ele>883.0</ele><time>2026-05-03T13:51:52Z</time></trkpt><trkpt lat="48.920353798177565" lon="19.335971609314598"><ele>882.9999999999999</ele><time>2026-05-03T13:51:53Z</time></trkpt><trkpt lat="48.92039527239226" lon="19.335870744689537"><ele>883.0</ele><time>2026-05-03T13:51:54Z</time></trkpt><trkpt lat="48.92045026700061" lon="19.335772082322478"><ele>883.0</ele><time>2026-05-03T13:51:55Z</time></trkpt><trkpt lat="48.92050758890037" lon="19.33565854471278"><ele>883.0</ele><time>2026-05-03T13:51:56Z</time></trkpt><trkpt lat="48.920553671471986" lon="19.335550230239015"><ele>882.9999999999999</ele><time>2026-05-03T13:51:57Z</time></trkpt><trkpt lat="48.92060266475011" lon="19.335454754875077"><ele>883.0</ele><time>2026-05-03T13:51:58Z</time></trkpt><trkpt lat="48.92066113662541" lon="19.335358605682273"><ele>882.6666666666666</ele><time>2026-05-03T13:51:59Z</time></trkpt><trkpt lat="48.92070736005636" lon="19.33525506460209"><ele>882.3333333333333</ele><time>2026-05-03T13:52:00Z</time></trkpt><trkpt lat="48.920754878109086" lon="19.33514353034871"><ele>882.0</ele><time>2026-05-03T13:52:01Z</time></trkpt><trkpt lat="48.92080528271071" lon="19.335049694902178"><ele>881.6666666666667</ele><time>2026-05-03T13:52:02Z</time></trkpt><trkpt lat="48.920857510996655" lon="19.334954955654815"><ele>881.3333333333334</ele><time>2026-05-03T13:52:03Z</time></trkpt><trkpt lat="48.92091421528298" lon="19.334855379762843"><ele>881.0</ele><time>2026-05-03T13:52:04Z</time></trkpt><trkpt lat="48.920962867492236" lon="19.334755105831324"><ele>877.1666666666667</ele><time>2026-05-03T13:52:05Z</time></trkpt><trkpt lat="48.92103642865459" lon="19.334693999811588"><ele>873.3333333333334</ele><time>2026-05-03T13:52:06Z</time></trkpt><trkpt lat="48.92110624059902" lon="19.334622600930505"><ele>869.5</ele><time>2026-05-03T13:52:07Z</time></trkpt><trkpt lat="48.92117547924098" lon="19.334546487274757"><ele>865.6666666666667</ele><time>2026-05-03T13:52:08Z</time></trkpt><trkpt lat="48.92124583859108" lon="19.334503697161217"><ele>861.8333333333334</ele><time>2026-05-03T13:52:09Z</time></trkpt><trkpt lat="48.92132450810557" lon="19.3344520839257"><ele>858.0</ele><time>2026-05-03T13:52:10Z</time></trkpt><trkpt lat="48.92139889845912" lon="19.33441057731955"><ele>858.0</ele><time>2026-05-03T13:52:11Z</time></trkpt><trkpt lat="48.921476570562895" lon="19.334371642198267"><ele>858.0</ele><time>2026-05-03T13:52:12Z</time></trkpt><trkpt lat="48.92155690630318" lon="19.334348872557648"><ele>858.0</ele><time>2026-05-03T13:52:13Z</time></trkpt><trkpt lat="48.92163772852464" lon="19.33431982392289"><ele>858.0</ele><time>2026-05-03T13:52:14Z</time></trkpt><trkpt lat="48.921718132705685" lon="19.334300619848516"><ele>858.0</ele><time>2026-05-03T13:52:15Z</time></trkpt><trkpt lat="48.92179861531555" lon="19.334282224842223"><ele>858.0</ele><time>2026-05-03T13:52:16Z</time></trkpt><trkpt lat="48.92188101775776" lon="19.334270925827592"><ele>857.8333333333334</ele><time>2026-05-03T13:52:17Z</time></trkpt><trkpt lat="48.92197049941178" lon="19.334256827792515"><ele>857.6666666666667</ele><time>2026-05-03T13:52:18Z</time></trkpt><trkpt lat="48.92204331512656" lon="19.334239017694333"><ele>857.5</ele><time>2026-05-03T13:52:19Z</time></trkpt><trkpt lat="48.922122731597405" lon="19.334216807648126"><ele>857.3333333333334</ele><time>2026-05-03T13:52:20Z</time></trkpt><trkpt lat="48.92219594403779" lon="19.334185047097883"><ele>857.1666666666667</ele><time>2026-05-03T13:52:21Z</time></trkpt><trkpt lat="48.92227188734153" lon="19.334155230627633"><ele>857.0</ele><time>2026-05-03T13:52:22Z</time></trkpt><trkpt lat="48.922339480397994" lon="19.334119309264715"><ele>857.0</ele><time>2026-05-03T13:52:23Z</time></trkpt><trkpt lat="48.92246833302113" lon="19.334048977430307"><ele>857.0</ele><time>2026-05-03T13:52:25Z</time></trkpt><trkpt lat="48.922540585996984" lon="19.334009451107985"><ele>857.0</ele><time>2026-05-03T13:52:26Z</time></trkpt><trkpt lat="48.922613955225906" lon="19.333967684841316"><ele>857.0</ele><time>2026-05-03T13:52:27Z</time></trkpt><trkpt lat="48.92269067357061" lon="19.3339316544669"><ele>857.0</ele><time>2026-05-03T13:52:28Z</time></trkpt><trkpt lat="48.922779882740045" lon="19.333888140046305"><ele>856.8</ele><time>2026-05-03T13:52:30Z</time></trkpt><trkpt lat="48.922830856773984" lon="19.333831307939345"><ele>856.6</ele><time>2026-05-03T13:53:09Z</time></trkpt><trkpt lat="48.922805122520664" lon="19.333921401410773"><ele>856.3999999999999</ele><time>2026-05-03T13:53:30Z</time></trkpt><trkpt lat="48.92283089729592" lon="19.33401832764743"><ele>856.1999999999999</ele><time>2026-05-03T13:53:36Z</time></trkpt><trkpt lat="48.922954772081994" lon="19.33405606381367"><ele>856.0</ele><time>2026-05-03T13:54:47Z</time></trkpt><trkpt lat="48.92280213781239" lon="19.33398010539572"><ele>855.9999999999999</ele><time>2026-05-03T13:55:17Z</time></trkpt><trkpt lat="48.922867289291275" lon="19.334054872365975"><ele>856.0</ele><time>2026-05-03T14:01:36Z</time></trkpt><trkpt lat="48.92281681483823" lon="19.333989993678276"><ele>856.0</ele><time>2026-05-03T14:01:59Z</time></trkpt><trkpt lat="48.922788442556886" lon="19.333901912403245"><ele>856.0</ele><time>2026-05-03T14:02:15Z</time></trkpt><trkpt lat="48.922819375544414" lon="19.33378193884135"><ele>855.9999999999999</ele><time>2026-05-03T14:02:55Z</time></trkpt><trkpt lat="48.922922694273524" lon="19.33377888449298"><ele>856.0</ele><time>2026-05-03T14:03:01Z</time></trkpt><trkpt lat="48.92300375874176" lon="19.33375643364859"><ele>853.1666666666666</ele><time>2026-05-03T14:03:04Z</time></trkpt><trkpt lat="48.92307255232016" lon="19.33374415806298"><ele>850.3333333333333</ele><time>2026-05-03T14:03:06Z</time></trkpt><trkpt lat="48.923162096757586" lon="19.33371210646212"><ele>847.5</ele><time>2026-05-03T14:03:09Z</time></trkpt><trkpt lat="48.92325660944359" lon="19.333651419404188"><ele>844.6666666666667</ele><time>2026-05-03T14:03:12Z</time></trkpt><trkpt lat="48.92333338555129" lon="19.33361499044197"><ele>841.8333333333334</ele><time>2026-05-03T14:03:13.999Z</time></trkpt><trkpt lat="48.92342401099667" lon="19.33360427817053"><ele>839.0</ele><time>2026-05-03T14:03:15.999Z</time></trkpt><trkpt lat="48.92349893874699" lon="19.333564426748335"><ele>839.0000000000001</ele><time>2026-05-03T14:03:17.999Z</time></trkpt><trkpt lat="48.923581144825604" lon="19.333528944046375"><ele>839.0</ele><time>2026-05-03T14:03:19.999Z</time></trkpt><trkpt lat="48.92366385074674" lon="19.333484226909288"><ele>839.0</ele><time>2026-05-03T14:03:21.999Z</time></trkpt><trkpt lat="48.9237537151425" lon="19.33345102685176"><ele>839.0</ele><time>2026-05-03T14:03:23.999Z</time></trkpt><trkpt lat="48.923835122269935" lon="19.333414448652636"><ele>839.0000000000001</ele><time>2026-05-03T14:03:25.999Z</time></trkpt><trkpt lat="48.92390888237954" lon="19.333373027408182"><ele>839.0</ele><time>2026-05-03T14:03:27.999Z</time></trkpt><trkpt lat="48.92399444760848" lon="19.333341728938347"><ele>839.0</ele><time>2026-05-03T14:03:29.999Z</time></trkpt><trkpt lat="48.924079910459454" lon="19.333297483764877"><ele>839.0</ele><time>2026-05-03T14:03:31.999Z</time></trkpt><trkpt lat="48.92417484143869" lon="19.333250314635404"><ele>839.0</ele><time>2026-05-03T14:03:33.999Z</time></trkpt><trkpt lat="48.924270869253206" lon="19.333200243536115"><ele>839.0</ele><time>2026-05-03T14:03:35.999Z</time></trkpt><trkpt lat="48.92436959785008" lon="19.333169123240133"><ele>839.0</ele><time>2026-05-03T14:03:37.999Z</time></trkpt><trkpt lat="48.92447241501456" lon="19.333121771064658"><ele>838.8000000000001</ele><time>2026-05-03T14:03:40Z</time></trkpt><trkpt lat="48.924566407100755" lon="19.333070956956867"><ele>838.6</ele><time>2026-05-03T14:03:42Z</time></trkpt><trkpt lat="48.924676956025266" lon="19.33302397883324"><ele>838.4</ele><time>2026-05-03T14:03:44Z</time></trkpt><trkpt lat="48.924780581617554" lon="19.332984771683837"><ele>838.2</ele><time>2026-05-03T14:03:46Z</time></trkpt><trkpt lat="48.92488801243122" lon="19.33294013053656"><ele>838.0</ele><time>2026-05-03T14:03:48Z</time></trkpt><trkpt lat="48.9249952115736" lon="19.332876120229024"><ele>836.0</ele><time>2026-05-03T14:03:50Z</time></trkpt><trkpt lat="48.925102925745016" lon="19.33282348013428"><ele>834.0</ele><time>2026-05-03T14:03:52Z</time></trkpt><trkpt lat="48.92521123011584" lon="19.332768899459555"><ele>832.0</ele><time>2026-05-03T14:03:54Z</time></trkpt><trkpt lat="48.92531584307026" lon="19.33271230511303"><ele>830.0</ele><time>2026-05-03T14:03:56Z</time></trkpt><trkpt lat="48.925434961171625" lon="19.332667182956804"><ele>830.0</ele><time>2026-05-03T14:03:58Z</time></trkpt><trkpt lat="48.925539238616714" lon="19.33261423003376"><ele>830.0</ele><time>2026-05-03T14:04:00Z</time></trkpt><trkpt lat="48.92564384366342" lon="19.332566395800587"><ele>830.0</ele><time>2026-05-03T14:04:02Z</time></trkpt><trkpt lat="48.92571011397621" lon="19.332539591523222"><ele>830.0</ele><time>2026-05-03T14:04:03Z</time></trkpt><trkpt lat="48.92581763163404" lon="19.332481829757075"><ele>830.0</ele><time>2026-05-03T14:04:05Z</time></trkpt><trkpt lat="48.92589321871185" lon="19.332463748878606"><ele>830.2</ele><time>2026-05-03T14:04:06Z</time></trkpt><trkpt lat="48.92599631448716" lon="19.332413021290723"><ele>830.4</ele><time>2026-05-03T14:04:08Z</time></trkpt><trkpt lat="48.92610183298695" lon="19.332365352431662"><ele>830.5999999999999</ele><time>2026-05-03T14:04:10Z</time></trkpt><trkpt lat="48.926169169296834" lon="19.33232607515905"><ele>830.8</ele><time>2026-05-03T14:04:11Z</time></trkpt><trkpt lat="48.92628351542312" lon="19.33227091404275"><ele>831.0</ele><time>2026-05-03T14:04:13Z</time></trkpt><trkpt lat="48.92634594904572" lon="19.332237448519308"><ele>831.0</ele><time>2026-05-03T14:04:14Z</time></trkpt><trkpt lat="48.92641060669072" lon="19.332208253015107"><ele>831.0</ele><time>2026-05-03T14:04:15Z</time></trkpt><trkpt lat="48.926468740923454" lon="19.332171179561865"><ele>831.0</ele><time>2026-05-03T14:04:16Z</time></trkpt><trkpt lat="48.926532812034615" lon="19.3321302769739"><ele>831.0</ele><time>2026-05-03T14:04:17Z</time></trkpt><trkpt lat="48.92659462578114" lon="19.332102002720926"><ele>831.0</ele><time>2026-05-03T14:04:18Z</time></trkpt><trkpt lat="48.9266492270741" lon="19.33205138120473"><ele>831.0</ele><time>2026-05-03T14:04:19Z</time></trkpt><trkpt lat="48.92675394187744" lon="19.331952449650704"><ele>829.5999999999999</ele><time>2026-05-03T14:04:21Z</time></trkpt><trkpt lat="48.92684900647971" lon="19.33185325190255"><ele>828.2</ele><time>2026-05-03T14:04:23Z</time></trkpt><trkpt lat="48.92693077795977" lon="19.331750459614348"><ele>826.8</ele><time>2026-05-03T14:04:25Z</time></trkpt><trkpt lat="48.92700201551869" lon="19.331630068471824"><ele>825.4000000000001</ele><time>2026-05-03T14:04:27Z</time></trkpt><trkpt lat="48.92709138674301" lon="19.331525477458104"><ele>824.0</ele><time>2026-05-03T14:04:29Z</time></trkpt><trkpt lat="48.927155944971844" lon="19.331470830917613"><ele>824.0000000000001</ele><time>2026-05-03T14:04:30Z</time></trkpt><trkpt lat="48.927212141236524" lon="19.331413117684594"><ele>824.0</ele><time>2026-05-03T14:04:31Z</time></trkpt><trkpt lat="48.9272673365481" lon="19.331359362686296"><ele>824.0</ele><time>2026-05-03T14:04:32Z</time></trkpt><trkpt lat="48.927316639919525" lon="19.33129496722572"><ele>824.0</ele><time>2026-05-03T14:04:33Z</time></trkpt><trkpt lat="48.92740892969799" lon="19.331171558726375"><ele>824.0000000000001</ele><time>2026-05-03T14:04:35Z</time></trkpt><trkpt lat="48.927492871897925" lon="19.33104060136797"><ele>824.0</ele><time>2026-05-03T14:04:37Z</time></trkpt><trkpt lat="48.927534439564354" lon="19.330961090078958"><ele>822.2</ele><time>2026-05-03T14:04:38Z</time></trkpt><trkpt lat="48.92761444410543" lon="19.330830478698665"><ele>820.4000000000001</ele><time>2026-05-03T14:04:40Z</time></trkpt><trkpt lat="48.92769181419494" lon="19.33070716684507"><ele>818.6</ele><time>2026-05-03T14:04:42Z</time></trkpt><trkpt lat="48.92776282102033" lon="19.33058209187714"><ele>816.8</ele><time>2026-05-03T14:04:44Z</time></trkpt><trkpt lat="48.92783035119452" lon="19.330456061469118"><ele>815.0</ele><time>2026-05-03T14:04:46Z</time></trkpt><trkpt lat="48.92789370820985" lon="19.330322935861727"><ele>812.25</ele><time>2026-05-03T14:04:48Z</time></trkpt><trkpt lat="48.927974183632365" lon="19.330195240653623"><ele>809.5</ele><time>2026-05-03T14:04:50Z</time></trkpt><trkpt lat="48.92804887161172" lon="19.33006173164644"><ele>806.75</ele><time>2026-05-03T14:04:52Z</time></trkpt><trkpt lat="48.92811814648948" lon="19.329935257282873"><ele>804.0</ele><time>2026-05-03T14:04:54Z</time></trkpt><trkpt lat="48.92820011050793" lon="19.329810210685974"><ele>805.75</ele><time>2026-05-03T14:04:56Z</time></trkpt><trkpt lat="48.928272069883604" lon="19.3296740249258"><ele>807.5</ele><time>2026-05-03T14:04:58Z</time></trkpt><trkpt lat="48.92835227919877" lon="19.329538682843907"><ele>809.25</ele><time>2026-05-03T14:05:00Z</time></trkpt><trkpt lat="48.92842725879426" lon="19.32940460228781"><ele>811.0</ele><time>2026-05-03T14:05:02Z</time></trkpt><trkpt lat="48.92850385938465" lon="19.329271391166785"><ele>810.9999999999999</ele><time>2026-05-03T14:05:04Z</time></trkpt><trkpt lat="48.928583251387195" lon="19.329146923742574"><ele>811.0</ele><time>2026-05-03T14:05:06Z</time></trkpt><trkpt lat="48.928631465873" lon="19.329084490328768"><ele>811.0</ele><time>2026-05-03T14:05:08Z</time></trkpt><trkpt lat="48.92868800679844" lon="19.32901821234661"><ele>811.0</ele><time>2026-05-03T14:05:11Z</time></trkpt><trkpt lat="48.92869791340144" lon="19.32888346463929"><ele>810.9999999999999</ele><time>2026-05-03T14:05:12.999Z</time></trkpt><trkpt lat="48.92876306405676" lon="19.328763534146095"><ele>811.0</ele><time>2026-05-03T14:05:14.999Z</time></trkpt><trkpt lat="48.92881569330241" lon="19.328662268416824"><ele>808.3333333333333</ele><time>2026-05-03T14:05:16.999Z</time></trkpt><trkpt lat="48.928853509176065" lon="19.32851959761353"><ele>805.6666666666666</ele><time>2026-05-03T14:05:18.999Z</time></trkpt><trkpt lat="48.92890360449883" lon="19.32833118463838"><ele>803.0</ele><time>2026-05-03T14:05:20.999Z</time></trkpt><trkpt lat="48.92892245975577" lon="19.328232310249433"><ele>800.3333333333333</ele><time>2026-05-03T14:05:21.999Z</time></trkpt><trkpt lat="48.92894621895076" lon="19.328138305137983"><ele>797.6666666666666</ele><time>2026-05-03T14:05:22.999Z</time></trkpt><trkpt lat="48.928940284486885" lon="19.328017319524637"><ele>795.0</ele><time>2026-05-03T14:05:23.999Z</time></trkpt><trkpt lat="48.92894900135184" lon="19.327897709320478"><ele>793.8571428571429</ele><time>2026-05-03T14:05:24.999Z</time></trkpt><trkpt lat="48.928955229120135" lon="19.32778348020397"><ele>792.7142857142858</ele><time>2026-05-03T14:05:25.999Z</time></trkpt><trkpt lat="48.92897038553066" lon="19.32768318660812"><ele>791.5714285714286</ele><time>2026-05-03T14:05:26.999Z</time></trkpt><trkpt lat="48.928984251214054" lon="19.32757092712806"><ele>790.4285714285714</ele><time>2026-05-03T14:05:27.999Z</time></trkpt><trkpt lat="48.92899104892262" lon="19.327465348889174"><ele>789.2857142857142</ele><time>2026-05-03T14:05:28.999Z</time></trkpt><trkpt lat="48.92900175543578" lon="19.327366456112586"><ele>788.1428571428571</ele><time>2026-05-03T14:05:29.999Z</time></trkpt><trkpt lat="48.92901072087726" lon="19.327264716865823"><ele>787.0</ele><time>2026-05-03T14:05:30.999Z</time></trkpt><trkpt lat="48.92902278991887" lon="19.327157841113035"><ele>786.8571428571429</ele><time>2026-05-03T14:05:31.999Z</time></trkpt><trkpt lat="48.929032111007174" lon="19.327047104909227"><ele>786.7142857142857</ele><time>2026-05-03T14:05:32.999Z</time></trkpt><trkpt lat="48.92903257530604" lon="19.32693005429082"><ele>786.5714285714287</ele><time>2026-05-03T14:05:33.999Z</time></trkpt><trkpt lat="48.92903090333607" lon="19.326821189324342"><ele>786.4285714285714</ele><time>2026-05-03T14:05:34.999Z</time></trkpt><trkpt lat="48.92902878057003" lon="19.326717926400605"><ele>786.2857142857143</ele><time>2026-05-03T14:05:35.999Z</time></trkpt><trkpt lat="48.92902730202107" lon="19.326614657480725"><ele>786.1428571428572</ele><time>2026-05-03T14:05:36.999Z</time></trkpt><trkpt lat="48.92902109474521" lon="19.326513107854584"><ele>786.0</ele><time>2026-05-03T14:05:37.999Z</time></trkpt><trkpt lat="48.92901117431022" lon="19.326338096309524"><ele>785.25</ele><time>2026-05-03T14:05:39.999Z</time></trkpt><trkpt lat="48.92900393578056" lon="19.326159176426817"><ele>784.5</ele><time>2026-05-03T14:05:41.999Z</time></trkpt><trkpt lat="48.9290130165362" lon="19.32598930283787"><ele>783.75</ele><time>2026-05-03T14:05:43.999Z</time></trkpt><trkpt lat="48.92904755491546" lon="19.32580595556018"><ele>783.0</ele><time>2026-05-03T14:05:46Z</time></trkpt><trkpt lat="48.92910241682953" lon="19.325624979369334"><ele>781.6666666666666</ele><time>2026-05-03T14:05:48Z</time></trkpt><trkpt lat="48.92914145756084" lon="19.32552349667615"><ele>780.3333333333333</ele><time>2026-05-03T14:05:49Z</time></trkpt><trkpt lat="48.92919492918194" lon="19.32543363401387"><ele>779.0</ele><time>2026-05-03T14:05:50Z</time></trkpt><trkpt lat="48.929247393297956" lon="19.32536101554246"><ele>777.6666666666666</ele><time>2026-05-03T14:05:51Z</time></trkpt><trkpt lat="48.929299000771316" lon="19.325297908027444"><ele>776.3333333333333</ele><time>2026-05-03T14:05:52Z</time></trkpt><trkpt lat="48.929346587142795" lon="19.32522755995864"><ele>775.0</ele><time>2026-05-03T14:05:53Z</time></trkpt><trkpt lat="48.9294454381554" lon="19.325134633451647"><ele>775.0</ele><time>2026-05-03T14:05:55Z</time></trkpt><trkpt lat="48.9295485798133" lon="19.32502260458965"><ele>775.0</ele><time>2026-05-03T14:05:57Z</time></trkpt><trkpt lat="48.92964957597391" lon="19.3248927700988"><ele>775.0</ele><time>2026-05-03T14:05:59Z</time></trkpt><trkpt lat="48.92970850910713" lon="19.324832794332227"><ele>775.0</ele><time>2026-05-03T14:06:00Z</time></trkpt><trkpt lat="48.92975484573763" lon="19.3247612734915"><ele>775.0</ele><time>2026-05-03T14:06:01Z</time></trkpt><trkpt lat="48.929806529979835" lon="19.324691976661512"><ele>776.1666666666666</ele><time>2026-05-03T14:06:02Z</time></trkpt><trkpt lat="48.9299033347145" lon="19.324577231371205"><ele>777.3333333333333</ele><time>2026-05-03T14:06:04Z</time></trkpt><trkpt lat="48.929991229853314" lon="19.324452594517012"><ele>778.5</ele><time>2026-05-03T14:06:06Z</time></trkpt><trkpt lat="48.9300413746885" lon="19.324385979589895"><ele>779.6666666666667</ele><time>2026-05-03T14:06:07Z</time></trkpt><trkpt lat="48.93009798066229" lon="19.32433281793312"><ele>780.8333333333334</ele><time>2026-05-03T14:06:08Z</time></trkpt><trkpt lat="48.93015077989535" lon="19.32427569269648"><ele>782.0</ele><time>2026-05-03T14:06:09Z</time></trkpt><trkpt lat="48.93025159822777" lon="19.324160126991003"><ele>780.1666666666667</ele><time>2026-05-03T14:06:11Z</time></trkpt><trkpt lat="48.93034913527517" lon="19.324037155495233"><ele>778.3333333333334</ele><time>2026-05-03T14:06:13Z</time></trkpt><trkpt lat="48.93044125353737" lon="19.32392876966599"><ele>776.5</ele><time>2026-05-03T14:06:15Z</time></trkpt><trkpt lat="48.93049437243582" lon="19.323873162104267"><ele>774.6666666666667</ele><time>2026-05-03T14:06:16Z</time></trkpt><trkpt lat="48.93055099580517" lon="19.323817290561625"><ele>772.8333333333334</ele><time>2026-05-03T14:06:17Z</time></trkpt><trkpt lat="48.93060236900544" lon="19.323744641957987"><ele>771.0</ele><time>2026-05-03T14:06:18Z</time></trkpt><trkpt lat="48.93065982255457" lon="19.32369219433803"><ele>771.0</ele><time>2026-05-03T14:06:19Z</time></trkpt><trkpt lat="48.93075864806439" lon="19.32358131990945"><ele>771.0</ele><time>2026-05-03T14:06:21Z</time></trkpt><trkpt lat="48.930859087392804" lon="19.323462935442844"><ele>771.0</ele><time>2026-05-03T14:06:23Z</time></trkpt><trkpt lat="48.93091665810225" lon="19.323404519005212"><ele>771.0</ele><time>2026-05-03T14:06:24Z</time></trkpt><trkpt lat="48.93097860995756" lon="19.323346121532328"><ele>771.0</ele><time>2026-05-03T14:06:25Z</time></trkpt><trkpt lat="48.93103861837387" lon="19.32329654993384"><ele>770.3333333333334</ele><time>2026-05-03T14:06:26Z</time></trkpt><trkpt lat="48.93110200665439" lon="19.323244357949175"><ele>769.6666666666666</ele><time>2026-05-03T14:06:27Z</time></trkpt><trkpt lat="48.93116825205798" lon="19.3231880565264"><ele>769.0</ele><time>2026-05-03T14:06:28Z</time></trkpt><trkpt lat="48.93124222781211" lon="19.323132749464033"><ele>768.3333333333333</ele><time>2026-05-03T14:06:29Z</time></trkpt><trkpt lat="48.93131945653363" lon="19.32306714044975"><ele>767.6666666666666</ele><time>2026-05-03T14:06:30Z</time></trkpt><trkpt lat="48.93140171839703" lon="19.323007597591484"><ele>767.0</ele><time>2026-05-03T14:06:31Z</time></trkpt><trkpt lat="48.93148401709753" lon="19.32294673465079"><ele>767.0</ele><time>2026-05-03T14:06:32Z</time></trkpt><trkpt lat="48.931571036390054" lon="19.322873027994362"><ele>767.0</ele><time>2026-05-03T14:06:33Z</time></trkpt><trkpt lat="48.93165997240835" lon="19.322797735780426"><ele>767.0</ele><time>2026-05-03T14:06:34Z</time></trkpt><trkpt lat="48.93175246218018" lon="19.32271855072873"><ele>767.0</ele><time>2026-05-03T14:06:35Z</time></trkpt><trkpt lat="48.93184558203308" lon="19.322630397674498"><ele>767.0</ele><time>2026-05-03T14:06:36Z</time></trkpt><trkpt lat="48.931936040043695" lon="19.32252500081243"><ele>764.5</ele><time>2026-05-03T14:06:37Z</time></trkpt><trkpt lat="48.93203135614141" lon="19.322416103433962"><ele>762.0</ele><time>2026-05-03T14:06:38Z</time></trkpt><trkpt lat="48.93212470742638" lon="19.322312669389486"><ele>759.5</ele><time>2026-05-03T14:06:39Z</time></trkpt><trkpt lat="48.9322192002962" lon="19.32222240028132"><ele>757.0</ele><time>2026-05-03T14:06:40Z</time></trkpt><trkpt lat="48.93231248751631" lon="19.322139561152873"><ele>757.0</ele><time>2026-05-03T14:06:41Z</time></trkpt><trkpt lat="48.93239952158323" lon="19.322064790837835"><ele>757.0</ele><time>2026-05-03T14:06:42Z</time></trkpt><trkpt lat="48.932483547637396" lon="19.321984619410227"><ele>757.0</ele><time>2026-05-03T14:06:43Z</time></trkpt><trkpt lat="48.93256318576166" lon="19.321907496042215"><ele>757.0</ele><time>2026-05-03T14:06:44Z</time></trkpt><trkpt lat="48.932643957200746" lon="19.321840328893916"><ele>757.0</ele><time>2026-05-03T14:06:45Z</time></trkpt><trkpt lat="48.9327240012285" lon="19.321781989597227"><ele>756.8571428571429</ele><time>2026-05-03T14:06:46Z</time></trkpt><trkpt lat="48.93280014360722" lon="19.321728890030034"><ele>756.7142857142857</ele><time>2026-05-03T14:06:47Z</time></trkpt><trkpt lat="48.9328725923329" lon="19.32167230385312"><ele>756.5714285714286</ele><time>2026-05-03T14:06:48Z</time></trkpt><trkpt lat="48.93294251622415" lon="19.321618503282565"><ele>756.4285714285714</ele><time>2026-05-03T14:06:49Z</time></trkpt><trkpt lat="48.933005620010796" lon="19.321563548685486"><ele>756.2857142857142</ele><time>2026-05-03T14:06:50Z</time></trkpt><trkpt lat="48.933065643542086" lon="19.321513042172807"><ele>756.1428571428571</ele><time>2026-05-03T14:06:51Z</time></trkpt><trkpt lat="48.93312245401788" lon="19.32147105793868"><ele>756.0</ele><time>2026-05-03T14:06:52Z</time></trkpt><trkpt lat="48.933228447895516" lon="19.321389543316194"><ele>756.0</ele><time>2026-05-03T14:06:54Z</time></trkpt><trkpt lat="48.93332175990085" lon="19.321319532026884"><ele>756.0</ele><time>2026-05-03T14:06:56Z</time></trkpt><trkpt lat="48.93339927010815" lon="19.32124934475488"><ele>756.0</ele><time>2026-05-03T14:06:58Z</time></trkpt><trkpt lat="48.9334758674567" lon="19.321213574803284"><ele>756.0</ele><time>2026-05-03T14:07:00Z</time></trkpt><trkpt lat="48.93355626115886" lon="19.321168175672163"><ele>756.0</ele><time>2026-05-03T14:07:02Z</time></trkpt><trkpt lat="48.9335873490075" lon="19.32106864910939"><ele>756.0</ele><time>2026-05-03T14:07:04Z</time></trkpt><trkpt lat="48.93351311593584" lon="19.32099740830512"><ele>756.0</ele><time>2026-05-03T14:07:07Z</time></trkpt><trkpt lat="48.93345169783762" lon="19.3210309979157"><ele>756.0</ele><time>2026-05-03T14:07:09.999Z</time></trkpt><trkpt lat="48.93338979402232" lon="19.32107170068054"><ele>756.0</ele><time>2026-05-03T14:07:13.999Z</time></trkpt><trkpt lat="48.933295458936065" lon="19.321135360355196"><ele>756.0</ele><time>2026-05-03T14:07:16.999Z</time></trkpt><trkpt lat="48.93319937234822" lon="19.321042402305025"><ele>756.0</ele><time>2026-05-03T14:07:18.999Z</time></trkpt><trkpt lat="48.93315865872046" lon="19.3209359335188"><ele>756.0</ele><time>2026-05-03T14:07:20.999Z</time></trkpt><trkpt lat="48.93309685983579" lon="19.320883432723825"><ele>756.0</ele><time>2026-05-03T14:07:23.999Z</time></trkpt><trkpt lat="48.93307209448085" lon="19.32078789373908"><ele>756.0</ele><time>2026-05-03T14:07:29.999Z</time></trkpt><trkpt lat="48.933147367921784" lon="19.320807231277946"><ele>756.0</ele><time>2026-05-03T14:08:10Z</time></trkpt><trkpt lat="48.93310780014692" lon="19.32072780614708"><ele>756.0</ele><time>2026-05-03T14:08:42Z</time></trkpt><trkpt lat="48.93304591496331" lon="19.320683668902152"><ele>756.0</ele><time>2026-05-03T14:08:45Z</time></trkpt><trkpt lat="48.932977909590676" lon="19.320663297116507"><ele>756.0</ele><time>2026-05-03T14:08:48Z</time></trkpt><trkpt lat="48.932952855752816" lon="19.32057415674934"><ele>756.0</ele><time>2026-05-03T14:08:51Z</time></trkpt><trkpt lat="48.93292662707488" lon="19.320485151313157"><ele>757.0</ele><time>2026-05-03T14:08:54Z</time></trkpt><trkpt lat="48.932923787395666" lon="19.320289658154447"><ele>758.0</ele><time>2026-05-03T14:09:25Z</time></trkpt><trkpt lat="48.933008163212676" lon="19.32028291565648"><ele>759.0</ele><time>2026-05-03T14:09:28Z</time></trkpt><trkpt lat="48.93308469694072" lon="19.320275366643678"><ele>760.0</ele><time>2026-05-03T14:09:30Z</time></trkpt><trkpt lat="48.9331737858814" lon="19.320258625548856"><ele>761.0</ele><time>2026-05-03T14:09:32Z</time></trkpt><trkpt lat="48.93325327641387" lon="19.320217645557456"><ele>761.0</ele><time>2026-05-03T14:09:34Z</time></trkpt><trkpt lat="48.933310412512355" lon="19.32016694538377"><ele>761.0</ele><time>2026-05-03T14:09:36Z</time></trkpt><trkpt lat="48.93338837531472" lon="19.320142946982664"><ele>761.0</ele><time>2026-05-03T14:09:37.999Z</time></trkpt><trkpt lat="48.93347608415809" lon="19.320119282155524"><ele>761.0</ele><time>2026-05-03T14:09:39.999Z</time></trkpt><trkpt lat="48.93355001836724" lon="19.320062224243614"><ele>761.0</ele><time>2026-05-03T14:09:41.999Z</time></trkpt><trkpt lat="48.93361812454505" lon="19.32002234181476"><ele>761.0</ele><time>2026-05-03T14:09:43.999Z</time></trkpt><trkpt lat="48.93371528670489" lon="19.31999264103203"><ele>757.8</ele><time>2026-05-03T14:09:46.999Z</time></trkpt><trkpt lat="48.93381487083475" lon="19.320004384983996"><ele>754.5999999999999</ele><time>2026-05-03T14:09:48.999Z</time></trkpt><trkpt lat="48.93389866998645" lon="19.320026004920255"><ele>751.4</ele><time>2026-05-03T14:09:50.999Z</time></trkpt><trkpt lat="48.933992705504174" lon="19.32004637200864"><ele>748.2</ele><time>2026-05-03T14:09:52.999Z</time></trkpt><trkpt lat="48.93407833063473" lon="19.320069595423664"><ele>745.0</ele><time>2026-05-03T14:09:54.999Z</time></trkpt><trkpt lat="48.934162823123096" lon="19.32007294442755"><ele>744.5</ele><time>2026-05-03T14:09:58Z</time></trkpt><trkpt lat="48.93426263836043" lon="19.320057123505027"><ele>744.0</ele><time>2026-05-03T14:10:01Z</time></trkpt><trkpt lat="48.934338520948" lon="19.320061809246113"><ele>743.5</ele><time>2026-05-03T14:10:03Z</time></trkpt><trkpt lat="48.93441706492974" lon="19.32005286146247"><ele>743.0</ele><time>2026-05-03T14:10:05Z</time></trkpt><trkpt lat="48.93448180274929" lon="19.32006375971021"><ele>742.5</ele><time>2026-05-03T14:10:06Z</time></trkpt><trkpt lat="48.93454171891064" lon="19.320095621166317"><ele>742.0</ele><time>2026-05-03T14:10:07Z</time></trkpt><trkpt lat="48.93463805854506" lon="19.320167434798673"><ele>742.0</ele><time>2026-05-03T14:10:09Z</time></trkpt><trkpt lat="48.93470591333221" lon="19.320250490692843"><ele>742.0</ele><time>2026-05-03T14:10:12Z</time></trkpt><trkpt lat="48.93477890950521" lon="19.320286328649374"><ele>742.0</ele><time>2026-05-03T14:10:15Z</time></trkpt><trkpt lat="48.93484747279557" lon="19.320261104319496"><ele>742.0</ele><time>2026-05-03T14:10:18Z</time></trkpt><trkpt lat="48.934920000654685" lon="19.320259132759993"><ele>742.0</ele><time>2026-05-03T14:10:23Z</time></trkpt><trkpt lat="48.934983664569394" lon="19.32024995441296"><ele>742.0</ele><time>2026-05-03T14:10:28Z</time></trkpt><trkpt lat="48.9350621417062" lon="19.320257981711492"><ele>742.0</ele><time>2026-05-03T14:10:32Z</time></trkpt><trkpt lat="48.93512661191384" lon="19.32024229392701"><ele>741.0</ele><time>2026-05-03T14:10:35Z</time></trkpt><trkpt lat="48.9351926276199" lon="19.3202416603046"><ele>740.0</ele><time>2026-05-03T14:10:38Z</time></trkpt><trkpt lat="48.935257311521376" lon="19.32025286666536"><ele>739.0</ele><time>2026-05-03T14:10:41Z</time></trkpt><trkpt lat="48.93536589145385" lon="19.320243862625414"><ele>738.0</ele><time>2026-05-03T14:10:44Z</time></trkpt><trkpt lat="48.9354549583022" lon="19.32024123673016"><ele>737.0</ele><time>2026-05-03T14:10:46Z</time></trkpt><trkpt lat="48.935535274310205" lon="19.320243974177338"><ele>736.0</ele><time>2026-05-03T14:10:48Z</time></trkpt><trkpt lat="48.9356151730151" lon="19.320250293820866"><ele>736.0</ele><time>2026-05-03T14:10:50Z</time></trkpt><trkpt lat="48.93568486978698" lon="19.320250695807346"><ele>736.0</ele><time>2026-05-03T14:10:52Z</time></trkpt><trkpt lat="48.93581443651914" lon="19.320247011123126"><ele>736.0</ele><time>2026-05-03T14:10:54Z</time></trkpt><trkpt lat="48.9359007965144" lon="19.320235655901964"><ele>736.0</ele><time>2026-05-03T14:10:55Z</time></trkpt><trkpt lat="48.93599831979275" lon="19.320218915017023"><ele>736.0</ele><time>2026-05-03T14:10:56Z</time></trkpt><trkpt lat="48.93611759435479" lon="19.320183717606277"><ele>734.5999999999999</ele><time>2026-05-03T14:10:57Z</time></trkpt><trkpt lat="48.936221767361495" lon="19.320121606585186"><ele>733.2</ele><time>2026-05-03T14:10:58Z</time></trkpt><trkpt lat="48.936304403170155" lon="19.320054008103956"><ele>731.8</ele><time>2026-05-03T14:10:59Z</time></trkpt><trkpt lat="48.93640875636074" lon="19.320028819153528"><ele>730.4000000000001</ele><time>2026-05-03T14:11:00Z</time></trkpt><trkpt lat="48.93649900596102" lon="19.320005476867486"><ele>729.0</ele><time>2026-05-03T14:11:01Z</time></trkpt><trkpt lat="48.936591399149776" lon="19.31997722575452"><ele>729.0</ele><time>2026-05-03T14:11:02Z</time></trkpt><trkpt lat="48.93668566130992" lon="19.31997970966085"><ele>729.0</ele><time>2026-05-03T14:11:03Z</time></trkpt><trkpt lat="48.93679158796299" lon="19.319993888367627"><ele>729.0</ele><time>2026-05-03T14:11:04Z</time></trkpt><trkpt lat="48.93689456585717" lon="19.3200126182579"><ele>729.0</ele><time>2026-05-03T14:11:05Z</time></trkpt><trkpt lat="48.93699764992141" lon="19.320037244353816"><ele>729.0</ele><time>2026-05-03T14:11:06Z</time></trkpt><trkpt lat="48.93709793898471" lon="19.320046809899488"><ele>727.6666666666666</ele><time>2026-05-03T14:11:07Z</time></trkpt><trkpt lat="48.93718500398517" lon="19.320064062787054"><ele>726.3333333333334</ele><time>2026-05-03T14:11:08Z</time></trkpt><trkpt lat="48.93727486516313" lon="19.320071405929408"><ele>725.0</ele><time>2026-05-03T14:11:09Z</time></trkpt><trkpt lat="48.93736122393989" lon="19.320081739422214"><ele>723.6666666666667</ele><time>2026-05-03T14:11:10Z</time></trkpt><trkpt lat="48.93744837895449" lon="19.32009453866258"><ele>722.3333333333334</ele><time>2026-05-03T14:11:11Z</time></trkpt><trkpt lat="48.93753569213787" lon="19.320111723797872"><ele>721.0</ele><time>2026-05-03T14:11:12Z</time></trkpt><trkpt lat="48.937621198419066" lon="19.32012712501998"><ele>719.8</ele><time>2026-05-03T14:11:13Z</time></trkpt><trkpt lat="48.93772625502321" lon="19.320136886829165"><ele>718.5999999999999</ele><time>2026-05-03T14:11:14Z</time></trkpt><trkpt lat="48.937821183162285" lon="19.320118385306348"><ele>717.4</ele><time>2026-05-03T14:11:15Z</time></trkpt><trkpt lat="48.93790980897543" lon="19.32010154493512"><ele>716.2</ele><time>2026-05-03T14:11:16Z</time></trkpt><trkpt lat="48.938000857150506" lon="19.32007975797864"><ele>715.0</ele><time>2026-05-03T14:11:17Z</time></trkpt><trkpt lat="48.93808678799882" lon="19.320059254817075"><ele>715.0</ele><time>2026-05-03T14:11:18Z</time></trkpt><trkpt lat="48.938170725293325" lon="19.320027051851422"><ele>715.0</ele><time>2026-05-03T14:11:19Z</time></trkpt><trkpt lat="48.93825633437959" lon="19.319993479621594"><ele>715.0</ele><time>2026-05-03T14:11:20Z</time></trkpt><trkpt lat="48.938346300867615" lon="19.319953605156694"><ele>715.0</ele><time>2026-05-03T14:11:21Z</time></trkpt><trkpt lat="48.938449589907044" lon="19.319891627042814"><ele>715.0</ele><time>2026-05-03T14:11:22Z</time></trkpt><trkpt lat="48.93855050145252" lon="19.31985152439375"><ele>714.6</ele><time>2026-05-03T14:11:23Z</time></trkpt><trkpt lat="48.93864865323315" lon="19.319802287221123"><ele>714.2</ele><time>2026-05-03T14:11:24Z</time></trkpt><trkpt lat="48.93874587301684" lon="19.31974668200446"><ele>713.8</ele><time>2026-05-03T14:11:25Z</time></trkpt><trkpt lat="48.9388476924694" lon="19.319684736172412"><ele>713.4</ele><time>2026-05-03T14:11:26Z</time></trkpt><trkpt lat="48.938946632164765" lon="19.31959578812654"><ele>713.0</ele><time>2026-05-03T14:11:27Z</time></trkpt><trkpt lat="48.93903539781698" lon="19.3194823392375"><ele>712.4</ele><time>2026-05-03T14:11:28Z</time></trkpt><trkpt lat="48.93911393169441" lon="19.319355017259817"><ele>711.8</ele><time>2026-05-03T14:11:29Z</time></trkpt><trkpt lat="48.93917905940396" lon="19.319222815028773"><ele>711.2</ele><time>2026-05-03T14:11:30Z</time></trkpt><trkpt lat="48.93923713496671" lon="19.31909316252706"><ele>710.6</ele><time>2026-05-03T14:11:31Z</time></trkpt><trkpt lat="48.93929859312606" lon="19.31897355204296"><ele>710.0</ele><time>2026-05-03T14:11:32Z</time></trkpt><trkpt lat="48.93936415230939" lon="19.318868639092365"><ele>708.8</ele><time>2026-05-03T14:11:33Z</time></trkpt><trkpt lat="48.93943681060891" lon="19.318780567179264"><ele>707.6</ele><time>2026-05-03T14:11:34Z</time></trkpt><trkpt lat="48.93952094061548" lon="19.31871543307581"><ele>706.4000000000001</ele><time>2026-05-03T14:11:35Z</time></trkpt><trkpt lat="48.93960889340211" lon="19.318652585433146"><ele>705.2</ele><time>2026-05-03T14:11:36Z</time></trkpt><trkpt lat="48.939692189233604" lon="19.318596392095493"><ele>704.0</ele><time>2026-05-03T14:11:37Z</time></trkpt><trkpt lat="48.93977397120949" lon="19.318546221250255"><ele>704.0</ele><time>2026-05-03T14:11:38Z</time></trkpt><trkpt lat="48.93985464439511" lon="19.3185026760624"><ele>704.0</ele><time>2026-05-03T14:11:38.999Z</time></trkpt><trkpt lat="48.93993104779286" lon="19.318468735432653"><ele>704.0</ele><time>2026-05-03T14:11:39.999Z</time></trkpt><trkpt lat="48.94000548923554" lon="19.318435798619188"><ele>704.0</ele><time>2026-05-03T14:11:40.999Z</time></trkpt><trkpt lat="48.94007799877873" lon="19.318396291051894"><ele>704.0</ele><time>2026-05-03T14:11:41.999Z</time></trkpt><trkpt lat="48.94014784163254" lon="19.318362731562562"><ele>704.0</ele><time>2026-05-03T14:11:42.999Z</time></trkpt><trkpt lat="48.94021921688893" lon="19.318328020782882"><ele>703.1666666666666</ele><time>2026-05-03T14:11:43.999Z</time></trkpt><trkpt lat="48.94028786109109" lon="19.31829463120886"><ele>702.3333333333333</ele><time>2026-05-03T14:11:44.999Z</time></trkpt><trkpt lat="48.94035357321375" lon="19.318258953733057"><ele>701.5</ele><time>2026-05-03T14:11:45.999Z</time></trkpt><trkpt lat="48.94041718344643" lon="19.318223538894774"><ele>700.6666666666666</ele><time>2026-05-03T14:11:46.999Z</time></trkpt><trkpt lat="48.94047509506937" lon="19.3181825892931"><ele>699.8333333333334</ele><time>2026-05-03T14:11:47.999Z</time></trkpt><trkpt lat="48.9405696641759" lon="19.318078257864727"><ele>699.0</ele><time>2026-05-03T14:11:49.999Z</time></trkpt><trkpt lat="48.94065140637846" lon="19.317969838273218"><ele>698.8333333333334</ele><time>2026-05-03T14:11:51.999Z</time></trkpt><trkpt lat="48.94071158606275" lon="19.317850267876477"><ele>698.6666666666666</ele><time>2026-05-03T14:11:53.999Z</time></trkpt><trkpt lat="48.94075632364509" lon="19.317751516107055"><ele>698.5</ele><time>2026-05-03T14:11:55.999Z</time></trkpt><trkpt lat="48.94071945921224" lon="19.317646153899634"><ele>698.3333333333333</ele><time>2026-05-03T14:11:58.999Z</time></trkpt><trkpt lat="48.94062097745525" lon="19.317726848455006"><ele>698.1666666666666</ele><time>2026-05-03T14:12:00.999Z</time></trkpt><trkpt lat="48.94055688476836" lon="19.31780007832419"><ele>698.0</ele><time>2026-05-03T14:12:01.999Z</time></trkpt><trkpt lat="48.940496066484" lon="19.317846482290488"><ele>698.0</ele><time>2026-05-03T14:12:03Z</time></trkpt><trkpt lat="48.94042931685832" lon="19.31787440836236"><ele>698.0</ele><time>2026-05-03T14:12:04Z</time></trkpt><trkpt lat="48.94034675112112" lon="19.317881316967707"><ele>698.0</ele><time>2026-05-03T14:12:05Z</time></trkpt><trkpt lat="48.94025586627912" lon="19.3178996091855"><ele>698.0</ele><time>2026-05-03T14:12:06Z</time></trkpt><trkpt lat="48.94016451707823" lon="19.31792245031019"><ele>698.0</ele><time>2026-05-03T14:12:07Z</time></trkpt><trkpt lat="48.94007696038295" lon="19.317934338461733"><ele>698.0</ele><time>2026-05-03T14:12:08Z</time></trkpt><trkpt lat="48.939981983591046" lon="19.317940833948267"><ele>699.6666666666666</ele><time>2026-05-03T14:12:09Z</time></trkpt><trkpt lat="48.93989490532579" lon="19.31793696273425"><ele>701.3333333333333</ele><time>2026-05-03T14:12:10Z</time></trkpt><trkpt lat="48.939822270105644" lon="19.317931782138338"><ele>703.0</ele><time>2026-05-03T14:12:11Z</time></trkpt><trkpt lat="48.939740362910264" lon="19.317940188871876"><ele>704.6666666666666</ele><time>2026-05-03T14:12:12Z</time></trkpt><trkpt lat="48.939658089012575" lon="19.317943012186365"><ele>706.3333333333334</ele><time>2026-05-03T14:12:13Z</time></trkpt><trkpt lat="48.93954006048127" lon="19.317907293243337"><ele>708.0</ele><time>2026-05-03T14:12:15Z</time></trkpt><trkpt lat="48.93946444841679" lon="19.317854568433262"><ele>708.0</ele><time>2026-05-03T14:12:16Z</time></trkpt><trkpt lat="48.939388739041625" lon="19.317778481900003"><ele>708.0</ele><time>2026-05-03T14:12:17Z</time></trkpt><trkpt lat="48.939284605299854" lon="19.317653541135453"><ele>708.0</ele><time>2026-05-03T14:12:18Z</time></trkpt><trkpt lat="48.939138513092125" lon="19.317523057888845"><ele>708.0</ele><time>2026-05-03T14:12:19Z</time></trkpt><trkpt lat="48.939002296290106" lon="19.317454348944246"><ele>710.1666666666666</ele><time>2026-05-03T14:12:20Z</time></trkpt><trkpt lat="48.93889911615024" lon="19.31743294706253"><ele>712.3333333333334</ele><time>2026-05-03T14:12:21Z</time></trkpt><trkpt lat="48.93882269842185" lon="19.317429204282888"><ele>714.5</ele><time>2026-05-03T14:12:22Z</time></trkpt><trkpt lat="48.93875390419735" lon="19.31741497272874"><ele>716.6666666666667</ele><time>2026-05-03T14:12:23Z</time></trkpt><trkpt lat="48.938672712183035" lon="19.317348059930694"><ele>718.8333333333334</ele><time>2026-05-03T14:12:25Z</time></trkpt><trkpt lat="48.938659844387885" lon="19.317241929707787"><ele>721.0</ele><time>2026-05-03T14:16:11.999Z</time></trkpt><trkpt lat="48.93871777628777" lon="19.317200624554218"><ele>721.1666666666667</ele><time>2026-05-03T14:16:14.999Z</time></trkpt><trkpt lat="48.93877408096721" lon="19.317291686954256"><ele>721.3333333333334</ele><time>2026-05-03T14:16:18.999Z</time></trkpt><trkpt lat="48.938820764936814" lon="19.317362238025094"><ele>721.5</ele><time>2026-05-03T14:16:20.999Z</time></trkpt><trkpt lat="48.9388898301519" lon="19.31742577455611"><ele>721.6666666666666</ele><time>2026-05-03T14:16:23.999Z</time></trkpt><trkpt lat="48.93897947083758" lon="19.317410733897965"><ele>721.8333333333333</ele><time>2026-05-03T14:16:26.999Z</time></trkpt><trkpt lat="48.939043587182354" lon="19.317420455655093"><ele>722.0</ele><time>2026-05-03T14:16:28.999Z</time></trkpt><trkpt lat="48.93911198115403" lon="19.317444805844385"><ele>722.0</ele><time>2026-05-03T14:16:30.999Z</time></trkpt><trkpt lat="48.9391941520874" lon="19.31748249363263"><ele>722.0</ele><time>2026-05-03T14:16:32.999Z</time></trkpt><trkpt lat="48.939283130131706" lon="19.317561496737284"><ele>722.0</ele><time>2026-05-03T14:16:34.999Z</time></trkpt><trkpt lat="48.939384054747244" lon="19.31767471070696"><ele>722.0</ele><time>2026-05-03T14:16:36.999Z</time></trkpt><trkpt lat="48.939472403970136" lon="19.317812336103493"><ele>722.0</ele><time>2026-05-03T14:16:38.999Z</time></trkpt><trkpt lat="48.93953114408717" lon="19.3179411622558"><ele>719.2</ele><time>2026-05-03T14:16:41Z</time></trkpt><trkpt lat="48.939624915586265" lon="19.318003124793407"><ele>716.4000000000001</ele><time>2026-05-03T14:16:43Z</time></trkpt><trkpt lat="48.93972346166194" lon="19.317967713507603"><ele>713.5999999999999</ele><time>2026-05-03T14:16:45Z</time></trkpt><trkpt lat="48.93982083317832" lon="19.317953958380837"><ele>710.8</ele><time>2026-05-03T14:16:47Z</time></trkpt><trkpt lat="48.93992314285722" lon="19.317953201989994"><ele>708.0</ele><time>2026-05-03T14:16:49Z</time></trkpt><trkpt lat="48.940015644603825" lon="19.317952483707394"><ele>706.0</ele><time>2026-05-03T14:16:51Z</time></trkpt><trkpt lat="48.94009319768194" lon="19.31795047282128"><ele>704.0</ele><time>2026-05-03T14:16:53Z</time></trkpt><trkpt lat="48.94019322448547" lon="19.317948617919672"><ele>702.0</ele><time>2026-05-03T14:16:55Z</time></trkpt><trkpt lat="48.94029145661277" lon="19.31792211467896"><ele>700.0</ele><time>2026-05-03T14:16:57Z</time></trkpt><trkpt lat="48.94038397679329" lon="19.317899937399055"><ele>698.0</ele><time>2026-05-03T14:16:59Z</time></trkpt><trkpt lat="48.940472400810776" lon="19.317863747435855"><ele>698.0</ele><time>2026-05-03T14:17:01Z</time></trkpt><trkpt lat="48.94055171965793" lon="19.31783551297664"><ele>698.0</ele><time>2026-05-03T14:17:03Z</time></trkpt><trkpt lat="48.94062796753081" lon="19.317754839462417"><ele>698.0</ele><time>2026-05-03T14:17:05Z</time></trkpt><trkpt lat="48.94068389434094" lon="19.317676429707515"><ele>698.0</ele><time>2026-05-03T14:17:07Z</time></trkpt><trkpt lat="48.94074070037136" lon="19.3176096958133"><ele>698.0</ele><time>2026-05-03T14:17:09Z</time></trkpt><trkpt lat="48.94080382316362" lon="19.317509297615217"><ele>698.0</ele><time>2026-05-03T14:17:11Z</time></trkpt><trkpt lat="48.940882802526296" lon="19.317413326191883"><ele>697.8333333333333</ele><time>2026-05-03T14:17:13Z</time></trkpt><trkpt lat="48.940985035298986" lon="19.31732035246255"><ele>697.6666666666666</ele><time>2026-05-03T14:17:15Z</time></trkpt><trkpt lat="48.94104964688856" lon="19.317265030879557"><ele>697.5</ele><time>2026-05-03T14:17:16Z</time></trkpt><trkpt lat="48.94111810082747" lon="19.317228586939255"><ele>697.3333333333334</ele><time>2026-05-03T14:17:17Z</time></trkpt><trkpt lat="48.94118031385806" lon="19.317189346351576"><ele>697.1666666666667</ele><time>2026-05-03T14:17:18Z</time></trkpt><trkpt lat="48.94124316601533" lon="19.31715085072426"><ele>697.0</ele><time>2026-05-03T14:17:19Z</time></trkpt><trkpt lat="48.94130812005671" lon="19.31710913188768"><ele>696.8333333333334</ele><time>2026-05-03T14:17:20Z</time></trkpt><trkpt lat="48.941379940380195" lon="19.31708675089275"><ele>696.6666666666667</ele><time>2026-05-03T14:17:21Z</time></trkpt><trkpt lat="48.94144340032178" lon="19.317051343898278"><ele>696.5</ele><time>2026-05-03T14:17:22Z</time></trkpt><trkpt lat="48.941545233331574" lon="19.31700856604075"><ele>696.3333333333334</ele><time>2026-05-03T14:17:24Z</time></trkpt><trkpt lat="48.94161937950857" lon="19.316981659708873"><ele>696.1666666666666</ele><time>2026-05-03T14:17:26Z</time></trkpt><trkpt lat="48.941683816695665" lon="19.31695926721839"><ele>696.0</ele><time>2026-05-03T14:17:28Z</time></trkpt><trkpt lat="48.9417626782549" lon="19.316934089096492"><ele>697.0</ele><time>2026-05-03T14:17:31Z</time></trkpt><trkpt lat="48.9418364707392" lon="19.316910529247604"><ele>698.0</ele><time>2026-05-03T14:17:33Z</time></trkpt><trkpt lat="48.94184996761944" lon="19.31666434999297"><ele>699.0</ele><time>2026-05-03T14:17:34Z</time></trkpt><trkpt lat="48.94196742237007" lon="19.316661548531833"><ele>700.0</ele><time>2026-05-03T14:17:36Z</time></trkpt><trkpt lat="48.942030721289775" lon="19.31666077547895"><ele>701.0</ele><time>2026-05-03T14:17:37Z</time></trkpt><trkpt lat="48.94209858482011" lon="19.31670309785363"><ele>701.0</ele><time>2026-05-03T14:17:38Z</time></trkpt><trkpt lat="48.94216234621878" lon="19.316695124136313"><ele>701.0</ele><time>2026-05-03T14:17:39Z</time></trkpt><trkpt lat="48.94222982575286" lon="19.316686685453575"><ele>701.0</ele><time>2026-05-03T14:17:40Z</time></trkpt><trkpt lat="48.94230466034866" lon="19.316676828160837"><ele>701.0</ele><time>2026-05-03T14:17:41Z</time></trkpt><trkpt lat="48.942368848145016" lon="19.31666755968131"><ele>701.0</ele><time>2026-05-03T14:17:42Z</time></trkpt><trkpt lat="48.94244815347411" lon="19.31665578821637"><ele>701.0</ele><time>2026-05-03T14:17:43Z</time></trkpt><trkpt lat="48.9425155766865" lon="19.316645331319034"><ele>701.0</ele><time>2026-05-03T14:17:44Z</time></trkpt><trkpt lat="48.942580730172416" lon="19.31663048245178"><ele>701.0</ele><time>2026-05-03T14:17:45Z</time></trkpt><trkpt lat="48.94264464754389" lon="19.316614105001566"><ele>701.0</ele><time>2026-05-03T14:17:46Z</time></trkpt><trkpt lat="48.94275096095414" lon="19.31657953544869"><ele>701.0</ele><time>2026-05-03T14:17:48Z</time></trkpt><trkpt lat="48.94281653963982" lon="19.316535711343324"><ele>701.0</ele><time>2026-05-03T14:17:49Z</time></trkpt><trkpt lat="48.94289502141891" lon="19.31651745791188"><ele>701.0</ele><time>2026-05-03T14:17:50Z</time></trkpt><trkpt lat="48.942957122523076" lon="19.316500016227426"><ele>701.0</ele><time>2026-05-03T14:17:51Z</time></trkpt><trkpt lat="48.943026186626724" lon="19.316484271138116"><ele>701.0</ele><time>2026-05-03T14:17:52Z</time></trkpt><trkpt lat="48.94315548486724" lon="19.316434892628386"><ele>701.0</ele><time>2026-05-03T14:17:54Z</time></trkpt><trkpt lat="48.94322393525169" lon="19.3164242098498"><ele>701.0</ele><time>2026-05-03T14:17:55Z</time></trkpt><trkpt lat="48.94334338377268" lon="19.316441333099913"><ele>701.0</ele><time>2026-05-03T14:17:57Z</time></trkpt><trkpt lat="48.943452525021264" lon="19.316459523943315"><ele>701.0</ele><time>2026-05-03T14:17:59Z</time></trkpt><trkpt lat="48.94355259922601" lon="19.316476203560374"><ele>702.0</ele><time>2026-05-03T14:18:01Z</time></trkpt><trkpt lat="48.94363812059925" lon="19.31649045761783"><ele>703.0</ele><time>2026-05-03T14:18:03Z</time></trkpt><trkpt lat="48.94369639411645" lon="19.316353093422833"><ele>704.0</ele><time>2026-05-03T14:18:04Z</time></trkpt><trkpt lat="48.943786851032264" lon="19.316322099057814"><ele>705.0</ele><time>2026-05-03T14:18:06Z</time></trkpt><trkpt lat="48.94387048934945" lon="19.31627938085754"><ele>706.0</ele><time>2026-05-03T14:18:08Z</time></trkpt><trkpt lat="48.94395414085867" lon="19.316244541234173"><ele>706.0</ele><time>2026-05-03T14:18:10Z</time></trkpt><trkpt lat="48.94402287856835" lon="19.316333269510096"><ele>706.0</ele><time>2026-05-03T14:18:12Z</time></trkpt><trkpt lat="48.94404616952765" lon="19.31644675916267"><ele>706.0</ele><time>2026-05-03T14:18:13Z</time></trkpt><trkpt lat="48.944050943262084" lon="19.316622605550698"><ele>706.0</ele><time>2026-05-03T14:18:14Z</time></trkpt><trkpt lat="48.94405547501667" lon="19.31684702608377"><ele>706.0</ele><time>2026-05-03T14:18:15Z</time></trkpt><trkpt lat="48.94403842707361" lon="19.317061451037812"><ele>706.0</ele><time>2026-05-03T14:18:16Z</time></trkpt><trkpt lat="48.9440170946804" lon="19.31721432467042"><ele>706.0</ele><time>2026-05-03T14:18:17Z</time></trkpt><trkpt lat="48.94402143174875" lon="19.31735852154264"><ele>706.0</ele><time>2026-05-03T14:18:18Z</time></trkpt><trkpt lat="48.94404330145057" lon="19.317467873788637"><ele>706.0</ele><time>2026-05-03T14:18:19Z</time></trkpt><trkpt lat="48.94406055290252" lon="19.317639057171185"><ele>706.0</ele><time>2026-05-03T14:18:21Z</time></trkpt><trkpt lat="48.944075053286376" lon="19.317733508000792"><ele>706.5</ele><time>2026-05-03T14:18:22Z</time></trkpt><trkpt lat="48.94409228882913" lon="19.31789049942061"><ele>707.0</ele><time>2026-05-03T14:18:24Z</time></trkpt><trkpt lat="48.94410103349367" lon="19.318058927342015"><ele>707.5</ele><time>2026-05-03T14:18:26Z</time></trkpt><trkpt lat="48.94409306213811" lon="19.31818843670149"><ele>708.0</ele><time>2026-05-03T14:18:28Z</time></trkpt><trkpt lat="48.943932233232935" lon="19.318194370920565"><ele>708.8</ele><time>2026-05-03T14:18:31Z</time></trkpt><trkpt lat="48.943828921401945" lon="19.31826181467346"><ele>709.5999999999999</ele><time>2026-05-03T14:18:33Z</time></trkpt><trkpt lat="48.94373547571876" lon="19.318286873212827"><ele>710.4000000000001</ele><time>2026-05-03T14:18:35Z</time></trkpt><trkpt lat="48.94364628853432" lon="19.31831906087037"><ele>711.2</ele><time>2026-05-03T14:18:37Z</time></trkpt><trkpt lat="48.943562073060356" lon="19.318338297397077"><ele>712.0</ele><time>2026-05-03T14:18:39Z</time></trkpt><trkpt lat="48.94348258956337" lon="19.318374925667975"><ele>712.0</ele><time>2026-05-03T14:18:41Z</time></trkpt><trkpt lat="48.94343269526084" lon="19.318565744347374"><ele>712.0</ele><time>2026-05-03T14:18:44Z</time></trkpt><trkpt lat="48.94346439137582" lon="19.318727339903965"><ele>712.0</ele><time>2026-05-03T14:18:46Z</time></trkpt><trkpt lat="48.94343304751622" lon="19.31881193205853"><ele>712.0</ele><time>2026-05-03T14:18:47Z</time></trkpt><trkpt lat="48.94343328300687" lon="19.318976513925747"><ele>712.0</ele><time>2026-05-03T14:18:49Z</time></trkpt><trkpt lat="48.943432703805975" lon="19.319106777900892"><ele>712.3333333333334</ele><time>2026-05-03T14:18:51Z</time></trkpt><trkpt lat="48.94343087360907" lon="19.319215913399937"><ele>712.6666666666667</ele><time>2026-05-03T14:18:53Z</time></trkpt><trkpt lat="48.943428988577246" lon="19.319314706453547"><ele>713.0</ele><time>2026-05-03T14:18:55Z</time></trkpt><trkpt lat="48.94343971529074" lon="19.319429930973183"><ele>713.3333333333334</ele><time>2026-05-03T14:18:59Z</time></trkpt><trkpt lat="48.94338113289056" lon="19.319496327554017"><ele>713.6666666666666</ele><time>2026-05-03T14:19:50Z</time></trkpt><trkpt lat="48.943360628826746" lon="19.319663929488627"><ele>714.0</ele><time>2026-05-03T14:19:52Z</time></trkpt><trkpt lat="48.943384853192896" lon="19.31976385338682"><ele>714.0</ele><time>2026-05-03T14:19:54Z</time></trkpt><trkpt lat="48.9433399245531" lon="19.319663103581924"><ele>709.0</ele><time>2026-05-03T14:20:50Z</time></trkpt><trkpt lat="48.94340853742258" lon="19.319717962379634"><ele>714.0</ele><time>2026-05-03T14:21:43Z</time></trkpt></trkseg></trk></gpx>